[[{"header":{"parameterUnit":"m.s-1","parameterCategory":1,"la1":31.0,"la2":29.5877,"lo1":-88.7671,"lo2":-86.6584,"dy":0.0162,"dx":0.0185,"nx":115,"ny":88,"refTime":"2024-06-23T06:00:00:Z","depth":0,"parameterNumber":2,"parameterNumberName":"U-component_of_WINDS"},"data":[0.0,0.0,0.0,0.0,0.0,0.0,0.0,0.0,0.0,0.0,0.0,0.0,0.0,0.0,0.0,0.0,0.0,0.0,0.0,0.0,0.0,0.0,0.0,0.0,0.0,0.0,0.0,0.0,0.0,0.0,0.0,0.0,0.0,0.0,0.0,0.0,0.0,0.0,0.0,0.0,0.0,0.0,0.0,0.0,0.0,0.0,0.0,0.0,0.0,0.0,0.0,0.0,0.0,0.0,0.0,0.0,0.0,0.0,0.0,0.0,0.0,0.0,0.0,0.0,0.0,0.0,0.0,0.0,0.0,0.0,0.0,0.0,0.0,0.0,0.0,0.0,0.0,0.0,0.0,0.0,0.0,0.0,0.0,0.0,0.0,0.0,0.0,0.0,0.0,0.0,0.0,0.0,0.0,0.0,0.0,0.0,0.0,0.0,0.0,0.0,0.0,0.0,0.0,0.0,0.0,0.0,0.0,0.0,0.0,0.0,0.0,0.0,0.0,0.0,0.0,0.0,0.0,0.0,0.0,0.0,0.0,0.0,0.0,0.0,0.0,0.0,0.0,0.0,0.0,0.0,0.0,0.0,0.0,0.0,0.0,0.0,0.0,0.0,0.0,0.0,0.0,0.0,0.0,0.0,0.0,0.0,0.0,0.0,0.0,0.0,0.0,0.0,0.0,0.0,0.0,0.0,0.0,0.0,0.0,0.0,0.0,0.0,0.0,0.0,0.0,0.0,0.0,0.0,0.0,0.0,0.0,0.0,0.0,0.0,0.0,0.0,0.0,0.0,0.0,0.0,0.0,0.0,0.0,0.0,0.0,0.0,0.0,0.0,0.0,0.0,0.0,0.0,0.0,0.0,0.0,0.0,0.0,0.0,0.0,0.0,0.0,0.0,0.0,0.0,0.0,0.0,0.0,0.0,0.0,0.0,0.0,0.0,0.0,0.0,0.0,0.0,0.0,0.0,0.0,0.0,0.0,0.0,0.0,0.0,0.0,0.0,0.0,0.0,0.0,0.0,0.0,0.0,0.0,0.0,0.0,0.0,0.0,0.0,0.0,0.0,0.0,0.0,0.0,0.0,0.0,0.0,0.0,0.0,0.0,0.0,0.0,0.0,0.0,0.0,0.0,0.0,0.0,0.0,0.0,0.0,0.0,0.0,0.0,0.0,0.0,0.0,0.0,0.0,0.0,0.0,0.0,0.0,0.0,0.0,0.0,0.0,0.0,0.0,0.0,0.0,0.0,0.0,0.0,0.0,0.0,0.0,0.0,0.0,0.0,0.0,0.0,0.0,0.0,0.0,0.0,0.0,0.0,0.0,0.0,0.0,0.0,0.0,0.0,0.0,0.0,0.0,0.0,0.0,0.0,0.0,0.0,0.0,0.0,0.0,0.0,0.0,0.0,0.0,0.0,0.0,0.0,0.0,0.0,0.0,0.0,0.0,0.0,0.0,0.0,0.0,0.0,0.0,0.0,0.0,0.0,0.0,0.0,0.0,0.0,0.0,0.0,0.0,0.0,0.0,0.0,0.0,0.0,0.0,0.0,0.0,0.0,0.0,0.0,0.0,0.0,0.0,0.0,0.0,0.0,0.0,0.0,0.0,0.0,0.0,0.0,0.0,0.0,0.0,0.0,0.0,0.0,0.0,0.0,0.0,0.0,0.0,0.0,0.0,0.0,0.0,0.0,0.0,0.0,0.0,0.0,0.0,0.0,0.0,0.0,0.0,0.0,0.0,0.0,0.0,0.0,0.0,0.0,0.0,0.0,0.0,0.0,0.0,0.0,0.0,0.0,0.0,0.0,0.0,0.0,0.0,0.0,0.0,0.0,0.0,0.0,0.0,0.0,0.0,0.0,0.0,0.0,0.0,0.0,0.0,0.0,0.0,0.0,0.0,0.0,0.0,0.0,0.0,0.0,0.0,0.0,0.0,0.0,0.0,0.0,0.0,0.0,0.0,0.0,0.0,0.0,0.0,0.0,0.0,0.0,0.0,0.0,0.0,0.0,0.0,0.0,0.0,0.0,0.0,0.0,0.0,0.0,0.0,0.0,0.0,0.0,0.0,0.0,0.0,0.0,0.0,0.0,0.0,0.0,0.0,0.0,0.0,0.0,0.0,0.0,0.0,0.0,0.0,0.0,0.0,0.0,0.0,0.0,0.0,0.0,0.0,0.0,0.0,0.0,0.0,0.0,0.0,0.0,0.0,0.0,0.0,0.0,0.0,0.0,0.0,0.0,0.0,0.0,0.0,0.0,0.0,0.0,0.0,0.0,0.0,0.0,0.0,0.0,0.0,0.0,0.0,0.0,0.0,0.0,0.0,0.0,0.0,0.0,0.0,0.0,0.0,0.0,0.0,0.0,0.0,0.0,0.0,0.0,0.0,0.0,0.0,0.0,0.0,0.0,0.0,0.0,0.0,0.0,0.0,0.0,0.0,0.0,0.0,0.0,0.0,0.0,0.0,0.0,0.0,0.0,0.0,0.0,0.0,0.0,0.0,0.0,0.0,0.0,0.0,0.0,0.0,0.0,0.0,0.0,0.0,0.0,0.0,0.0,0.0,0.0,0.0,0.0,0.0,0.0,0.0,0.0,0.0,0.0,0.0,0.0,0.0,0.0,0.0,0.0,0.0,0.0,0.0,0.0,0.0,0.0,0.0,0.0,0.0,0.0,0.0,0.0,0.0,0.0,0.0,0.0,0.0,0.0,0.0,0.0,0.0,0.0,0.0,0.0,0.0,0.0,0.0,0.0,0.0,0.0,0.0,0.0,0.0,0.0,0.0,0.0,0.0,0.0,0.0,0.0,0.0,0.0,0.0,0.0,0.0,0.0,0.0,0.0,0.0,0.0,0.0,0.0,0.0,0.0,0.0,0.0,0.0,0.0,0.0,0.0,0.0,0.0,0.0,0.0,0.0,0.0,0.0,0.0,0.0,0.0,0.0,0.0,0.0,0.0,0.0,0.0,0.0,0.0,0.0,0.0,0.0,0.0,0.0,0.0,0.0,0.0,0.0,0.0,0.0,0.0,0.0,0.0,0.0,0.0,0.0,0.0,0.0,0.0,0.0,0.0,0.0,0.0,0.0,0.0,0.0,0.0,0.0,0.0,0.0,0.0,0.0,0.0,0.0,0.0,0.0,0.0,0.0,0.0,0.0,0.0,0.0,0.0,0.0,0.0,0.0,0.0,0.0,0.0,0.0,0.0,0.0,0.0,0.0,0.0,0.0,0.0,0.0,0.0,0.0,0.0,0.0,0.0,0.0,0.0,0.0,0.0,0.0,0.0,0.0,0.0,0.0,0.0,0.0,0.0,0.0,0.0,0.0,0.0,0.0,0.0,0.0,0.0,0.0,0.0,0.0,0.0,0.0,0.0,0.0,0.0,0.0,0.0,0.0,0.0,0.0,0.0,0.0,0.0,0.0,0.0,0.0,0.0,0.0,0.0,0.0,0.0,0.0,0.0,0.0,0.0,0.0,0.0,0.0,0.0,0.0,0.0,0.0,0.0,0.0,0.0,0.0,0.0,0.0,0.0,0.0,0.0,0.0,0.0,0.0,0.0,0.0,0.0,0.0,0.0,0.0,0.0,0.0,0.0,0.0,0.0,0.0,0.0,0.0,0.0,0.0,0.0,0.0,0.0,0.0,0.0,0.0,0.0,0.0,0.0,0.0,0.0,0.0,0.0,0.0,0.0,0.0,0.0,0.0,0.0,0.0,0.0,0.0,0.0,0.0,0.0,0.0,0.0,0.0,0.0,0.0,0.0,0.0,0.0,0.0,0.0,0.0,0.0,0.0,0.0,0.0,0.0,0.0,0.0,0.0,0.0,0.0,0.0,0.0,0.0,0.0,0.0,0.0,0.0,0.0,0.0,0.0,0.0,0.0,0.0,0.0,0.0,0.0,0.0,0.0,0.0,0.0,0.0,0.0,0.0,0.0,0.0,0.0,0.0,0.0,0.0,0.0,0.0,0.0,0.0,0.0,0.0,0.0,0.0,0.0,0.0,0.0,0.0,0.0,0.0,0.0,0.0,0.0,0.0,0.0,0.0,0.0,0.0,0.0,0.0,0.0,0.0,0.0,0.0,0.0,0.0,0.0,0.0,0.0,0.0,0.0,0.0,0.0,0.0,0.0,0.0,0.0,0.0,0.0,0.0,0.0,0.0,0.0,0.0,0.0,0.0,0.0,0.0,0.0,0.0,0.0,0.0,0.0,0.0,0.0,0.0,0.0,0.0,0.0,0.0,0.0,0.0,0.0,0.0,0.0,0.0,0.0,0.0,0.0,-0.8836,0.0,0.0,0.0,0.0,0.0,0.0,0.0,0.0,0.0,0.0,0.0,0.0,0.0,0.0,0.0,0.0,0.0,0.0,0.0,0.0,0.0,0.0,0.0,0.0,0.0,0.0,0.0,0.0,0.0,0.0,0.0,0.0,0.0,0.0,0.0,0.0,0.0,0.0,0.0,0.0,0.0,0.0,0.0,0.0,0.0,0.0,0.0,0.0,0.0,0.0,0.0,0.0,0.0,0.0,0.0,0.0,0.0,0.0,0.0,0.0,0.0,0.0,0.0,0.0,0.0,0.0,0.0,0.0,0.0,0.0,0.0,0.0,0.0,0.0,0.0,0.0,0.0,0.0,0.0,0.0,0.0,0.0,0.0,0.0,0.0,0.0,0.0,0.0,0.0,0.0,0.0,0.0,0.0,0.0,0.0,0.0,0.0,0.0,0.0,0.0,0.0,0.0,0.0,0.0,0.0,0.0,0.0,0.0,0.0,0.0,-0.9091,-1.0248,-1.0324,-0.9666,-0.8356,0.0,0.0,0.0,0.0,0.0,0.0,0.0,0.0,0.0,0.0,0.0,0.0,0.0,0.0,0.0,0.0,0.0,0.0,0.0,0.0,0.0,0.0,0.0,0.0,0.0,0.0,0.0,0.0,0.0,0.0,0.0,0.0,0.0,0.0,0.0,0.0,0.0,0.0,0.0,0.0,0.0,0.0,0.0,0.0,0.0,0.0,0.0,0.0,0.0,0.0,0.0,0.0,0.0,0.0,0.0,0.0,0.0,0.0,0.0,0.0,0.0,0.0,0.0,0.0,0.0,0.0,0.0,0.0,0.0,0.0,0.0,0.0,0.0,0.0,0.0,0.0,0.0,0.0,0.0,0.0,0.0,0.0,0.0,0.0,0.0,0.0,0.0,0.0,0.0,0.0,0.0,0.0,0.0,0.0,0.0,0.0,0.0,0.0,0.0,0.0,0.0,0.0,0.0,0.0,0.0,0.0,0.0,0.0,0.0,0.0,0.0,0.0,-0.9324,-0.8522,-0.7245,0.0,0.0,0.0,0.0,0.0,0.0,0.0,0.0,0.0,0.0,0.0,0.0,0.0,0.0,0.0,0.0,0.0,0.0,0.0,0.0,0.0,0.0,0.0,0.0,0.0,0.0,0.0,0.0,0.0,0.0,0.0,0.0,0.0,0.0,0.0,0.0,0.0,0.0,0.0,0.0,0.0,0.0,0.0,0.0,0.0,0.0,0.0,0.0,0.0,0.0,0.0,0.0,0.0,0.0,0.0,0.0,0.0,0.0,0.0,0.0,0.0,0.0,0.0,0.0,0.0,0.0,0.0,0.0,0.0,0.0,0.0,0.0,0.0,0.0,0.0,0.0,0.0,0.0,0.0,0.0,0.0,0.0,0.0,0.0,0.0,0.0,0.0,0.0,0.0,0.0,0.0,0.0,0.0,0.0,0.0,0.0,0.0,0.0,0.0,0.0,0.0,0.0,0.0,0.0,0.0,0.0,0.0,0.0,0.0,0.0,-0.6025,-0.7249,-0.6324,0.0,-0.5562,0.0,0.0,0.0,0.0,0.0,0.0,0.0,0.0,0.0,0.0,0.0,0.0,0.0,0.0,0.0,0.0,0.0,0.0,0.0,0.0,0.0,0.0,0.0,0.0,0.0,0.0,0.0,0.0,0.0,0.0,0.0,0.0,0.0,0.0,0.0,0.0,0.0,0.0,0.0,0.0,0.0,0.0,0.0,0.0,0.0,0.0,0.0,0.0,0.0,0.0,0.0,0.0,0.0,0.0,0.0,0.0,0.0,0.0,0.0,0.0,0.0,0.0,0.0,0.0,0.0,0.0,0.0,0.0,0.0,0.0,0.0,0.0,0.0,0.0,0.0,0.0,0.0,0.0,0.0,0.0,0.0,0.0,0.0,0.0,0.0,0.0,0.0,0.0,0.0,0.0,0.0,0.0,0.0,0.0,0.0,0.0,0.0,0.0,0.0,0.0,0.0,0.0,0.0,0.0,0.0,0.0,0.0,0.0,0.0,0.0,-0.6942,-0.6021,-0.6881,-0.7387,0.0,0.0,0.0,0.0,0.0,0.0,0.0,0.0,0.0,0.0,0.0,0.0,0.0,0.0,0.0,0.0,0.0,0.0,0.0,0.0,0.0,0.0,0.0,0.0,0.0,0.0,0.0,0.0,0.0,0.0,0.0,0.0,0.0,0.0,0.0,0.0,0.0,0.0,0.0,0.0,0.0,0.0,0.0,0.0,0.0,0.0,0.0,0.0,0.0,0.0,0.0,0.0,0.0,0.0,0.0,0.0,0.0,0.0,0.0,0.0,0.0,0.0,0.0,0.0,0.0,0.0,0.0,0.0,0.0,0.0,0.0,0.0,0.0,0.0,0.0,0.0,0.0,0.0,0.0,0.0,0.0,0.0,0.0,0.0,0.0,0.0,0.0,0.0,0.0,0.0,0.0,0.0,0.0,0.0,0.0,0.0,0.0,0.0,0.0,0.0,0.0,0.0,0.0,0.0,0.0,0.0,0.0,0.0,0.0,0.0,-0.6722,0.0,-0.6426,-0.7895,-0.8387,-0.7509,0.0,0.0,0.0,0.0,0.0,0.0,0.0,0.0,0.0,0.0,0.0,0.0,0.0,0.0,0.0,0.0,0.0,0.0,0.0,0.0,0.0,0.0,0.0,0.0,0.0,0.0,0.0,0.0,0.0,0.0,0.0,0.0,0.0,0.0,0.0,0.0,0.0,0.0,0.0,0.0,0.0,0.0,0.0,0.0,0.0,0.0,0.0,0.0,0.0,0.0,0.0,0.0,0.0,0.0,0.0,0.0,0.0,0.0,0.0,0.0,0.0,0.0,0.0,0.0,0.0,0.0,0.0,0.0,0.0,0.0,0.0,0.0,0.0,0.0,0.0,0.0,0.0,0.0,0.0,0.0,0.0,0.0,0.0,0.0,0.0,0.0,0.0,0.0,0.0,0.0,0.0,0.0,0.0,0.0,0.0,0.0,0.0,0.0,0.0,0.0,0.0,0.0,0.0,0.0,0.0,0.0,0.0,0.0,0.0,-0.458,-0.6494,-0.8392,-0.8701,-0.7359,0.0,0.0,0.0,0.0,0.0,0.0,0.0,0.0,0.0,0.0,0.0,0.0,0.0,0.0,0.0,0.0,0.0,0.0,0.0,0.0,0.0,0.0,0.0,0.0,0.0,0.0,0.0,0.0,0.0,0.0,0.0,0.0,0.0,0.0,0.0,0.0,0.0,0.0,0.0,0.0,0.0,0.0,0.0,0.0,0.0,0.0,0.0,0.0,0.0,0.0,0.0,0.0,0.0,0.0,0.0,0.0,0.0,0.0,0.0,0.0,0.0,0.0,0.0,0.0,0.0,0.0,0.0,0.0,0.0,0.0,0.0,0.0,0.0,0.0,0.0,0.0,0.0,0.0,0.0,0.0,0.0,0.0,0.0,0.0,0.0,0.0,0.0,0.0,0.0,0.0,0.0,0.0,0.0,0.0,0.0,0.0,0.0,0.0,0.0,0.0,0.0,0.0,0.0,0.0,0.0,0.0,0.0,0.0,0.0,-0.2765,-0.4075,-0.4812,-0.491,-0.5966,-0.6713,0.0,0.0,0.0,0.0,0.0,0.0,0.0,0.0,0.0,0.0,0.0,0.0,0.0,0.0,0.0,0.0,0.0,0.0,0.0,0.0,0.0,0.0,0.0,0.0,0.0,0.0,0.0,0.0,0.0,0.0,0.0,0.0,0.0,0.0,0.0,0.0,0.0,0.0,0.0,0.0,0.0,0.0,0.0,0.0,0.0,0.0,0.0,0.0,0.0,0.0,0.0,0.0,0.0,0.0,0.0,0.0,0.0,0.0,0.0,0.0,0.0,0.0,0.0,0.0,0.0,0.0,0.0,0.0,0.0,0.0,0.0,0.0,0.0,0.0,0.0,0.0,0.0,0.0,0.0,0.0,0.0,0.0,0.0,0.0,0.0,0.0,0.0,0.0,0.0,0.0,0.0,0.0,0.0,0.0,0.0,0.0,0.0,0.0,0.0,0.0,0.0,0.0,0.0,0.0,0.0,0.0,0.0,0.0,0.0,-0.2722,0.0,-0.3547,0.0,-0.4244,-0.5607,0.0,0.0,0.0,0.0,0.0,0.0,0.0,0.0,0.0,0.0,0.0,0.0,0.0,0.0,0.0,0.0,0.0,0.0,0.0,0.0,0.0,0.0,0.0,0.0,0.0,0.0,0.0,0.0,0.0,0.0,0.0,0.0,0.0,0.0,0.0,0.0,0.0,0.0,0.0,0.0,0.0,0.0,0.0,0.0,0.0,0.0,0.0,0.0,0.0,0.0,0.0,0.0,0.0,0.0,0.0,0.0,0.0,0.0,0.0,0.0,0.0,0.0,0.0,0.0,0.0,0.0,0.0,0.0,0.0,0.0,0.0,0.0,0.0,0.0,0.0,0.0,0.0,0.0,0.0,0.0,0.0,0.0,0.0,0.0,0.0,0.0,0.0,0.0,0.0,0.0,0.0,0.0,0.0,0.0,0.0,0.0,0.0,0.0,0.0,0.0,0.0,0.0,0.0,0.0,0.0,0.0,0.0,0.0,-0.2713,-0.2734,-0.2766,-0.2865,-0.2752,-0.3887,-0.3959,0.0,0.0,0.0,0.0,0.0,0.0,0.0,0.0,0.0,0.0,0.0,0.0,0.0,0.0,0.0,0.0,0.0,0.0,0.0,0.0,0.0,0.0,0.0,0.0,0.0,0.0,0.0,0.0,0.0,0.0,0.0,0.0,0.0,0.0,0.0,0.0,0.0,0.0,0.0,0.0,0.0,0.0,0.0,0.0,0.0,0.0,0.0,0.0,0.0,0.0,0.0,0.0,0.0,0.0,0.0,0.0,0.0,0.0,0.0,0.0,0.0,0.0,0.0,0.0,0.0,0.0,0.0,0.0,0.0,0.0,0.0,0.0,0.0,0.0,0.0,0.0,0.0,0.0,0.0,0.0,0.0,0.0,0.0,0.0,0.0,0.0,0.0,0.0,0.0,0.0,0.0,0.0,0.0,0.0,0.0,0.0,0.0,0.0,0.0,0.0,0.0,0.0,0.0,0.0,0.0,0.0,0.0,0.0,0.0,-0.3899,-0.3924,-0.3958,-0.3907,-0.3476,-0.307,0.0,0.0,0.0,0.0,0.0,0.0,0.0,0.0,0.0,0.0,0.0,0.0,0.0,0.0,0.0,0.0,0.0,0.0,0.0,0.0,0.0,0.0,0.0,0.0,0.0,0.0,0.0,0.0,0.0,0.0,0.0,0.0,0.0,0.0,0.0,0.0,0.0,0.0,0.0,0.0,0.0,0.0,0.0,0.0,0.0,0.0,0.0,0.0,0.0,0.0,0.0,0.0,0.0,0.0,0.0,0.0,0.0,0.0,0.0,0.0,0.0,0.0,0.0,0.0,0.0,0.0,0.0,0.0,0.0,0.0,0.0,0.0,0.0,0.0,0.0,0.0,0.0,0.0,0.0,0.0,0.0,0.0,0.0,0.0,0.0,0.0,0.0,0.0,0.0,0.0,0.0,0.0,0.0,0.0,0.0,0.0,0.0,0.0,0.0,0.0,0.0,0.0,0.0,0.0,0.0,0.0,0.0,0.0,0.0,-0.4424,-0.4509,-0.4499,-0.4481,-0.355,-0.3017,-0.3045,0.0,0.0,0.0,0.0,0.0,0.0,0.0,0.0,0.0,0.0,0.0,0.0,0.0,0.0,0.0,0.0,0.0,0.0,0.0,0.0,0.0,0.0,0.0,0.0,0.0,0.0,0.0,0.0,0.0,0.0,0.0,0.0,0.0,0.0,0.0,0.0,0.0,0.0,0.0,0.0,0.0,0.0,0.0,0.0,0.0,0.0,0.0,0.0,0.0,0.0,0.0,0.0,0.0,0.0,0.0,0.0,0.0,0.0,0.0,0.0,0.0,0.0,0.0,0.0,0.0,0.0,0.0,0.0,0.0,0.0,0.0,0.0,0.0,0.0,0.0,0.0,0.0,0.0,0.0,0.0,0.0,0.0,0.0,0.0,0.0,0.0,0.0,0.0,0.0,0.0,0.0,0.0,0.0,0.0,0.0,0.0,0.0,0.0,0.0,0.0,0.0,0.0,0.0,0.0,0.0,0.0,0.0,0.0,-0.4478,-0.4522,-0.4516,-0.4491,-0.3962,-0.3641,0.0,0.0,0.0,0.0,0.0,0.0,0.0,0.0,0.0,0.0,0.0,0.0,0.0,0.0,0.0,0.0,0.0,0.0,0.0,0.0,0.0,0.0,0.0,0.0,0.0,0.0,0.0,0.0,0.0,0.0,0.0,0.0,0.0,0.0,0.0,0.0,0.0,0.0,0.0,0.0,0.0,0.0,0.0,0.0,0.0,0.0,0.0,0.0,0.0,0.0,0.0,0.0,0.0,0.0,0.0,0.0,0.0,0.0,0.0,0.0,0.0,0.0,0.0,0.0,0.0,0.0,0.0,0.0,0.0,0.0,0.0,0.0,0.0,0.0,0.0,0.0,0.0,0.0,0.0,0.0,0.0,0.0,0.0,0.0,0.0,0.0,0.0,0.0,0.0,0.0,0.0,0.0,0.0,0.0,0.0,0.0,0.0,0.0,0.0,0.0,0.0,0.0,0.0,0.0,0.0,0.0,0.0,0.0,0.0,-0.4511,-0.4915,-0.4958,-0.4521,-0.4365,-0.4046,0.0,0.0,0.0,0.0,0.0,0.0,0.0,0.0,0.0,0.0,0.0,0.0,0.0,0.0,0.0,0.0,0.0,0.0,0.0,0.0,0.0,0.0,0.0,0.0,0.0,0.0,0.0,0.0,0.0,0.0,0.0,0.0,0.0,0.0,0.0,0.0,0.0,0.0,0.0,0.0,0.0,0.0,0.0,0.0,0.0,0.0,0.0,0.0,0.0,0.0,0.0,0.0,0.0,0.0,0.0,0.0,0.0,0.0,0.0,0.0,0.0,0.0,0.0,0.0,0.0,0.0,0.0,0.0,0.0,0.0,0.0,0.0,0.0,0.0,0.0,0.0,0.0,0.0,0.0,0.0,0.0,0.0,0.0,0.0,0.0,0.0,0.0,0.0,0.0,0.0,0.0,0.0,0.0,0.0,0.0,0.0,0.0,0.0,0.0,0.0,0.0,0.0,0.0,0.0,0.0,0.0,0.0,0.0,-0.4627,-0.489,-0.5225,-0.525,-0.4901,-0.4629,-0.4341,0.0,0.0,0.0,0.0,0.0,0.0,0.0,0.0,0.0,0.0,0.0,0.0,0.0,0.0,0.0,0.0,0.0,0.0,0.0,0.0,0.0,0.0,0.0,0.0,0.0,0.0,0.0,0.0,0.0,0.0,0.0,0.0,0.0,0.0,0.0,0.0,0.0,0.0,0.0,0.0,0.0,0.0,0.0,0.0,0.0,0.0,0.0,0.0,0.0,0.0,0.0,0.0,0.0,0.0,0.0,0.0,0.0,0.0,0.0,0.0,0.0,0.0,0.0,0.0,0.0,0.0,0.0,0.0,0.0,0.0,0.0,0.0,0.0,0.0,0.0,0.0,0.0,0.0,0.0,0.0,0.0,0.0,0.0,0.0,0.0,0.0,0.0,0.0,0.0,0.0,0.0,0.0,0.0,0.0,0.0,0.0,0.0,0.0,0.0,0.0,0.0,0.0,0.0,0.0,0.0,0.0,0.0,0.0,-0.4573,-0.4803,-0.5244,-0.5206,-0.4868,-0.4287,-0.4026,0.0,0.0,0.0,0.0,0.0,0.0,0.0,0.0,0.0,0.0,0.0,0.0,0.0,0.0,0.0,0.0,0.0,0.0,0.0,0.0,0.0,0.0,0.0,0.0,0.0,0.0,0.0,0.0,0.0,0.0,0.0,0.0,0.0,0.0,0.0,0.0,0.0,0.0,0.0,0.0,0.0,0.0,0.0,0.0,0.0,0.0,0.0,0.0,0.0,0.0,0.0,0.0,0.0,0.0,0.0,0.0,0.0,0.0,0.0,0.0,0.0,0.0,0.0,0.0,0.0,0.0,0.0,0.0,0.0,0.0,0.0,0.0,0.0,0.0,0.0,0.0,0.0,0.0,0.0,0.0,0.0,0.0,0.0,0.0,0.0,0.0,0.0,0.0,0.0,0.0,0.0,0.0,0.0,0.0,0.0,0.0,0.0,0.0,0.0,0.0,0.0,0.0,0.0,0.0,0.0,0.0,0.0,0.0,-0.3409,-0.1287,-0.39,-0.4071,-0.1195,-0.1003,-0.0944,0.0,0.0,0.0,0.0,0.0,0.0,0.0,0.0,0.0,0.0,0.0,0.0,0.0,0.0,0.0,0.0,0.0,0.0,0.0,0.0,0.0,0.0,0.0,0.0,0.0,0.0,0.0,0.0,0.0,0.0,0.0,0.0,0.0,0.0,0.0,0.0,0.0,0.0,0.0,0.0,0.0,0.0,0.0,0.0,0.0,0.0,0.0,0.0,-0.7062,0.0,0.0,0.0,0.0,0.0,0.0,0.0,0.0,0.0,0.0,0.0,0.0,0.0,0.0,0.0,0.0,0.0,0.0,0.0,0.0,0.0,0.0,0.0,0.0,0.0,0.0,0.0,0.0,0.0,0.0,0.0,0.0,0.0,0.0,0.0,0.0,0.0,0.0,0.0,0.0,0.0,0.0,0.0,0.0,0.0,0.0,0.0,0.0,0.0,0.0,0.0,0.0,0.0,0.0,0.0,0.0,0.0,0.0,0.0,-0.1617,-0.0125,-0.1907,-0.195,-0.0,-0.0,-0.0,0.0,0.0,0.0,0.0,0.0,0.0,0.0,0.0,0.0,0.0,0.0,0.0,0.0,0.0,0.0,0.0,0.0,0.0,0.0,0.0,0.0,0.0,0.0,0.0,0.0,0.0,0.0,0.0,0.0,0.0,0.0,0.0,0.0,0.0,0.0,0.0,0.0,0.0,0.0,0.0,0.0,0.0,0.0,0.0,0.0,0.0,0.0,0.0,0.0,0.0,0.0,0.0,0.0,0.0,0.0,0.0,0.0,0.0,0.0,0.0,0.0,0.0,0.0,0.0,0.0,0.0,0.0,0.0,0.0,0.0,0.0,0.0,0.0,0.0,0.0,0.0,0.0,0.0,0.0,0.0,0.0,0.0,0.0,0.0,0.0,0.0,0.0,0.0,0.0,0.0,0.0,0.0,0.0,0.0,0.0,0.0,0.0,0.0,0.0,0.0,0.0,0.0,0.0,0.0,0.0,0.0,0.0,-0.1513,-0.0,-0.0,-0.0,-0.0,-0.0,-0.0,-0.0,-0.0,0.0,0.0,0.0,0.0,0.0,0.0,0.0,0.0,0.0,0.0,0.0,0.0,0.0,0.0,0.0,0.0,0.0,0.0,0.0,0.0,0.0,0.0,0.0,0.0,0.0,0.0,0.0,0.0,0.0,0.0,0.0,0.0,0.0,0.0,0.0,0.0,0.0,0.0,-0.3705,-0.3852,0.0,0.0,0.0,0.0,0.0,0.0,0.0,0.0,-0.6651,0.0,0.0,0.0,0.0,0.0,0.0,0.0,0.0,0.0,0.0,0.0,0.0,0.0,0.0,0.0,0.0,0.0,0.0,0.0,0.0,0.0,0.0,0.0,0.0,0.0,0.0,0.0,0.0,0.0,0.0,0.0,0.0,0.0,0.0,0.0,0.0,0.0,0.0,0.0,0.0,0.0,0.0,0.0,0.0,0.0,0.0,0.0,0.0,0.0,0.0,0.0,0.0,0.0,0.0,0.0,0.0,-0.4433,-0.1552,-0.0,-0.0,-0.0,-0.0,-0.0,-0.0,-0.0,-0.0,0.0,0.0,0.0,0.0,0.0,0.0,0.0,0.0,0.0,0.0,0.0,0.0,0.0,0.0,0.0,0.0,0.0,0.0,0.0,0.0,0.0,0.0,0.0,0.0,0.0,0.0,0.0,0.0,0.0,0.0,0.0,0.0,0.0,0.0,0.0,0.0,0.0,0.0,0.0,-0.4087,-0.4217,0.0,0.0,0.0,0.0,0.0,0.0,0.0,0.0,-0.5444,0.0,0.0,0.0,0.0,0.0,0.0,0.0,0.0,0.0,0.0,0.0,0.0,0.0,0.0,0.0,0.0,0.0,0.0,0.0,0.0,0.0,0.0,0.0,0.0,0.0,0.0,0.0,0.0,0.0,0.0,0.0,0.0,0.0,0.0,0.0,0.0,0.0,0.0,0.0,0.0,0.0,0.0,0.0,0.0,0.0,0.0,0.0,0.0,0.0,0.0,0.0,0.0,0.0,0.0,0.0,-0.2006,-0.0705,-0.0,-0.0,-0.0,-0.0,-0.0,-0.0,-0.0,0.0,0.0,0.0,0.0,0.0,0.0,0.0,0.0,0.0,0.0,0.0,0.0,0.0,0.0,0.0,0.0,0.0,0.0,0.0,0.0,0.0,0.0,0.0,0.0,0.0,0.0,0.0,0.0,0.0,0.0,0.0,0.0,0.0,0.0,0.0,0.0,0.0,0.0,0.0,0.0,-0.4216,-0.4385,-0.4508,0.0,0.0,0.0,0.0,0.0,0.0,-0.4832,-0.4867,0.0,0.0,0.0,0.0,0.0,0.0,0.0,0.0,0.0,0.0,0.0,0.0,0.0,0.0,0.0,0.0,0.0,0.0,0.0,0.0,0.0,0.0,0.0,0.0,0.0,0.0,0.0,0.0,0.0,0.0,0.0,0.0,0.0,0.0,0.0,0.0,0.0,0.0,0.0,0.0,0.0,0.0,0.0,0.0,0.0,0.0,0.0,0.0,0.0,0.0,0.0,0.0,0.0,0.0,0.0,-0.0,-0.0,-0.0,-0.0,-0.0,-0.0,-0.0,-0.0,-0.0,0.0,0.0,0.0,0.0,0.0,0.0,0.0,0.0,0.0,0.0,0.0,0.0,0.0,0.0,0.0,0.0,0.0,0.0,0.0,0.0,0.0,0.0,0.0,0.0,0.0,0.0,0.0,0.0,0.0,0.0,0.0,0.0,0.0,0.0,0.0,0.0,0.0,0.0,0.0,0.0,0.0,-0.4545,-0.457,-0.4613,0.0,0.0,0.0,0.0,-0.4609,-0.4755,0.0,0.0,0.0,0.0,0.0,0.0,0.0,0.0,0.0,0.0,0.0,0.0,0.0,0.0,0.0,0.0,0.0,0.0,0.0,0.0,0.0,0.0,0.0,0.0,0.0,0.0,0.0,0.0,0.0,0.0,0.0,0.0,0.0,0.0,0.0,0.0,0.0,0.0,0.0,0.0,0.0,0.0,0.0,0.0,0.0,0.0,0.0,0.0,0.0,0.0,0.0,0.0,0.0,0.0,0.0,0.0,-0.0,-0.0,-0.0,-0.0,-0.0,-0.0,-0.0,-0.0,-0.0,0.0,0.0,0.0,0.0,0.0,0.0,0.0,0.0,0.0,0.0,0.0,0.0,0.0,0.0,0.0,0.0,0.0,0.0,0.0,0.0,0.0,0.0,0.0,0.0,0.0,0.0,0.0,0.0,0.0,0.0,0.0,0.0,0.0,0.0,0.0,0.0,0.0,0.0,0.0,0.0,0.0,-0.4816,-0.4684,-0.468,-0.4731,0.0,0.0,-0.4613,-0.4974,-0.4766,0.0,0.0,0.0,0.0,0.0,0.0,0.0,0.0,0.0,0.0,0.0,0.0,0.0,0.0,0.0,0.0,0.0,0.0,0.0,0.0,0.0,0.0,0.0,0.0,0.0,0.0,0.0,0.0,0.0,0.0,0.0,0.0,0.0,0.0,0.0,0.0,0.0,0.0,0.0,0.0,0.0,0.0,0.0,0.0,0.0,0.0,0.0,0.0,0.0,0.0,0.0,0.0,0.0,0.0,0.0,-0.0,-0.0,-0.0,-0.0,-0.0,-0.0,-0.0,-0.0,-0.0,-0.0,0.0,0.0,0.0,0.0,0.0,0.0,0.0,0.0,0.0,0.0,0.0,0.0,0.0,0.0,0.0,0.0,0.0,0.0,0.0,0.0,0.0,0.0,0.0,0.0,0.0,0.0,0.0,0.0,0.0,0.0,0.0,0.0,0.0,0.0,0.0,0.0,0.0,0.0,0.0,0.0,0.0,0.0,-0.484,-0.4962,0.0,0.0,0.0,-0.4861,-0.525,0.0,0.0,0.0,0.0,0.0,0.0,0.0,0.0,0.0,0.0,0.0,0.0,0.0,0.0,0.0,0.0,0.0,0.0,0.0,0.0,0.0,0.0,0.0,0.0,0.0,0.0,0.0,0.0,0.0,0.0,0.0,0.0,0.0,0.0,0.0,0.0,0.0,0.0,0.0,0.0,0.0,0.0,0.0,0.0,0.0,0.0,0.0,0.0,0.0,0.0,0.0,0.0,0.0,0.0,0.0,0.0,0.0,-0.0,-0.0,-0.0,-0.0,-0.0,-0.0,-0.0,-0.0,0.0,0.0,0.0,0.0,0.0,0.0,0.0,0.0,0.0,0.0,0.0,0.0,0.0,0.0,0.0,0.0,0.0,0.0,0.0,0.0,0.0,0.0,0.0,0.0,0.0,0.0,0.0,-0.2032,0.0,0.0,0.0,0.0,0.0,0.0,0.0,0.0,0.0,0.0,0.0,0.0,0.0,0.0,-0.5148,-0.5043,-0.5254,-0.5389,0.0,0.0,-0.5122,-0.5471,-0.5535,-0.5518,0.0,0.0,0.0,0.0,0.0,0.0,0.0,0.0,0.0,0.0,0.0,0.0,0.0,0.0,0.0,0.0,0.0,0.0,0.0,0.0,0.0,0.0,0.0,0.0,0.0,0.0,0.0,0.0,0.0,0.0,0.0,0.0,0.0,0.0,0.0,0.0,0.0,0.0,0.0,0.0,0.0,0.0,0.0,0.0,0.0,0.0,0.0,0.0,0.0,0.0,0.0,0.0,0.0,0.0,0.0,-0.0,-0.0,-0.0,-0.0,-0.0,-0.0,-0.0,-0.0,-0.0,0.0,0.0,0.0,0.0,0.0,0.0,0.0,0.0,0.0,0.0,0.0,0.0,0.0,0.0,0.0,0.0,0.0,0.0,0.0,0.0,0.0,0.0,0.0,0.0,0.0,0.0,0.0,0.0,0.0,0.0,0.0,0.0,0.0,0.0,0.0,0.0,0.0,0.0,0.0,0.0,0.0,-0.5408,-0.5397,-0.5471,-0.5616,0.0,0.0,-0.548,-0.5698,-0.601,-0.6036,-0.5448,0.0,0.0,0.0,0.0,0.0,0.0,0.0,0.0,0.0,0.0,0.0,0.0,0.0,0.0,0.0,0.0,0.0,0.0,0.0,0.0,0.0,0.0,0.0,0.0,0.0,0.0,0.0,0.0,0.0,0.0,0.0,0.0,0.0,0.0,0.0,0.0,0.0,0.0,0.0,0.0,0.0,0.0,0.0,0.0,0.0,0.0,0.0,0.0,0.0,0.0,0.0,0.0,0.0,-0.0,-0.0,-0.0,-0.0,-0.0,-0.0,-0.0,-0.0,-0.0,-0.0,0.0,0.0,0.0,0.0,0.0,0.0,0.0,0.0,0.0,0.0,0.0,0.0,0.0,0.0,0.0,0.0,0.0,0.0,0.0,0.0,0.0,0.0,0.0,0.0,0.0,0.0,0.0,0.0,-0.2832,-0.2988,-0.3045,0.0,0.0,0.0,0.0,0.0,0.0,0.0,0.0,0.0,0.0,-0.5535,-0.562,-0.5769,0.0,0.0,-0.5657,-0.5572,-0.6029,-0.6208,-0.6222,-0.601,-0.3584,0.0,0.0,0.0,0.0,0.0,0.0,0.0,0.0,0.0,0.0,0.0,0.0,0.0,0.0,0.0,0.0,0.0,0.0,0.0,0.0,0.0,0.0,0.0,0.0,0.0,0.0,0.0,0.0,0.0,0.0,0.0,0.0,0.0,0.0,0.0,0.0,0.0,0.0,0.0,0.0,0.0,0.0,0.0,0.0,0.0,0.0,0.0,0.0,0.0,0.0,0.0,0.0,-0.0,-0.0,-0.0,-0.0,-0.0,-0.0,-0.0,-0.0,-0.0,-0.0,0.0,0.0,0.0,0.0,0.0,0.0,0.0,0.0,0.0,0.0,0.0,0.0,0.0,0.0,0.0,0.0,0.0,0.0,0.0,0.0,0.0,0.0,0.0,0.0,0.0,0.0,0.0,0.0,-0.3063,-0.3198,-0.3353,0.0,0.0,0.0,0.0,0.0,0.0,0.0,0.0,0.0,0.0,-0.5711,-0.5857,-0.6013,-0.5904,-0.5243,-0.5461,-0.5596,-0.539,-0.4846,-0.486,-0.6122,0.0,0.0,0.0,0.0,0.0,0.0,0.0,0.0,0.0,0.0,0.0,0.0,0.0,0.0,0.0,0.0,0.0,0.0,0.0,0.0,0.0,0.0,0.0,0.0,0.0,0.0,0.0,-0.0,0.0,0.0,-0.0,0.0,0.0,0.0,0.0,0.0,0.0,0.0,0.0,0.0,0.0,0.0,0.0,0.0,0.0,0.0,0.0,0.0,0.0,0.0,0.0,0.0,0.0,-0.0,-0.0,-0.0,-0.0,-0.0,-0.0,-0.0,-0.0,-0.0,-0.0,-0.0,0.0,0.0,0.0,0.0,0.0,0.0,0.0,0.0,0.0,0.0,0.0,0.0,0.0,0.0,0.0,0.0,0.0,0.0,0.0,0.0,0.0,0.0,0.0,0.0,0.0,0.0,-0.3107,-0.3124,-0.3249,0.0,0.0,0.0,0.0,0.0,0.0,0.0,0.0,0.0,0.0,-0.556,-0.5735,-0.5949,-0.6186,-0.5617,-0.3544,-0.4936,-0.5466,-0.3467,-0.1532,-0.1498,0.0,0.0,0.0,0.0,0.0,0.0,0.0,0.0,0.0,0.0,0.0,0.0,0.0,0.0,0.0,0.0,0.0,0.0,0.0,0.0,0.0,0.0,0.0,0.0,0.0,0.0,0.0,0.0912,0.228,0.0,0.0,0.0,0.0,0.0,0.0,0.0,0.0,0.0,0.0,0.0,0.4518,0.493,0.0,0.0,0.0,0.0,0.0,0.0,0.0,0.0,0.0,0.0,0.0,0.0,-0.0,-0.0,-0.0,-0.0,-0.0,-0.0,-0.0,-0.0,-0.0,-0.0,-0.0,0.0,0.0,0.0,0.0,0.0,0.0,0.0,0.0,0.0,0.0,0.0,0.0,0.0,0.0,0.0,0.0,0.0,0.0,0.0,0.0,0.0,0.0,0.0,0.0,0.0,-0.3151,0.0,0.0,0.0,0.0,0.0,0.0,0.0,0.0,0.0,0.0,0.0,-0.5081,-0.5354,-0.5643,-0.5315,-0.4249,-0.5362,-0.6025,0.0,0.0,0.0,0.0,0.0,0.0,0.0,0.0,0.0,0.0,0.0,0.0,0.0,0.0,-0.0,-0.0,-0.0,-0.0,-0.0,0.0,0.0,0.0,0.0,0.0,0.0,0.0,0.0,0.0,0.0,0.0,0.0,0.0,0.0,0.1611,0.0,0.3361,0.0,0.0,0.0,0.0,0.0,0.0,0.0,0.0,0.488,0.4921,0.5044,0.4035,0.3843,0.0,0.2484,0.1021,0.0,0.0,0.0,0.0,0.0,0.0,0.0,0.0,-0.0,-0.0,-0.0,-0.0,-0.0,-0.0,-0.0,-0.0,-0.0,-0.0,-0.0,-0.0,-0.0,0.0,0.0,0.0,0.0,0.0,0.0,0.0,0.0,0.0,0.0,0.0,0.0,0.0,0.0,0.0,0.0,0.0,0.0,0.0,0.0,0.0,0.0,0.0,-0.3361,0.0,0.0,0.0,0.0,0.0,0.0,0.0,0.0,0.0,-0.4449,-0.4257,-0.4212,-0.444,-0.5351,-0.558,-0.4419,0.0,0.0,0.0,0.0,0.0,0.0,0.0,-0.0,-0.0,-0.0,-0.0,-0.0,-0.0,-0.0,-0.0,0.0,0.0,-0.0,-0.0,-0.0,-0.0,-0.0,-0.0,-0.0,-0.0,-0.0,0.0,0.0,0.0,0.0,0.0,0.0,0.0,0.0,-0.0,0.1891,0.0,0.392,0.0,0.0,0.0,0.0,0.0,0.3025,0.0,0.0,0.4919,0.5549,0.5693,0.1911,0.1571,0.4222,0.4369,0.2898,-0.0,-0.0,0.0,0.0,0.0,0.0,0.0,0.0,-0.0,-0.0,-0.0,-0.0,-0.0,-0.0,-0.0,-0.0,-0.0,-0.0,-0.0,-0.0,-0.0,-0.0,-0.0,0.0,0.0,0.0,0.0,0.0,0.0,0.0,0.0,0.0,0.0,0.0,0.0,0.0,0.0,0.0,0.0,0.0,0.0,0.0,0.0,-0.3409,0.0,0.0,0.0,0.0,0.0,0.0,0.0,0.0,0.0,0.0,-0.4839,-0.3469,-0.2384,-0.2575,0.0,0.0,0.0,0.0,-0.0,-0.0,-0.0,-0.0,-0.0,-0.0,-0.0,-0.0,0.0,0.0,-0.0,-0.0,-0.0,-0.0,-0.0,-0.0,-0.0,-0.0,-0.0,-0.0,-0.0,-0.0,-0.0,-0.0,-0.0,-0.0,0.0,0.0,0.0,0.0,-0.0,-0.0,-0.0,-0.0,0.0579,0.1576,0.2093,0.0,0.0,0.0,0.0,0.0,0.0,0.3969,0.495,0.2652,0.1654,0.1772,0.0598,0.0448,0.1333,0.3495,0.2957,-0.0,-0.0,-0.0,-0.0,0.0,0.0,0.0,0.0,-0.0,-0.0,-0.0,-0.0,-0.0,-0.0,-0.0,-0.0,-0.0,-0.0,-0.0,-0.0,-0.0,-0.0,-0.0,0.0,0.0,0.0,0.0,0.0,0.0,0.0,0.0,0.0,0.0,0.0,0.0,0.0,0.0,0.0,0.0,0.0,0.0,0.0,-0.3415,-0.3533,-0.3633,0.0,0.0,0.0,0.0,0.0,0.0,0.0,0.0,0.0,-0.433,-0.4577,-0.3547,0.0,0.0,-0.1787,-0.1844,-0.0794,-0.0,-0.0,-0.0,0.0,-0.0,-0.0,-0.0,-0.0,-0.0,-0.0,-0.0,-0.0,-0.0,-0.0,-0.0,-0.0,-0.0,-0.0,-0.0,-0.0,-0.0,-0.0,-0.0,-0.0,-0.0,-0.0,-0.0,-0.0,-0.0,-0.0,-0.0,-0.0,-0.0,-0.0,-0.0,-0.0,0.0752,0.1046,0.1126,0.1456,0.0,0.0,0.0,0.2547,0.32,0.098,-0.0,-0.0,-0.0,-0.0,-0.0,0.1872,0.1751,-0.0,-0.0,-0.0,-0.0,0.0,0.0,-0.0,-0.0,-0.0,-0.0,-0.0,-0.0,-0.0,-0.0,-0.0,-0.0,-0.0,-0.0,-0.0,-0.0,-0.0,-0.0,-0.0,-0.0,0.0,0.0,0.0,0.0,0.0,0.0,0.0,0.0,0.0,0.0,0.0,-0.2672,0.0,0.0,0.0,0.0,-0.3203,-0.3659,-0.3938,-0.3865,0.0,0.0,0.0,0.0,0.0,0.0,0.0,-0.1823,-0.0702,-0.0657,-0.2452,-0.3013,-0.2438,-0.0,-0.0,-0.0,-0.0,0.0,-0.0,-0.0,-0.0,-0.0,-0.0,-0.0,-0.0,-0.0,-0.0,-0.0,-0.0,-0.0,-0.0,-0.0,-0.0,-0.0,-0.0,-0.0,-0.0,-0.0,-0.0,-0.0,-0.0,-0.0,-0.0488,-0.0,-0.0,-0.0,-0.0,-0.0,-0.0,-0.0,-0.0,-0.0,-0.0,-0.0,-0.0,-0.0,-0.0,-0.0,0.0,-0.0,-0.0,-0.0,-0.0,-0.0,-0.0,-0.0,-0.0,-0.0,-0.0,-0.0,-0.0,-0.0,-0.0,-0.0,-0.0,-0.0,-0.0,-0.0,-0.0,-0.0,-0.0,-0.0,-0.0,-0.0,-0.0,-0.0,-0.0,-0.0,-0.0,-0.0,-0.0,-0.0,-0.0,-0.0,-0.0,-0.0,0.0,0.0,0.0,0.0,0.0,0.0,0.0,0.0,0.0,0.0,0.0,0.0,0.0,0.0,0.0,-0.3656,0.0,-0.4457,-0.4343,0.0,0.0,0.0,-0.29,-0.1767,-0.0655,-0.1075,-0.3805,0.0,0.0,-0.0542,-0.0653,-0.0569,-0.0372,-0.0094,-0.0,-0.0,-0.0,-0.0,-0.0,-0.0,-0.0,-0.0,-0.0,-0.0,-0.0,-0.0,-0.0,-0.0,-0.0,-0.0,-0.0,-0.0,-0.0,-0.0,-0.0,-0.0,-0.0,-0.0,-0.0,-0.0,-0.0,-0.2414,-0.0,-0.0,-0.0,-0.0,-0.0,-0.0,-0.0,-0.0,-0.0,-0.0,-0.0,-0.0,-0.0,-0.0,-0.0,-0.0,-0.0,-0.0,-0.0,-0.0,-0.0,-0.0,-0.0,-0.0,-0.0,-0.0,-0.0,-0.0,-0.0,-0.0,-0.0,-0.0,-0.0,-0.0,-0.0,-0.0,-0.0,-0.0,-0.0,-0.0,-0.0,-0.0,-0.0,-0.0,-0.0,-0.0,-0.0,-0.0,-0.0,-0.0,-0.0,-0.0,-0.0,-0.0,0.0,0.0,0.0,0.0,0.0,0.0,0.0,0.0,0.0,-0.3436,-0.2985,0.0,-0.3801,0.0,-0.4075,-0.4606,-0.4532,-0.4623,0.0,0.0,-0.2359,-0.0713,-0.0464,-0.0156,-0.0241,-0.0951,-0.0444,-0.1545,-0.5551,-0.6075,-0.5356,-0.3284,-0.1341,-0.0,-0.0,-0.0,-0.0,-0.0,-0.0,-0.0,-0.0,-0.0,-0.0,-0.0,-0.0,-0.0,-0.0,-0.0,-0.0,-0.0,-0.0,-0.0,-0.0,-0.0,-0.0,-0.0,-0.0,-0.0,-0.0,-0.3122,-0.6483,-0.0,-0.0,-0.0,-0.0,-0.0,-0.0,-0.0,-0.0,-0.0,-0.0,-0.0,-0.0,-0.0,-0.0,-0.0,-0.0,-0.0,-0.0,-0.0,-0.0,-0.0,-0.0,-0.0,-0.0,-0.0,-0.0,-0.0,-0.0,-0.0,-0.0,-0.0,-0.0,-0.0,-0.0,-0.0,-0.0,-0.0,-0.0,-0.0,-0.0,-0.0,-0.0,-0.0,-0.0,-0.0,-0.0,-0.0,-0.0,-0.0,-0.0,-0.0,-0.0,-0.0,-0.0,-0.0,0.0,0.0,0.0,0.0,0.0,0.0,0.0,0.0,0.0,0.0,0.0,-0.4477,-0.4394,-0.4716,-0.4942,-0.5052,-0.5095,-0.5173,-0.5274,-0.2156,-0.0,-0.0,-0.0,-0.0,-0.0,-0.2139,-0.4723,-0.7654,-0.7997,-0.7477,-0.5955,-0.4522,-0.2646,-0.0,-0.0,-0.0,-0.0,-0.0,-0.101,-0.303,-0.3536,-0.313,-0.2015,-0.1812,-0.1409,-0.0302,-0.1007,-0.141,-0.0303,-0.1008,-0.1309,-0.0,-0.0,-0.0,-0.0,-0.0,-0.0,-0.0,-0.4244,-0.8022,-0.0,-0.0,-0.0,-0.0,-0.0,-0.0,-0.0,-0.0,-0.0,-0.0,-0.0,-0.0,-0.0,-0.0,-0.0,-0.0,-0.0,-0.0,-0.0,-0.0,-0.0,-0.0,-0.0,-0.0,-0.0,-0.0,-0.0,-0.0,-0.0,-0.0,-0.0,-0.0,-0.0,-0.0,-0.0,-0.0,-0.0,-0.0,-0.0,-0.0,-0.0,-0.0,-0.0,-0.0,-0.0,-0.0,-0.0,-0.0,-0.0,-0.0,-0.0,-0.0,-0.0,-0.0,-0.0,0.0,-0.0,0.0,0.0,0.0,0.0,0.0,0.0,0.0,0.0,-0.4407,-0.5001,-0.5799,-0.542,-0.5288,-0.5626,-0.5473,-0.5411,-0.5393,-0.2789,-0.0946,-0.0,-0.0721,-0.0366,-0.0,-0.4663,-0.7997,-0.801,-0.8018,-0.7989,-0.7869,-0.7656,-0.6024,-0.221,-0.0,-0.0,-0.0504,-0.0504,-0.2117,-0.5256,-0.7098,-0.6992,-0.4935,-0.4529,-0.3721,-0.1711,-0.3017,-0.3823,-0.1916,-0.2717,-0.3214,-0.1307,-0.0,-0.0,-0.0,-0.0,-0.0,-0.0,-0.323,-0.6989,-0.0,-0.0,-0.0,-0.0,-0.0,-0.0,-0.0,-0.0,-0.0,-0.0,-0.0,-0.0,-0.0,-0.0,-0.0,-0.0,-0.0,-0.0,-0.0,-0.0,-0.0,-0.0,-0.0,-0.0,-0.0,-0.0,-0.0,-0.0,-0.0,-0.0,-0.0,-0.0,-0.0,-0.0,-0.0,0.0,0.0,0.0,-0.0,-0.0,-0.0,-0.0,-0.0,-0.0,-0.0,0.0,-0.0,-0.0,-0.0,-0.0,-0.0,0.0,0.0,0.0,0.0,0.0,0.0,0.0,0.0,0.0,0.0,0.0,-0.4879,-0.464,-0.4585,-0.5099,-0.5624,-0.6106,-0.5813,-0.5538,-0.545,-0.5422,-0.4292,-0.1633,-0.3894,-0.5914,-0.6347,-0.4599,-0.2419,-0.0386,-0.4689,-0.8024,-0.8021,-0.7962,-0.7969,-0.7955,-0.7949,-0.7646,-0.6545,-0.4522,-0.3314,-0.3215,-0.3217,-0.2714,-0.1711,-0.5253,-0.7308,-0.7318,-0.722,-0.6908,-0.6393,-0.6486,-0.719,-0.6279,-0.5142,-0.4722,-0.5947,-0.6456,-0.4931,-0.0902,-0.0,-0.0,-0.0,-0.0,-0.2718,-0.0,-0.0,-0.0,-0.0,0.0,-0.0,-0.0,-0.0,-0.0,-0.0,-0.0,-0.0,-0.0,-0.0,-0.0,-0.0,-0.0,-0.0,-0.0,-0.0,-0.0,-0.0,-0.0,-0.0,-0.0,-0.0,-0.0,-0.0,-0.0,-0.0,-0.0,-0.0,-0.0,-0.0,-0.0,-0.0,-0.0,-0.0,-0.0,-0.0,-0.0,-0.0,-0.0,-0.0,-0.0,0.0,0.0,0.0,0.0,0.0,0.0,0.0,0.0,0.0,0.0,-0.0,-0.0,-0.0844,-0.2742,-0.4429,-0.5423,-0.5557,-0.5529,-0.5312,-0.5028,-0.5421,-0.5828,-0.63,-0.6119,-0.5932,-0.5805,-0.4044,-0.1962,-0.044,-0.4469,-0.7695,-0.7819,-0.6841,-0.5482,-0.4428,-0.6358,-0.8001,-0.7952,-0.7955,-0.7952,-0.8041,-0.8038,-0.8041,-0.7952,-0.6842,-0.6037,-0.5942,-0.5949,-0.5548,-0.4227,-0.3321,-0.4742,-0.556,-0.6067,-0.6586,-0.7831,-0.7293,-0.6974,-0.7604,-0.6862,-0.6534,-0.7575,-0.7985,-0.7163,-0.4724,-0.3925,-0.2821,-0.0,-0.0,-0.0,-0.0,-0.0,-0.0,-0.0,-0.0,-0.0,-0.0,-0.0,0.0,0.0,0.0,-0.0,-0.0,-0.0,-0.0,-0.0,-0.0,-0.0,-0.0,-0.0,-0.0,-0.0,-0.0,-0.0,-0.0,-0.0,-0.0,-0.0,-0.0,-0.0,-0.0,-0.0,-0.0,-0.0,-0.0,-0.0,-0.0,-0.0,-0.0,-0.0,-0.0,-0.0,-0.0,-0.0,-0.0,-0.0,-0.0,-0.0,-0.1664,-0.5088,-0.2561,-0.0625,-0.0,-0.0,-0.0314,-0.1066,-0.1006,-0.2356,-0.5506,-0.5864,-0.5863,-0.5867,-0.5932,-0.5757,-0.5009,-0.5179,-0.5323,-0.5203,-0.59,-0.6087,-0.5249,-0.2099,-0.0441,-0.1352,-0.4961,-0.7423,-0.7886,-0.8,-0.7805,-0.8038,-0.7856,-0.7962,-0.8041,-0.8038,-0.8038,-0.8038,-0.8038,-0.8038,-0.8041,-0.7849,-0.7762,-0.7772,-0.7578,-0.7691,-0.6762,-0.4628,-0.231,-0.4017,-0.3717,-0.4123,-0.5653,-0.5438,-0.5436,-0.7708,-0.7982,-0.7965,-0.7979,-0.7982,-0.7979,-0.7985,-0.8006,-0.638,-0.0,-0.0,-0.0,-0.0,-0.0,-0.0,-0.0,-0.0,-0.0,-0.0,-0.0,-0.0,-0.0,-0.0,-0.0,-0.0,-0.0,-0.0,-0.0,-0.0,-0.0,-0.0,-0.0,-0.0,-0.0,-0.0,-0.0,-0.0,-0.0,-0.0,-0.0,-0.0,-0.0,-0.0,-0.0,-0.0,-0.0,-0.0,-0.0,-0.0,-0.0,-0.0,-0.0,-0.0,-0.0,-0.0,-0.0,-0.0,-0.0,-0.0,-0.0,-0.1643,-0.5179,-0.4938,-0.3257,-0.0,-0.0,-0.1598,-0.502,-0.4919,-0.4915,-0.5408,-0.5948,-0.6162,-0.6033,-0.6149,-0.5363,-0.3306,-0.3321,-0.2783,-0.1275,-0.4477,-0.4981,-0.1514,-0.0446,-0.1707,-0.571,-0.5361,-0.5435,-0.7687,-0.7925,-0.7889,-0.8028,-0.8041,-0.8045,-0.8041,-0.8038,-0.8038,-0.8038,-0.8038,-0.8038,-0.8041,-0.8045,-0.7945,-0.7945,-0.7949,-0.7036,-0.5727,-0.6237,-0.5734,-0.4218,-0.241,-0.1508,-0.161,-0.191,-0.3119,-0.6995,-0.7588,-0.7879,-0.7979,-0.7982,-0.7775,-0.7672,-0.7284,-0.5761,-0.0,-0.0,-0.0,-0.0,-0.0,-0.0,-0.0,-0.0,-0.0,-0.0,-0.0,-0.0,-0.0,-0.0,-0.0,-0.0,-0.0,-0.0,-0.0,-0.0,-0.0,-0.0,-0.0,-0.0,-0.0,-0.0,-0.0,-0.0,-0.0,-0.0,-0.0,-0.0,-0.0,-0.0,-0.0,-0.0,-0.0,-0.0,-0.0,-0.0,-0.0,-0.0,-0.0,-0.0,-0.0,-0.0,-0.0,-0.2147,-0.2315,-0.007,-0.1891,-0.3702,-0.5352,-0.3494,-0.2597,-0.2887,-0.1054,-0.1898,-0.5951,-0.6001,-0.5847,-0.5916,-0.6138,-0.6252,-0.6166,-0.6254,-0.5894,-0.4718,-0.2628,-0.2095,-0.3637,-0.5813,-0.6142,-0.3942,-0.1522,-0.0993,-0.3416,-0.4946,-0.6664,-0.7724,-0.7916,-0.7963,-0.8024,-0.8038,-0.8038,-0.8038,-0.8038,-0.8038,-0.8038,-0.8038,-0.8038,-0.8038,-0.8038,-0.7945,-0.7955,-0.7962,-0.7559,-0.6442,-0.7059,-0.7369,-0.6247,-0.5133,-0.3116,-0.1207,-0.191,-0.3825,-0.383,-0.5133,-0.6853,-0.7672,-0.7969,-0.6942,-0.4014,-0.3613,-0.231,-0.0,-0.0,-0.0,-0.0,-0.0,-0.0,-0.0,-0.0,-0.0,-0.0,-0.0,-0.0,-0.0,-0.0,-0.0,-0.0,-0.0,-0.0,-0.0,-0.0,-0.0,-0.0,-0.0,-0.0,-0.0,-0.0,-0.0,-0.0,-0.0,-0.0,-0.0,-0.0,-0.0,-0.0,-0.0,-0.0,-0.0,-0.0,-0.0,-0.0,-0.0,-0.0,-0.0,-0.0,-0.0,-0.0,-0.0,-0.3135,-0.3781,-0.1695,-0.3233,-0.4181,-0.4089,-0.1526,-0.1312,-0.3827,-0.2495,-0.2871,-0.5879,-0.6316,-0.6275,-0.6321,-0.6283,-0.6132,-0.5608,-0.6058,-0.6299,-0.602,-0.2459,-0.1969,-0.6234,-0.7058,-0.7029,-0.6563,-0.3957,-0.1724,-0.2037,-0.54,-0.7756,-0.8,-0.7991,-0.8038,-0.8038,-0.8038,-0.8038,-0.8038,-0.8038,-0.8038,-0.8038,-0.8038,-0.8038,-0.8038,-0.8045,-0.7959,-0.7865,-0.7563,-0.7356,-0.7772,-0.7979,-0.7975,-0.7979,-0.7879,-0.5944,-0.3521,-0.4832,-0.4531,-0.1509,-0.2312,-0.5031,-0.7269,-0.7979,-0.6537,-0.361,-0.1905,-0.0,-0.0,-0.0,-0.0,-0.0,-0.0,-0.0,-0.0,-0.0,-0.0,-0.0,-0.0,-0.0,-0.0,-0.0,-0.0,-0.0,-0.0,-0.0,-0.0,-0.0,-0.0,-0.0,-0.0,-0.0,-0.0,-0.0,-0.0,-0.0,-0.0,-0.0,-0.0,-0.0,-0.0,-0.0,-0.0,-0.0,-0.0,-0.0,-0.0,-0.0,-0.0,-0.0,-0.0,-0.0,-0.0,-0.0,-0.0,-0.0,-0.2245,-0.4933,-0.2336,-0.0521,-0.051,-0.0,-0.0147,-0.09,-0.3776,-0.5891,-0.6227,-0.6307,-0.6318,-0.6318,-0.6264,-0.5529,-0.3776,-0.5122,-0.6086,-0.5883,-0.2428,-0.2013,-0.5716,-0.6923,-0.7108,-0.7111,-0.6656,-0.6302,-0.6324,-0.7334,-0.7983,-0.7994,-0.8031,-0.8038,-0.8038,-0.8041,-0.8038,-0.8041,-0.8045,-0.8041,-0.8041,-0.8041,-0.8041,-0.8041,-0.7962,-0.7972,-0.7559,-0.6121,-0.5807,-0.7335,-0.8045,-0.7949,-0.7949,-0.7962,-0.7359,-0.625,-0.3419,-0.0402,-0.0907,-0.0,-0.0,-0.6364,-0.8002,-0.7798,-0.6247,-0.3417,-0.0,-0.0,-0.0,-0.0,-0.0,-0.0,-0.0,-0.0,-0.0,-0.0,-0.0,-0.0,-0.0,-0.0,-0.0,-0.0,-0.0,-0.0,-0.0,-0.0,-0.0,-0.0,-0.0,-0.0,-0.0,-0.0,-0.0,-0.0,-0.0,-0.0,-0.0,-0.0,-0.0,-0.0,-0.0,-0.0,-0.0,-0.0,-0.3683,-0.1422,-0.0,-0.0,-0.2748,-0.4197,-0.3875,-0.144,-0.0,-0.0,-0.0,-0.0703,-0.2481,-0.3174,-0.2617,-0.0,-0.0,-0.1147,-0.3637,-0.5354,-0.6311,-0.6274,-0.6271,-0.6268,-0.6261,-0.6278,-0.5384,-0.3229,-0.2714,-0.2611,-0.2515,-0.0968,-0.0979,-0.2772,-0.5392,-0.7115,-0.7108,-0.7326,-0.7564,-0.7705,-0.7852,-0.8004,-0.8045,-0.7962,-0.7955,-0.8045,-0.7959,-0.7965,-0.7962,-0.7965,-0.7965,-0.7962,-0.7959,-0.7955,-0.7945,-0.7955,-0.7959,-0.7849,-0.7021,-0.6822,-0.7849,-0.7945,-0.8041,-0.8041,-0.7949,-0.7959,-0.7466,-0.5131,-0.201,-0.0403,-0.0,-0.0,-0.0,-0.7895,-0.7992,-0.7172,-0.7184,-0.4746,-0.475,-0.2218,-0.0,-0.0,-0.0,-0.0,-0.0,-0.0,-0.0,-0.0,-0.0,-0.0,-0.0,-0.0,-0.0,-0.0,-0.0,-0.0,-0.0,-0.0,-0.0,-0.0,-0.0,-0.0,-0.0,-0.0,-0.0,-0.0,-0.0,-0.0,-0.0,-0.0,-0.0,-0.0,-0.0,-0.0,-0.1705,-0.458,-0.2596,-0.195,-0.0,-0.5518,-0.7069,-0.6552,-0.3604,-0.121,-0.0,-0.0,-0.0,-0.0,-0.2987,-0.3222,-0.0235,-0.1021,-0.3066,-0.5996,-0.6302,-0.6285,-0.6274,-0.6268,-0.6264,-0.6264,-0.6322,-0.561,-0.4007,-0.159,-0.0,-0.0,-0.0,-0.0,-0.0,-0.3156,-0.5165,-0.6158,-0.692,-0.7536,-0.7675,-0.7824,-0.7963,-0.7962,-0.7979,-0.7972,-0.7959,-0.7975,-0.7679,-0.7056,-0.6753,-0.6753,-0.6748,-0.7459,-0.7969,-0.7955,-0.7952,-0.7949,-0.8041,-0.7942,-0.7952,-0.7962,-0.7952,-0.8041,-0.8038,-0.8041,-0.7949,-0.7969,-0.6037,-0.3414,-0.0,-0.0,-0.0,-0.0,-0.5644,-0.6759,-0.6062,-0.0,-0.0,-0.7006,-0.4243,-0.2016,-0.0,-0.0,-0.0,-0.0,-0.0,-0.0,-0.0,-0.0,-0.0,-0.0,-0.0,-0.0,-0.0,-0.0,-0.0,-0.0,-0.0,-0.0,-0.0,-0.0,-0.0,-0.0,-0.0,-0.0,-0.0,-0.0,-0.0,-0.0,-0.0,-0.0,-0.0,-0.0,-0.0,-0.0179,-0.152,-0.4748,-0.6637,-0.6428,-0.6802,-0.7118,-0.6934,-0.6229,-0.3617,-0.0,-0.0,-0.0,-0.0,-0.0236,-0.0314,-0.0,-0.3616,-0.5993,-0.6285,-0.6278,-0.6271,-0.6264,-0.6261,-0.6271,-0.6302,-0.6013,-0.5994,-0.5549,-0.0,-0.0,-0.0,-0.0,-0.0,-0.0,-0.0,-0.0,-0.3595,-0.526,-0.6718,-0.7237,-0.7681,-0.7759,-0.7882,-0.7885,-0.7989,-0.7982,-0.7475,-0.6353,-0.4422,-0.4218,-0.4219,-0.4622,-0.6239,-0.7769,-0.7972,-0.7969,-0.7962,-0.7949,-0.7952,-0.7962,-0.7949,-0.8041,-0.8041,-0.8041,-0.7949,-0.7945,-0.7962,-0.726,-0.4423,-0.201,-0.0,-0.0,-0.0,-0.2415,-0.3728,-0.0,-0.0,-0.0,-0.0,-0.7327,-0.5987,-0.0,-0.0,-0.0,-0.0,-0.0,-0.0,-0.0,-0.0,-0.0,-0.0,-0.0,-0.0,-0.0,-0.0,-0.0,-0.0,-0.0,-0.0,-0.0,-0.0,-0.0,-0.0,-0.0,-0.0,-0.0,-0.0,-0.0,-0.0,-0.0,-0.2966,-0.2962,-0.0,-0.0,-0.1427,-0.4289,-0.6189,-0.7098,-0.7088,-0.7098,-0.7095,-0.6642,-0.3976,-0.1488,-0.0,-0.0,-0.0,-0.0,-0.2514,-0.2827,-0.0157,-0.4003,-0.6298,-0.6278,-0.6271,-0.6268,-0.6261,-0.6261,-0.6305,-0.6004,-0.3784,-0.3542,-0.5667,-0.2424,-0.0,-0.0,-0.0,-0.0,-0.0,-0.0,-0.0,-0.0,-0.2106,-0.3202,-0.4702,-0.5275,-0.5434,-0.5839,-0.6871,-0.8009,-0.7481,-0.5338,-0.2413,-0.0,-0.0,-0.1409,-0.1507,-0.0,-0.4321,-0.7156,-0.7975,-0.7965,-0.7949,-0.7945,-0.7949,-0.8041,-0.8038,-0.8041,-0.7955,-0.7962,-0.7962,-0.7872,-0.7982,-0.5744,-0.4937,-0.3017,-0.0704,-0.0,-0.0,-0.0,-0.0,-0.0,-0.0,-0.0,-0.4859,-0.5982,-0.0,-0.0,-0.0,-0.0,-0.0,-0.0,-0.0,-0.0,-0.0,-0.0,-0.0,-0.0,-0.0,-0.0,-0.0,-0.0,-0.0,-0.0,-0.0,-0.0,-0.0,-0.0,-0.0,-0.0,-0.0,-0.0,-0.0,-0.0,-0.0,-0.3236,-0.3862,-0.0,-0.2322,-0.384,-0.6637,-0.7098,-0.6548,-0.5275,-0.4832,-0.4791,-0.435,-0.171,-0.0,-0.0,-0.0,-0.0,-0.0,-0.4093,-0.5118,-0.2898,-0.4781,-0.6285,-0.6274,-0.6264,-0.6261,-0.6261,-0.6261,-0.6254,-0.583,-0.2359,-0.1247,-0.3813,-0.0,-0.0,-0.0,-0.0,-0.0,-0.0,-0.0,-0.0,-0.0,-0.0,-0.0,-0.2175,-0.2597,-0.2714,-0.2815,-0.4237,-0.5151,-0.474,-0.2416,-0.0,-0.0,-0.0,-0.0,-0.0,-0.0,-0.0,-0.4524,-0.7059,-0.7975,-0.7959,-0.7955,-0.7955,-0.7949,-0.7949,-0.7952,-0.7962,-0.7969,-0.7872,-0.7569,-0.7679,-0.7788,-0.7281,-0.5349,-0.252,-0.0,-0.0,-0.0,-0.0,-0.0,-0.0,-0.0,-0.0,-0.0,-0.0,-0.0,-0.0,-0.0,-0.0,-0.0,-0.0,-0.0,-0.0,-0.0,-0.0,-0.0,-0.0,-0.0,-0.0,-0.0,-0.0,-0.0,-0.0,-0.0,-0.0,-0.0,-0.0,-0.0,-0.0,-0.0,-0.0,-0.0,-0.0,-0.0,-0.2424,-0.5855,-0.6215,-0.6112,-0.6828,-0.6192,-0.4469,-0.0,-0.0,-0.0,-0.0,-0.0,-0.0,-0.0,-0.0,-0.0,-0.0393,-0.4175,-0.6165,-0.5964,-0.6119,-0.6271,-0.6264,-0.6261,-0.6264,-0.6278,-0.6271,-0.6277,-0.5869,-0.0,-0.0,-0.0,-0.0,-0.0,-0.0,-0.0,-0.0,-0.0,-0.0,-0.0,-0.0,-0.0,-0.0,-0.0,-0.0,-0.0,-0.0,-0.0,-0.0,-0.0,-0.0,-0.0,-0.0,-0.0,-0.0,-0.0,-0.0,-0.0,-0.0,-0.4427,-0.7169,-0.7779,-0.7872,-0.7969,-0.7962,-0.7959,-0.7965,-0.7969,-0.7972,-0.7775,-0.7062,-0.6965,-0.7798,-0.7394,-0.5457,-0.0,-0.0,-0.0,-0.0,-0.0,-0.0,-0.0,-0.0,-0.0,-0.0,-0.0,-0.0,-0.0,-0.0,-0.0,-0.0,-0.0,-0.0,-0.0,-0.0,-0.0,-0.0,-0.0,-0.0,-0.0,-0.0,-0.0,-0.0,-0.0,-0.0,-0.0,-0.0,-0.0,-0.0,-0.0,-0.0,-0.0,-0.0,-0.0,-0.0,-0.0985,-0.2506,-0.5565,-0.5196,-0.0,-0.2142,-0.1251,-0.0,-0.0,-0.0,-0.0,-0.0,-0.0,-0.0,-0.0,-0.1401,-0.4666,-0.5796,-0.6232,-0.6288,-0.6271,-0.6264,-0.6264,-0.6261,-0.6305,-0.6311,-0.6261,-0.6306,-0.5765,-0.0,-0.0,-0.0,-0.0,-0.0,-0.0,-0.0,-0.0,-0.0,-0.0,-0.0,-0.0,-0.0,-0.0,-0.0,-0.0,-0.0,-0.0,-0.0,-0.0,-0.0,-0.0,-0.0,-0.4345,-0.5258,-0.3734,-0.0,-0.0,-0.0,-0.0,-0.0,-0.3317,-0.4724,-0.6039,-0.7266,-0.6853,-0.7156,-0.7975,-0.7979,-0.7982,-0.6659,-0.605,-0.5648,-0.6679,-0.648,-0.4549,-0.0,-0.0,-0.0,-0.0,-0.0,-0.0,-0.0,-0.0,-0.0,-0.0,-0.0,-0.0,-0.0,-0.0,-0.0,-0.0,-0.0,-0.0,-0.0,-0.0,-0.0,-0.0,-0.0,-0.0,-0.0,-0.0,-0.0,-0.0,-0.0,-0.0,-0.0,-0.0,-0.0,-0.0,-0.0,-0.0,-0.0,-0.0,-0.0,-0.0,-0.0,-0.0,-0.3044,-0.3132,-0.0,-0.0,-0.0626,-0.2238,-0.0,-0.0,-0.0,-0.2644,-0.2625,-0.0,-0.0,-0.416,-0.6857,-0.6582,-0.6316,-0.6393,-0.6342,-0.628,-0.6324,-0.638,-0.6407,-0.6367,-0.626,-0.5773,-0.4056,-0.0,-0.0,-0.0,-0.0,-0.0,-0.0,-0.0,-0.0,-0.0,-0.0,-0.0,-0.0,-0.0,-0.0,-0.0,-0.0,-0.0,-0.0,-0.0,-0.0,-0.0,-0.0,-0.4343,-0.5758,-0.7497,-0.6676,-0.3522,-0.211,-0.0804,-0.0,-0.0,-0.0,-0.0,-0.3116,-0.4126,-0.4834,-0.615,-0.7785,-0.7992,-0.7992,-0.5854,-0.4236,-0.353,-0.3836,-0.3432,-0.2019,-0.0,-0.0,-0.0,-0.0,-0.0,-0.0,-0.0,-0.0,-0.0,-0.0,-0.0,-0.0,-0.0,-0.0,-0.0,-0.0,-0.0,-0.0,-0.0,-0.0,-0.0,-0.0,-0.0,-0.0,-0.0,-0.0,-0.0,-0.0,-0.0,-0.0,-0.0,-0.0,-0.0,-0.0,-0.0,-0.0,-0.0,-0.0,-0.0,-0.0,-0.0,-0.0,-0.0,-0.0,-0.0,-0.0,-0.2148,-0.5849,-0.6656,-0.6646,-0.664,-0.6729,-0.6723,-0.6627,-0.6602,-0.6695,-0.6892,-0.6671,-0.6489,-0.661,-0.6485,-0.637,-0.6378,-0.6559,-0.6647,-0.6383,-0.6489,-0.4081,-0.0,-0.0,-0.0,-0.0,-0.0,-0.0,-0.0,-0.0,-0.0,-0.0,-0.0,-0.0,-0.0,-0.0,-0.0,-0.0,-0.0,-0.0,-0.0,-0.0,-0.0,-0.6078,-0.7714,-0.719,-0.5334,-0.6862,-0.7478,-0.7172,-0.5436,-0.3518,-0.0,-0.0,-0.0,-0.0,-0.0,-0.0,-0.0,-0.3521,-0.5443,-0.8016,-0.7908,-0.6268,-0.3633,-0.2624,-0.0,-0.0,-0.0,-0.0,-0.0,-0.0,-0.0,-0.0,-0.0,-0.0,-0.0,-0.0,-0.0,-0.0,-0.0,-0.0,-0.0,-0.0,-0.0,-0.0,-0.0,-0.0,-0.0,-0.0,-0.0,-0.0,-0.0,-0.0,-0.0,-0.0,-0.0,-0.0,-0.0,-0.0,-0.0,-0.0,-0.0,-0.0,-0.0,-0.0,-0.0,-0.0,-0.0,-0.0,-0.0,-0.0,-0.0,-0.0,-0.0,-0.0,-0.6397,-0.7104,-0.7088,-0.7084,-0.7074,-0.7068,-0.7153,-0.7153,-0.7114,-0.7147,-0.6937,-0.6822,-0.6743,-0.6641,-0.6483,-0.6367,-0.6754,-0.6888,-0.6685,-0.4989,-0.303,-0.0,-0.0,-0.0,-0.0,-0.0,-0.0,-0.0,-0.0,-0.0,-0.0,-0.0,-0.0,-0.0,-0.0,-0.0,-0.0,-0.0,-0.0,-0.0,-0.0,-0.2019,-0.6793,-0.7818,-0.7491,-0.7266,-0.7359,-0.7982,-0.7882,-0.7269,-0.6458,-0.4643,-0.0,-0.0,-0.0,-0.0,-0.0,-0.0,-0.0,-0.3224,-0.7107,-0.7828,-0.74,-0.4853,-0.2928,-0.0,-0.0,-0.0,-0.0,-0.0,-0.0,-0.0,-0.0,-0.0,-0.0,-0.0,-0.0,-0.0,-0.0,-0.0,-0.0,-0.0,-0.0,-0.0,-0.0,-0.0,-0.0,-0.0,-0.0,-0.0,-0.0,-0.0,-0.0,-0.0,-0.0,-0.0,-0.0,-0.0,-0.0,-0.0,-0.0,-0.0,-0.0,-0.0,-0.0,-0.0,-0.0,-0.0,-0.0,-0.0,-0.0,-0.0,-0.0,-0.0,-0.2321,-0.6198,-0.7088,-0.7071,-0.7068,-0.7149,-0.7143,-0.7139,-0.7139,-0.7041,-0.6816,-0.6973,-0.7038,-0.6986,-0.6888,-0.682,-0.6698,-0.6912,-0.714,-0.6944,-0.4743,-0.2384,-0.0,-0.0,-0.0,-0.0,-0.0,-0.0,-0.0,-0.0,-0.0,-0.0,-0.0,-0.0,-0.0,-0.0,-0.0,-0.0,-0.0,-0.0,-0.0,-0.0,-0.0,-0.5146,-0.7284,-0.7992,-0.7962,-0.7962,-0.7969,-0.7975,-0.7982,-0.7695,-0.7202,-0.4549,-0.0,-0.0,-0.0,-0.0,-0.0,-0.0,-0.0,-0.5884,-0.5473,-0.5567,-0.0,-0.0,-0.0,-0.0,-0.0,-0.0,-0.0,-0.0,-0.0,-0.0,-0.0,-0.0,-0.0,-0.0,-0.0,-0.0,-0.0,-0.0,-0.0,-0.0,-0.0,-0.0,-0.0,-0.0,-0.0,-0.0,-0.0,-0.0,-0.0,-0.0,-0.0,-0.0,-0.0,-0.0,-0.0,-0.0,-0.0,-0.0,-0.0,-0.0,-0.0,-0.0,-0.0,-0.0,-0.0,-0.0,-0.0,-0.0,-0.0,-0.0,-0.0,-0.0,-0.6263,-0.7071,-0.7146,-0.7146,-0.7143,-0.7139,-0.7136,-0.7099,-0.6933,-0.6734,-0.6822,-0.7131,-0.7132,-0.7128,-0.7094,-0.7092,-0.7094,-0.7121,-0.6684,-0.4905,-0.2498,-0.0,-0.0,-0.0,-0.0,-0.0,-0.0,-0.0,-0.0,-0.0,-0.0,-0.0,-0.0,-0.0,-0.0,-0.0,-0.0,-0.0,-0.0,-0.0,-0.0,-0.1106,-0.4019,-0.6753,-0.7762,-0.7952,-0.7949,-0.7955,-0.7982,-0.7682,-0.698,-0.6178,-0.384,-0.1817,-0.0,-0.0,-0.0,-0.0,-0.0,-0.0,-0.4661,-0.2629,-0.0,-0.0,-0.0,-0.0,-0.0,-0.0,-0.0,-0.0,-0.0,-0.0,-0.0,-0.0,-0.0,-0.0,-0.0,-0.0,-0.0,-0.0,-0.0,-0.0,-0.0,-0.0,-0.0,-0.0,-0.0,0.2074,0.4443,0.1848,-0.0,-0.0,-0.0,-0.0,-0.0,-0.0,-0.0,-0.0,-0.0,-0.0,-0.0,-0.0,-0.0,-0.0,-0.0,-0.0,-0.0,-0.0,-0.0,-0.0,-0.3318,-0.5484,-0.5285,-0.5003,-0.5813,-0.6992,-0.7153,-0.7143,-0.7139,-0.7139,-0.7139,-0.7132,-0.7135,-0.7048,-0.7004,-0.7031,-0.7104,-0.7075,-0.7092,-0.7102,-0.7126,-0.7109,-0.7122,-0.6624,-0.5013,-0.2683,-0.0,-0.0,-0.0,-0.0,-0.0,-0.0,-0.0,-0.0,-0.0,-0.0,-0.0,-0.0,-0.0,-0.0,-0.0,-0.384,-0.5363,-0.4343,-0.0,-0.0,-0.0,-0.5352,-0.7083,-0.7899,-0.7869,-0.7972,-0.7979,-0.7989,-0.7181,-0.5964,-0.0,-0.0,-0.0,-0.0,-0.0,-0.0,-0.0,-0.0,-0.0,-0.0,-0.0,-0.0,-0.0,-0.0,-0.0,-0.0,-0.0,-0.0,-0.0,-0.0,-0.0,-0.0,-0.0,-0.0,-0.0,-0.0,-0.0,-0.0,-0.0,-0.0,-0.0,-0.0,-0.0,-0.0,-0.0,-0.0,0.1549,0.3195,0.0956,-0.0,-0.0,-0.0,-0.0,-0.0,-0.0,-0.0,-0.0,-0.0,-0.0,-0.0,-0.0,-0.0,-0.0,-0.0,-0.0,-0.0,-0.0,-0.0,-0.0,-0.4757,-0.6563,-0.7094,-0.7081,-0.6976,-0.7068,-0.7149,-0.7139,-0.7139,-0.7139,-0.7139,-0.7136,-0.7071,-0.7075,-0.7122,-0.7078,-0.7078,-0.7126,-0.7149,-0.7156,-0.7068,-0.7068,-0.7081,-0.6834,-0.6112,-0.3406,-0.0,-0.0,-0.0,-0.0,-0.0,-0.0,-0.0,-0.0,-0.0,-0.0,-0.0,-0.0,-0.0,-0.0,-0.0,-0.3739,-0.6595,-0.6491,-0.4041,-0.1713,-0.0805,-0.3626,-0.3823,-0.483,-0.5534,-0.6456,-0.7899,-0.7902,-0.7494,-0.0,-0.0,-0.0,-0.0,-0.0,-0.0,-0.0,-0.0,-0.0,-0.0,-0.0,-0.0,-0.0,-0.0,-0.0,-0.0,-0.0,-0.0,-0.0,-0.0,-0.0,-0.0,-0.0,-0.0,-0.0,-0.0,-0.0,-0.0,-0.0,-0.0,-0.0,-0.0,-0.0,-0.0,-0.0,-0.0,-0.0,-0.0,-0.0,-0.0,-0.0,-0.0,-0.0,-0.0,-0.0,-0.0,-0.0,-0.0,-0.0,-0.0,-0.0,-0.0,-0.0,-0.0,-0.0,-0.0,-0.0,-0.0,-0.0,-0.0,-0.4743,-0.691,-0.7078,-0.7153,-0.7143,-0.7143,-0.7143,-0.7139,-0.7139,-0.7139,-0.7139,-0.7136,-0.7132,-0.7122,-0.7139,-0.7126,-0.7136,-0.7146,-0.7078,-0.7088,-0.691,-0.618,-0.6008,-0.5941,-0.6123,-0.4497,-0.0,-0.0,-0.0,-0.0,-0.0,-0.0,-0.0,-0.0,-0.0,-0.0,-0.0,-0.0,-0.0,-0.0,-0.0,-0.0,-0.4453,-0.6709,-0.7116,-0.3827,-0.2312,-0.0,-0.0,-0.2313,-0.3419,-0.4429,-0.6266,-0.761,-0.7098,-0.0,-0.0,-0.0,-0.0,-0.0,-0.0,-0.0,-0.0,-0.0,-0.0,-0.0,-0.0,-0.0,-0.0,-0.0,-0.0,-0.0,-0.0,-0.0,-0.0,-0.0,-0.0,-0.0,-0.0,-0.0,-0.0,-0.0,-0.0,-0.0,-0.0,-0.0,-0.0,-0.0,-0.0,-0.0,-0.0,-0.0,-0.0,-0.0,-0.0,-0.0,-0.0,-0.0,-0.0,-0.0,-0.0,-0.0,-0.0,-0.0,-0.0,-0.0,-0.0,-0.0,-0.0,-0.0,-0.0,-0.0,-0.0,-0.0,-0.0,-0.4736,-0.6989,-0.7153,-0.7139,-0.7139,-0.7139,-0.7139,-0.7139,-0.7139,-0.7143,-0.7143,-0.7143,-0.7146,-0.7146,-0.7143,-0.7143,-0.7149,-0.7078,-0.7081,-0.7098,-0.629,-0.3664,-0.0,-0.2416,-0.4764,-0.4226,-0.0,-0.0,-0.0,-0.0,-0.0,-0.0,-0.0,-0.0,-0.0,-0.0,-0.0,-0.0,-0.0,-0.0,-0.0,-0.0,-0.0,-0.0,-0.6589,-0.6586,-0.3932,-0.0,-0.0,-0.0,-0.0,-0.0,-0.3835,-0.4549,-0.4142,-0.0,-0.0,-0.0,-0.0,-0.0,-0.0,-0.0,-0.0,-0.0,-0.0,-0.0,-0.0,-0.0,-0.0,-0.0,-0.0,-0.0,-0.0,-0.0,-0.0,-0.0,-0.0,-0.0,-0.0,-0.0,-0.0,-0.0,-0.0,-0.0,-0.0,-0.0,-0.0,-0.0,-0.0,-0.0,-0.0,-0.0,-0.1457,-0.309,-0.3609,-0.2154,-0.0,-0.0,-0.0,-0.0,-0.0,-0.0,-0.0,-0.0,-0.1615,-0.3142,-0.359,-0.0,-0.0,-0.0,-0.0,-0.0,-0.0,-0.3221,-0.4198,-0.6269,-0.7074,-0.7143,-0.7139,-0.7139,-0.7139,-0.7139,-0.7139,-0.7143,-0.7153,-0.7068,-0.7068,-0.6982,-0.7078,-0.7078,-0.7078,-0.7084,-0.7094,-0.7108,-0.7121,-0.5757,-0.0,-0.0,-0.0,-0.0,-0.0,-0.0,-0.0,-0.0,-0.0,-0.0,-0.0,-0.0,-0.0,-0.0,-0.0,-0.0,-0.0,-0.0,-0.0,-0.0,-0.0,-0.0,-0.0,-0.6186,-0.7525,-0.4758,-0.0,-0.0,-0.0,-0.0,-0.0,-0.0,-0.1515,-0.0,-0.0,-0.0,-0.0,-0.0,-0.0,-0.0,-0.0,-0.0,-0.0,-0.0,-0.0,-0.0,-0.0,-0.0,-0.0,-0.0,-0.0,-0.0,-0.0,-0.0,-0.0,-0.0,-0.0,-0.0,-0.0,-0.0,-0.0,-0.0,-0.0,-0.0,-0.0,-0.0,-0.0,-0.0,-0.0,-0.0,-0.0,-0.2607,-0.6767,-0.6857,-0.4851,-0.0,-0.0,-0.0,-0.0,-0.0,-0.0,-0.0,-0.0,-0.2418,-0.5939,-0.6754,-0.5116,-0.0,-0.0,-0.0,-0.0,-0.431,-0.6659,-0.664,-0.6903,-0.7074,-0.7143,-0.7139,-0.7139,-0.7139,-0.7139,-0.7139,-0.7146,-0.7074,-0.6447,-0.5722,-0.5641,-0.5458,-0.5097,-0.5006,-0.5099,-0.5107,-0.5389,-0.5947,-0.6138,-0.2607,-0.0,-0.0,-0.0,-0.0,-0.0,-0.0,-0.0,-0.0,-0.0,-0.0,-0.0,-0.0,-0.0,-0.0,-0.0,-0.0,-0.0,-0.0,-0.0,-0.0,-0.0,-0.1313,-0.4151,-0.517,-0.3844,-0.0,-0.0,-0.0,-0.0,-0.0,-0.0,-0.0,-0.0,-0.0,-0.0,-0.0,-0.0,-0.0,-0.0,-0.0,-0.0,-0.0,-0.0,-0.0,-0.0,-0.0,-0.0,-0.0,-0.0,-0.0,-0.0,-0.0,-0.0,-0.0,-0.0,-0.0,-0.0,-0.0,-0.0,-0.0,-0.0,-0.0,-0.0,-0.0,-0.0,-0.0,-0.0,-0.0,-0.0,-0.0,-0.0,-0.7128,-0.7115,-0.6659,-0.494,-0.1346,-0.0,-0.0,-0.0,-0.0,-0.0,-0.0,-0.2505,-0.649,-0.7042,-0.6761,-0.4853,-0.1973,-0.0,-0.0,-0.4752,-0.7012,-0.7088,-0.7071,-0.7146,-0.7143,-0.7139,-0.7139,-0.7139,-0.7139,-0.7139,-0.7143,-0.7071,-0.4996,-0.2313,-0.0,-0.0,-0.0,-0.0,-0.0,-0.0,-0.0,-0.0,-0.5417,-0.2609,-0.0,-0.0,-0.0,-0.0,-0.0,-0.0,-0.0,-0.0,-0.0,-0.0,-0.0,-0.0,-0.0,-0.0,-0.0,-0.0,-0.0,-0.0,-0.0,-0.0,-0.0,-0.0,-0.0,-0.0,-0.0,-0.0,-0.0,-0.0,-0.0,-0.0,-0.0,-0.0,-0.0,-0.0,-0.0,-0.0,-0.0,-0.0,-0.0,-0.0,-0.0,-0.0,-0.0,-0.0,-0.0,-0.0,-0.0,-0.0,-0.0,-0.0,-0.0,-0.0,-0.0,-0.0,-0.0,-0.0,-0.0,-0.0,-0.0,-0.0,-0.0,-0.0,-0.0,-0.0,-0.0,-0.0,-0.0,-0.0,-0.0,-0.2869,-0.5116,-0.6831,-0.7098,-0.6462,-0.4752,-0.1345,-0.0,-0.0,-0.0,-0.0,-0.0,-0.0,-0.2677,-0.6106,-0.7111,-0.7115,-0.6215,-0.494,-0.0,-0.268,-0.4383,-0.7094,-0.7081,-0.7153,-0.7143,-0.7139,-0.7139,-0.7139,-0.7139,-0.7139,-0.7139,-0.7146,-0.6799,-0.491,-0.0,-0.0,-0.0,-0.0,-0.0,-0.0,-0.0,-0.0,-0.0,-0.2249,-0.0,-0.0,-0.0,-0.0,-0.0,-0.0,-0.0,-0.0,-0.0,-0.0,-0.0,-0.0,-0.0,-0.0,-0.0,-0.0,-0.0,-0.0,-0.0,-0.0,-0.0,-0.0,-0.0,-0.0,-0.0,-0.0,-0.0,-0.0,-0.0,-0.0,-0.0,-0.0,-0.0,-0.0,-0.0,-0.0,-0.0,-0.0,-0.0,-0.0,-0.0,-0.0,-0.0,-0.0,-0.0,-0.0,-0.0,-0.0,-0.0,-0.0,-0.0,-0.0,-0.0,-0.0,-0.0,-0.0,-0.0,-0.0,-0.0,-0.0,-0.0,-0.0,-0.0,-0.0,-0.0,-0.0,-0.0,-0.0,-0.0,-0.0,-0.4933,-0.7019,-0.7094,-0.7088,-0.6094,-0.4026,-0.0,-0.0,-0.0,-0.0,-0.0,-0.1339,-0.2138,-0.4014,-0.6275,-0.7094,-0.637,-0.5481,-0.529,-0.4289,-0.4018,-0.5095,-0.7088,-0.7078,-0.7149,-0.7143,-0.7139,-0.7139,-0.7139,-0.7139,-0.7139,-0.7143,-0.7153,-0.7081,-0.5186,-0.259,-0.0,-0.0,-0.0,-0.0,-0.0,-0.0,-0.0,-0.0,-0.0,-0.0,-0.0,-0.0,-0.0,-0.0,-0.0,-0.0,-0.0,-0.0,-0.0,-0.0,-0.0,-0.0539,-0.0,-0.0,-0.0,-0.0,-0.0,-0.0,-0.0,-0.0,-0.0,-0.0,-0.0,-0.0,-0.0,-0.0,-0.0,-0.0,-0.0,-0.0,-0.0,-0.0,-0.0,-0.0,-0.0,-0.0,-0.0,-0.0,-0.0,-0.0,-0.0,-0.0,-0.0,-0.0,-0.0,-0.0,-0.0,-0.0,-0.0,-0.0,-0.0,-0.0,-0.0,-0.0,-0.0,-0.0,-0.0,-0.0,-0.0,-0.0,-0.0,-0.0,-0.0,-0.0,-0.0,-0.0,-0.0,-0.0,-0.0,-0.5186,-0.7091,-0.7088,-0.7094,-0.693,-0.5578,-0.0,-0.0,-0.0,-0.0,-0.0,-0.5102,-0.6634,-0.6447,-0.7088,-0.6631,-0.527,-0.2582,-0.3926,-0.5549,-0.5997,-0.6083,-0.7074,-0.7146,-0.7143,-0.7143,-0.7139,-0.7139,-0.7143,-0.7143,-0.7146,-0.7153,-0.6897,-0.6729,-0.6011,-0.5032,-0.0,-0.0,-0.0,-0.0,-0.0,-0.0,-0.0,-0.0,-0.0,-0.0,-0.0,-0.0,-0.0,-0.0,-0.0,-0.0,-0.0,-0.0,-0.0,-0.0,-0.0,-0.0,-0.4184,-0.1112,-0.0,-0.0,-0.0,-0.0,-0.0,-0.0,-0.0,-0.0,-0.0,-0.0,-0.0,-0.0,-0.0,-0.0,-0.0,-0.0,-0.0,-0.0,-0.0,-0.0,-0.0,-0.0,-0.0,-0.0,-0.0,-0.0,-0.0,-0.0,-0.0,-0.0,-0.0,-0.0,-0.0,-0.0,-0.0,-0.0,-0.0,-0.0,-0.0,-0.0,-0.0,-0.0,-0.0,-0.0,-0.0,-0.0,-0.0,-0.0895,-0.2057,-0.0625,-0.0,-0.0268,-0.3136,-0.4387,-0.4554,-0.6269,-0.7088,-0.7088,-0.7098,-0.7115,-0.576,-0.0,-0.0,-0.0,-0.0,-0.528,-0.6358,-0.7074,-0.7074,-0.7081,-0.6907,-0.6091,-0.4463,-0.5277,-0.6002,-0.6815,-0.7074,-0.7149,-0.7139,-0.7139,-0.7139,-0.7139,-0.7143,-0.7146,-0.7068,-0.7071,-0.6989,-0.6453,-0.3927,-0.2768,-0.2327,-0.1701,-0.0,-0.0,-0.0,-0.0,-0.0,-0.0,-0.0,-0.0,-0.0,-0.0,-0.0,-0.0,-0.0,-0.0,-0.0,-0.0,-0.0,-0.0,-0.0,-0.0,-0.0,-0.6023,-0.417,-0.1601,-0.0,-0.0,-0.0,-0.0,-0.0,-0.0,-0.0,-0.0,-0.0,-0.0,-0.0,-0.0,-0.0,-0.0,-0.0,-0.0,-0.0,-0.0,-0.0,-0.0,-0.0,-0.0,-0.0,-0.0,-0.0,-0.0,-0.0,-0.0,-0.0,-0.0,-0.0,-0.0,-0.0,-0.0,-0.0,-0.0,-0.0,-0.0,-0.0,-0.0,-0.0,-0.0,-0.0,-0.0,-0.0,-0.0,-0.3071,-0.4389,-0.28,-0.1235,-0.0713,-0.5114,-0.7104,-0.7081,-0.7081,-0.7094,-0.7098,-0.7104,-0.6109,-0.4306,-0.0,-0.0,-0.0,-0.5277,-0.6536,-0.7071,-0.7149,-0.7149,-0.7074,-0.6716,-0.608,-0.5902,-0.6811,-0.7081,-0.7074,-0.7149,-0.7143,-0.7139,-0.7139,-0.7139,-0.7139,-0.7143,-0.7149,-0.6989,-0.5542,-0.5095,-0.4202,-0.2052,-0.0,-0.0,-0.0,-0.0,-0.0,-0.0,-0.0,-0.0,-0.0,-0.0,-0.0,-0.0,-0.0,-0.0,-0.0,-0.0,-0.0,-0.0,-0.0,-0.0,-0.0,-0.0,-0.0,-0.0,-0.3624,-0.4215,-0.2436,-0.0,-0.0,-0.0,-0.0,-0.0,-0.0,-0.0,-0.0,-0.0,-0.0,-0.0,-0.0,-0.0,-0.0,-0.0,-0.0,-0.0,-0.0,-0.0,-0.0,-0.0,-0.0,-0.0,-0.0,-0.0,-0.0,-0.0,-0.0,-0.0,-0.0,-0.0,-0.0,-0.0,-0.0,-0.0,-0.0,-0.0,-0.0,-0.0,-0.0,-0.0,-0.0,-0.0,-0.0,-0.0,-0.0,-0.6776,-0.7021,-0.6773,-0.413,-0.1148,-0.5085,-0.7146,-0.7014,-0.6599,-0.6447,-0.637,-0.6637,-0.4905,-0.2044,-0.1412,-0.2911,-0.5401,-0.6672,-0.7115,-0.7085,-0.7149,-0.7102,-0.7119,-0.675,-0.5739,-0.2561,-0.4412,-0.7078,-0.7126,-0.7105,-0.7112,-0.7143,-0.7143,-0.7146,-0.7143,-0.7139,-0.7153,-0.6447,-0.2849,-0.0,-0.0,-0.0,-0.0,-0.0,-0.0,-0.0,-0.0,-0.0,-0.0,-0.0,-0.0,-0.0,-0.0,-0.0,-0.0,-0.0,-0.0,-0.0,-0.0,-0.0,-0.0,-0.0,-0.0,-0.0,-0.0,-0.0,-0.0,-0.0,-0.2985,-0.3139,-0.0,-0.0,-0.0,-0.0,-0.0,-0.0,-0.0,-0.0,-0.0,-0.0,-0.0,-0.0,-0.0,-0.0,-0.0,-0.0,-0.0,-0.0,-0.0,-0.0,-0.0,-0.0,-0.0,-0.0,-0.0,-0.0,-0.0,-0.0,-0.0,-0.0,-0.0,-0.0,-0.0,-0.0,-0.0,-0.0,-0.0,-0.0,-0.0,-0.0,-0.0,-0.0,-0.0,-0.0,-0.0,-0.6729,-0.6888,-0.6632,-0.5913,-0.4949,-0.6351,-0.7137,-0.6534,-0.399,-0.2449,-0.3068,-0.5092,-0.6282,-0.4837,-0.4471,-0.5416,-0.6632,-0.7126,-0.7119,-0.7048,-0.6796,-0.7125,-0.7063,-0.6605,-0.5972,-0.5287,-0.6503,-0.6943,-0.7087,-0.709,-0.7068,-0.7112,-0.7146,-0.7074,-0.7074,-0.7078,-0.7088,-0.629,-0.0,-0.0,-0.0,-0.0,-0.0,-0.0,-0.0,-0.0,-0.0,-0.0,-0.0,-0.0,-0.0,-0.0,-0.0,-0.0,-0.0,-0.0,-0.0,-0.0,-0.0,-0.0,-0.0,-0.0,-0.0,-0.0,-0.0,-0.0,-0.0,-0.0,-0.0,-0.0,-0.0,-0.0,-0.0,-0.0,-0.0,-0.0,-0.0,-0.0,-0.0,-0.0,-0.0,-0.0,-0.0,-0.0,-0.0,-0.0,-0.0,-0.0,-0.0,-0.0,-0.0,-0.0,-0.0,-0.0,-0.0,-0.0,-0.0,-0.0,-0.0,-0.0,-0.0,-0.0,-0.0,-0.0,-0.0,-0.0,-0.0,-0.0,-0.0,-0.0,-0.0,-0.0,-0.0,-0.0,-0.0,-0.6394,-0.663,-0.6384,-0.6465,-0.6824,-0.685,-0.6133,-0.4367,-0.1443,-0.0684,-0.2571,-0.4549,-0.5726,-0.6431,-0.6909,-0.6895,-0.6809,-0.6805,-0.6798,-0.6546,-0.5027,-0.4398,-0.4582,-0.6195,-0.6379,-0.6561,-0.6622,-0.678,-0.6763,-0.7024,-0.7104,-0.7131,-0.7139,-0.7088,-0.6729,-0.5824,-0.4289,-0.3312,-0.0,-0.0,-0.0,-0.0,-0.0,-0.0,-0.0,-0.0,-0.0,-0.0,-0.0,-0.0,-0.0,-0.0,-0.0,-0.0,-0.0,-0.0,-0.0,-0.0,-0.0,-0.0,-0.0,-0.0,-0.0,-0.0,-0.0,-0.0,-0.0,-0.0,-0.0,-0.0,-0.0,-0.0,-0.0,-0.0,-0.0,-0.0,-0.0,-0.0,-0.0,-0.0,-0.0,-0.0,-0.0,-0.0,-0.0,-0.0,-0.0,-0.0,-0.0,-0.0,-0.0,-0.0,-0.0,-0.0,-0.0,-0.0,-0.0,-0.0,-0.0,-0.0,-0.0,-0.0,-0.0,-0.0,-0.0,-0.0,-0.0,-0.0,-0.0,-0.0,-0.0,-0.0,-0.0,-0.0,-0.0,-0.6264,-0.6261,-0.6261,-0.6281,-0.6329,-0.5903,-0.3663,-0.0,-0.0,-0.0,-0.5987,-0.411,-0.4838,-0.6188,-0.6595,-0.6569,-0.6391,-0.6401,-0.5812,-0.4811,-0.2553,-0.0,-0.0,-0.4486,-0.5992,-0.6423,-0.649,-0.6535,-0.6433,-0.6739,-0.6996,-0.7107,-0.7128,-0.6458,-0.5046,-0.309,-0.0,-0.0,-0.0,-0.0,-0.0,-0.0,-0.0,-0.0,-0.0,-0.0,-0.0,-0.0,-0.0,-0.0,-0.0,-0.0,-0.0,-0.0,-0.0,-0.0,-0.0,-0.0,-0.0,-0.0,-0.0,-0.0,-0.0,-0.0,-0.0,-0.0,-0.0,-0.0,-0.0,-0.0,-0.0,-0.0,-0.0,-0.0,-0.0,-0.0,-0.0,-0.0,-0.0,-0.0,-0.0,-0.0,-0.0,-0.0,-0.0,-0.0,-0.0,-0.0,-0.0,-0.0,-0.0,-0.0,-0.0,-0.0,-0.0,-0.0,-0.0,-0.0,-0.0,-0.0,-0.0,-0.0,-0.0,-0.0,-0.0,-0.0,-0.0,-0.0,-0.0,-0.0,-0.0,-0.0,-0.0,-0.0,-0.0,-0.6264,-0.6274,-0.6271,-0.6278,-0.5821,-0.3087,-0.1045,-0.0,-0.0,-0.2378,-0.6283,-0.5668,-0.5618,-0.6327,-0.639,-0.6321,-0.6321,-0.5832,-0.3987,-0.2395,-0.0,-0.0,-0.0,-0.4201,-0.5833,-0.6327,-0.6314,-0.6384,-0.6306,-0.6542,-0.6791,-0.7056,-0.6973,-0.5427,-0.2921,-0.0,-0.0,-0.0,-0.0,-0.0,-0.0,-0.0,-0.0,-0.0,-0.0,-0.0,-0.0,-0.0,-0.0,-0.0,-0.0,-0.0,-0.0,-0.0,-0.0,-0.0,-0.0,-0.0,-0.0,-0.0,-0.0,-0.0,-0.0,-0.0,-0.0,-0.0,-0.0,-0.0,-0.0,-0.0,-0.0,-0.0,-0.0,-0.0,-0.0,-0.0,-0.0,-0.0,-0.0,-0.0,-0.0,-0.0,-0.0,-0.0,-0.0,-0.0,-0.0,-0.0,-0.0,-0.0,-0.0,-0.0,-0.0,-0.0,-0.0,-0.0,-0.0,-0.0,-0.0,-0.0,-0.0,-0.0,-0.0,-0.0,-0.0,-0.0,-0.0,-0.0,-0.0,-0.0,-0.0,-0.0,-0.0,-0.0,-0.0,-0.6278,-0.6045,-0.4455,-0.3826,-0.3359,-0.1093,-0.0789,-0.1916,-0.0799,-0.2399,-0.6032,-0.6261,-0.6284,-0.6298,-0.6285,-0.6288,-0.6136,-0.4166,-0.2986,-0.3696,-0.0859,-0.0,-0.0,-0.4742,-0.5946,-0.6264,-0.6257,-0.6332,-0.6258,-0.6044,-0.621,-0.414,-0.561,-0.3948,-0.0,-0.0,-0.0,-0.0,-0.0,-0.0,-0.0,-0.0,-0.0,-0.0,-0.0,-0.0,-0.0,-0.0,-0.0,-0.0,-0.0,-0.0,-0.0,-0.0,-0.0,-0.0,-0.0,-0.0,-0.0,-0.0,-0.0,-0.0,-0.0,-0.0,-0.0,-0.0,-0.0,-0.0,-0.0,-0.0,-0.0,-0.0,-0.0,-0.0,-0.0,-0.0,-0.0,-0.0,-0.0,-0.0,-0.0,-0.0,-0.0,-0.0,-0.0,-0.0,-0.0,-0.0,-0.0,-0.0,-0.0,-0.0,-0.0,-0.0,-0.0,-0.0,-0.0,-0.0,-0.0,-0.0,-0.0,-0.0,-0.0,-0.0,-0.0,-0.0,-0.0,-0.0,-0.0,-0.0,-0.0,-0.0,-0.0,-0.0,-0.0,-0.6264,-0.5957,-0.0,-0.0,-0.0156,-0.0547,-0.2741,-0.5655,-0.2344,-0.2728,-0.5892,-0.6281,-0.6285,-0.6268,-0.6271,-0.5637,-0.4854,-0.3049,-0.3209,-0.5736,-0.2973,-0.2824,-0.4789,-0.6278,-0.6288,-0.6271,-0.6268,-0.6285,-0.6071,-0.5192,-0.315,-0.0,-0.3792,-0.3483,-0.0,-0.0,-0.0,-0.0,-0.0,-0.0,-0.0,-0.0,-0.0,-0.0,-0.0,-0.0,-0.0,-0.0,-0.0,-0.0,-0.0,-0.0,-0.0,-0.0,-0.0,-0.0,-0.0,-0.0,-0.0,-0.0,-0.0,-0.0,-0.0,-0.0,-0.0,-0.0,-0.0,-0.0,-0.0,-0.0,-0.0,-0.0,-0.0,-0.0,-0.0,-0.0,-0.0,-0.0,-0.0,-0.0,-0.0,-0.0,-0.0,-0.0,-0.0,-0.0,-0.0,-0.0,-0.0,-0.0,-0.0,-0.0,-0.0,-0.0,-0.0,-0.0,-0.0,-0.0,-0.0,-0.0,-0.0,-0.0,-0.0,-0.0,-0.0,-0.0,-0.0,-0.0,-0.0,-0.0,-0.0,-0.0,-0.0,-0.0,-0.0,-0.6268,-0.5848,-0.1711,-0.0,-0.0,-0.3444,-0.5251,-0.62,-0.5315,-0.5229,-0.6193,-0.6264,-0.6264,-0.6264,-0.6271,-0.5243,-0.2574,-0.3125,-0.313,-0.3917,-0.3129,-0.4382,-0.6038,-0.6271,-0.6264,-0.6264,-0.6268,-0.6041,-0.5182,-0.331,-0.0,-0.0,-0.0,-0.0,-0.0,-0.0,-0.0,-0.0,-0.0,-0.0,-0.0,-0.0,-0.0,-0.0,-0.0,-0.0,-0.0,-0.0,-0.0,-0.0,-0.0,-0.0,-0.0,-0.0,-0.0,-0.0,-0.0,-0.0,-0.0,-0.0,-0.0,-0.0,-0.0,-0.0,-0.0,-0.0,-0.0,-0.0,-0.0,-0.0,-0.0,-0.0,-0.0,-0.0,-0.0,-0.0,-0.0,-0.0,-0.0,-0.0,-0.0,-0.0,-0.0,-0.0,-0.0,-0.0,-0.0,-0.0,-0.0,-0.0,-0.0,-0.0,-0.0,-0.0,-0.0,-0.0,-0.0,-0.0,-0.0,-0.0,-0.0,-0.0,-0.0,-0.0,-0.0,-0.0,-0.0,-0.0,-0.0,-0.0,-0.0,-0.0,-0.0,-0.0,-0.0,-0.353,-0.3209,-0.0,-0.0,-0.0,-0.4483,-0.6317,-0.63,-0.6289,-0.6256,-0.6256,-0.6304,-0.6257,-0.6261,-0.6271,-0.5485,-0.2806,-0.2887,-0.3595,-0.391,-0.4538,-0.5637,-0.6271,-0.6268,-0.6271,-0.6271,-0.6119,-0.5575,-0.0,-0.0,-0.0,-0.0,-0.0,-0.0,-0.0,-0.0,-0.0,-0.0,-0.0,-0.0,-0.0,-0.0,-0.0,-0.0,-0.0,-0.0,-0.0,-0.0,-0.0,-0.0,-0.0,-0.0,-0.0,-0.0,-0.0,-0.0,-0.0,-0.0,-0.0,-0.0,-0.0,-0.0,-0.0,-0.0,-0.0,-0.0,-0.0,-0.0,-0.0,-0.0,-0.0,-0.0,-0.0,-0.0,-0.0,-0.0,-0.0,-0.0,-0.0,-0.0,-0.0,-0.0,-0.0,-0.0,-0.0,-0.0,-0.0,-0.0,-0.0,-0.0,-0.0,-0.0,-0.0,-0.0,-0.0,-0.0,-0.0,-0.0,-0.0,-0.0,-0.0,-0.0,-0.0,-0.0,-0.0,-0.0,-0.0,-0.0,-0.0,-0.0,-0.0,-0.0,-0.0,-0.0,-0.0,-0.0,-0.0,-0.0,-0.0,-0.0,-0.4447,-0.6143,-0.6187,-0.618,-0.6186,-0.6155,-0.6208,-0.621,-0.6261,-0.6271,-0.6278,-0.5643,-0.3904,-0.4139,-0.5143,-0.5948,-0.6314,-0.6318,-0.6261,-0.564,-0.5015,-0.4626,-0.0,-0.0,-0.0,-0.0,-0.0,-0.0,-0.0,-0.0,-0.0,-0.0,-0.0,-0.0,-0.0,-0.0,-0.0,-0.0,-0.0,-0.0,-0.0,-0.0,-0.0,-0.0,-0.0,-0.0,-0.0,-0.0,-0.0,-0.0,-0.0,-0.0,-0.0,-0.0,-0.0,-0.0,-0.0,-0.0,-0.0,-0.0,-0.0,-0.0,-0.0,-0.0,-0.0,-0.0,-0.0,-0.0,-0.0,-0.0,-0.0,-0.0,-0.0,-0.0,-0.0,-0.0,-0.0,-0.0,-0.0,-0.0,-0.0,-0.0,-0.0,-0.0,-0.0,-0.0,-0.0,-0.0,-0.0,-0.0,-0.0,-0.0,-0.0,-0.0,-0.0,-0.0,-0.0,-0.0,-0.0,-0.0,-0.0,-0.0,-0.0,-0.0,-0.0,-0.0,-0.0,-0.0,-0.0,-0.0,-0.0,-0.0,-0.0,-0.0,-0.0,-0.3993,-0.5528,-0.5581,-0.5571,-0.56,-0.5699,-0.5808,-0.6003,-0.6254,-0.6271,-0.6254,-0.5966,-0.457,-0.5087,-0.6139,-0.5552,-0.5934,-0.5854,-0.4944,-0.3826,-0.0,-0.0,-0.0,-0.0,-0.0,-0.0,-0.0,-0.0,-0.0,-0.0,-0.0,-0.0,-0.0,-0.0,-0.0,-0.0,-0.0,-0.0,-0.0,-0.0,-0.0,-0.0,-0.0,-0.0,-0.0,-0.0,-0.0,-0.0,-0.0,-0.0,-0.0,-0.0,-0.0,-0.0,-0.0,-0.0,-0.0,-0.0,-0.0,-0.0,-0.0,-0.0,-0.0,-0.0,-0.0,-0.0,-0.0,-0.0,-0.0,-0.0,-0.0,-0.0,-0.0,-0.0,-0.0,-0.0,-0.0,-0.0,-0.0,-0.0,-0.0,-0.0,-0.0,-0.0,-0.0,-0.0,-0.0,-0.0,-0.0,-0.0,-0.0,-0.0,-0.0,-0.0,-0.0,-0.0,-0.0,-0.0,-0.0,-0.0,-0.0,-0.0,-0.0,-0.0,-0.0,-0.0,-0.0,-0.0,-0.0,-0.0]},{"header":{"parameterUnit":"m.s-1","parameterCategory":1,"la1":31.0,"la2":29.5877,"lo1":-88.7671,"lo2":-86.6584,"dy":0.0162,"dx":0.0185,"nx":115,"ny":88,"refTime":"2024-06-23T06:00:00:Z","depth":0,"parameterNumber":3,"parameterNumberName":"V-component_of_WINDS"},"data":[0.0,0.0,0.0,0.0,0.0,0.0,0.0,0.0,0.0,0.0,0.0,0.0,0.0,0.0,0.0,0.0,0.0,0.0,0.0,0.0,0.0,0.0,0.0,0.0,0.0,0.0,0.0,0.0,0.0,0.0,0.0,0.0,0.0,0.0,0.0,0.0,0.0,0.0,0.0,0.0,0.0,0.0,0.0,0.0,0.0,0.0,0.0,0.0,0.0,0.0,0.0,0.0,0.0,0.0,0.0,0.0,0.0,0.0,0.0,0.0,0.0,0.0,0.0,0.0,0.0,0.0,0.0,0.0,0.0,0.0,0.0,0.0,0.0,0.0,0.0,0.0,0.0,0.0,0.0,0.0,0.0,0.0,0.0,0.0,0.0,0.0,0.0,0.0,0.0,0.0,0.0,0.0,0.0,0.0,0.0,0.0,0.0,0.0,0.0,0.0,0.0,0.0,0.0,0.0,0.0,0.0,0.0,0.0,0.0,0.0,0.0,0.0,0.0,0.0,0.0,0.0,0.0,0.0,0.0,0.0,0.0,0.0,0.0,0.0,0.0,0.0,0.0,0.0,0.0,0.0,0.0,0.0,0.0,0.0,0.0,0.0,0.0,0.0,0.0,0.0,0.0,0.0,0.0,0.0,0.0,0.0,0.0,0.0,0.0,0.0,0.0,0.0,0.0,0.0,0.0,0.0,0.0,0.0,0.0,0.0,0.0,0.0,0.0,0.0,0.0,0.0,0.0,0.0,0.0,0.0,0.0,0.0,0.0,0.0,0.0,0.0,0.0,0.0,0.0,0.0,0.0,0.0,0.0,0.0,0.0,0.0,0.0,0.0,0.0,0.0,0.0,0.0,0.0,0.0,0.0,0.0,0.0,0.0,0.0,0.0,0.0,0.0,0.0,0.0,0.0,0.0,0.0,0.0,0.0,0.0,0.0,0.0,0.0,0.0,0.0,0.0,0.0,0.0,0.0,0.0,0.0,0.0,0.0,0.0,0.0,0.0,0.0,0.0,0.0,0.0,0.0,0.0,0.0,0.0,0.0,0.0,0.0,0.0,0.0,0.0,0.0,0.0,0.0,0.0,0.0,0.0,0.0,0.0,0.0,0.0,0.0,0.0,0.0,0.0,0.0,0.0,0.0,0.0,0.0,0.0,0.0,0.0,0.0,0.0,0.0,0.0,0.0,0.0,0.0,0.0,0.0,0.0,0.0,0.0,0.0,0.0,0.0,0.0,0.0,0.0,0.0,0.0,0.0,0.0,0.0,0.0,0.0,0.0,0.0,0.0,0.0,0.0,0.0,0.0,0.0,0.0,0.0,0.0,0.0,0.0,0.0,0.0,0.0,0.0,0.0,0.0,0.0,0.0,0.0,0.0,0.0,0.0,0.0,0.0,0.0,0.0,0.0,0.0,0.0,0.0,0.0,0.0,0.0,0.0,0.0,0.0,0.0,0.0,0.0,0.0,0.0,0.0,0.0,0.0,0.0,0.0,0.0,0.0,0.0,0.0,0.0,0.0,0.0,0.0,0.0,0.0,0.0,0.0,0.0,0.0,0.0,0.0,0.0,0.0,0.0,0.0,0.0,0.0,0.0,0.0,0.0,0.0,0.0,0.0,0.0,0.0,0.0,0.0,0.0,0.0,0.0,0.0,0.0,0.0,0.0,0.0,0.0,0.0,0.0,0.0,0.0,0.0,0.0,0.0,0.0,0.0,0.0,0.0,0.0,0.0,0.0,0.0,0.0,0.0,0.0,0.0,0.0,0.0,0.0,0.0,0.0,0.0,0.0,0.0,0.0,0.0,0.0,0.0,0.0,0.0,0.0,0.0,0.0,0.0,0.0,0.0,0.0,0.0,0.0,0.0,0.0,0.0,0.0,0.0,0.0,0.0,0.0,0.0,0.0,0.0,0.0,0.0,0.0,0.0,0.0,0.0,0.0,0.0,0.0,0.0,0.0,0.0,0.0,0.0,0.0,0.0,0.0,0.0,0.0,0.0,0.0,0.0,0.0,0.0,0.0,0.0,0.0,0.0,0.0,0.0,0.0,0.0,0.0,0.0,0.0,0.0,0.0,0.0,0.0,0.0,0.0,0.0,0.0,0.0,0.0,0.0,0.0,0.0,0.0,0.0,0.0,0.0,0.0,0.0,0.0,0.0,0.0,0.0,0.0,0.0,0.0,0.0,0.0,0.0,0.0,0.0,0.0,0.0,0.0,0.0,0.0,0.0,0.0,0.0,0.0,0.0,0.0,0.0,0.0,0.0,0.0,0.0,0.0,0.0,0.0,0.0,0.0,0.0,0.0,0.0,0.0,0.0,0.0,0.0,0.0,0.0,0.0,0.0,0.0,0.0,0.0,0.0,0.0,0.0,0.0,0.0,0.0,0.0,0.0,0.0,0.0,0.0,0.0,0.0,0.0,0.0,0.0,0.0,0.0,0.0,0.0,0.0,0.0,0.0,0.0,0.0,0.0,0.0,0.0,0.0,0.0,0.0,0.0,0.0,0.0,0.0,0.0,0.0,0.0,0.0,0.0,0.0,0.0,0.0,0.0,0.0,0.0,0.0,0.0,0.0,0.0,0.0,0.0,0.0,0.0,0.0,0.0,0.0,0.0,0.0,0.0,0.0,0.0,0.0,0.0,0.0,0.0,0.0,0.0,0.0,0.0,0.0,0.0,0.0,0.0,0.0,0.0,0.0,0.0,0.0,0.0,0.0,0.0,0.0,0.0,0.0,0.0,0.0,0.0,0.0,0.0,0.0,0.0,0.0,0.0,0.0,0.0,0.0,0.0,0.0,0.0,0.0,0.0,0.0,0.0,0.0,0.0,0.0,0.0,0.0,0.0,0.0,0.0,0.0,0.0,0.0,0.0,0.0,0.0,0.0,0.0,0.0,0.0,0.0,0.0,0.0,0.0,0.0,0.0,0.0,0.0,0.0,0.0,0.0,0.0,0.0,0.0,0.0,0.0,0.0,0.0,0.0,0.0,0.0,0.0,0.0,0.0,0.0,0.0,0.0,0.0,0.0,0.0,0.0,0.0,0.0,0.0,0.0,0.0,0.0,0.0,0.0,0.0,0.0,0.0,0.0,0.0,0.0,0.0,0.0,0.0,0.0,0.0,0.0,0.0,0.0,0.0,0.0,0.0,0.0,0.0,0.0,0.0,0.0,0.0,0.0,0.0,0.0,0.0,0.0,0.0,0.0,0.0,0.0,0.0,0.0,0.0,0.0,0.0,0.0,0.0,0.0,0.0,0.0,0.0,0.0,0.0,0.0,0.0,0.0,0.0,0.0,0.0,0.0,0.0,0.0,0.0,0.0,0.0,0.0,0.0,0.0,0.0,0.0,0.0,0.0,0.0,0.0,0.0,0.0,0.0,0.0,0.0,0.0,0.0,0.0,0.0,0.0,0.0,0.0,0.0,0.0,0.0,0.0,0.0,0.0,0.0,0.0,0.0,0.0,0.0,0.0,0.0,0.0,0.0,0.0,0.0,0.0,0.0,0.0,0.0,0.0,0.0,0.0,0.0,0.0,0.0,0.0,0.0,0.0,0.0,0.0,0.0,0.0,0.0,0.0,0.0,0.0,0.0,0.0,0.0,0.0,0.0,0.0,0.0,0.0,0.0,0.0,0.0,0.0,0.0,0.0,0.0,0.0,0.0,0.0,0.0,0.0,0.0,0.0,0.0,0.0,0.0,0.0,0.0,0.0,0.0,0.0,0.0,0.0,0.0,0.0,0.0,0.0,0.0,0.0,0.0,0.0,0.0,0.0,0.0,0.0,0.0,0.0,0.0,0.0,0.0,0.0,0.0,0.0,0.0,0.0,0.0,0.0,0.0,0.0,0.0,0.0,0.0,0.0,0.0,0.0,0.0,0.0,0.0,0.0,0.0,0.0,0.0,0.0,0.0,0.0,0.0,0.0,0.0,0.0,0.0,0.0,0.0,0.0,0.0,0.0,0.0,0.0,0.0,0.0,0.0,0.0,0.0,0.0,0.0,0.0,0.0,0.0,0.0,0.0,0.0,0.0,0.0,0.0,0.0,0.0,0.0,0.0,0.0,0.0,0.0,0.0,0.0,0.0,0.0,0.0,0.0,0.0,0.0,0.0,0.0,0.0,0.0,0.0,0.0,0.0,0.0,0.0,0.0,0.0,0.0,0.0,0.0,0.0,0.0,0.0,0.0,0.0,0.0,0.0,0.0,0.0,0.0,0.0,0.0,0.0,0.0,0.0,0.0,0.0,0.0,0.0,0.0,0.0,0.0,0.0,0.0,0.0,0.0,0.0,-1.636,0.0,0.0,0.0,0.0,0.0,0.0,0.0,0.0,0.0,0.0,0.0,0.0,0.0,0.0,0.0,0.0,0.0,0.0,0.0,0.0,0.0,0.0,0.0,0.0,0.0,0.0,0.0,0.0,0.0,0.0,0.0,0.0,0.0,0.0,0.0,0.0,0.0,0.0,0.0,0.0,0.0,0.0,0.0,0.0,0.0,0.0,0.0,0.0,0.0,0.0,0.0,0.0,0.0,0.0,0.0,0.0,0.0,0.0,0.0,0.0,0.0,0.0,0.0,0.0,0.0,0.0,0.0,0.0,0.0,0.0,0.0,0.0,0.0,0.0,0.0,0.0,0.0,0.0,0.0,0.0,0.0,0.0,0.0,0.0,0.0,0.0,0.0,0.0,0.0,0.0,0.0,0.0,0.0,0.0,0.0,0.0,0.0,0.0,0.0,0.0,0.0,0.0,0.0,0.0,0.0,0.0,0.0,0.0,0.0,0.0,-1.7463,-1.7311,-1.6442,-1.5929,-1.5797,0.0,0.0,0.0,0.0,0.0,0.0,0.0,0.0,0.0,0.0,0.0,0.0,0.0,0.0,0.0,0.0,0.0,0.0,0.0,0.0,0.0,0.0,0.0,0.0,0.0,0.0,0.0,0.0,0.0,0.0,0.0,0.0,0.0,0.0,0.0,0.0,0.0,0.0,0.0,0.0,0.0,0.0,0.0,0.0,0.0,0.0,0.0,0.0,0.0,0.0,0.0,0.0,0.0,0.0,0.0,0.0,0.0,0.0,0.0,0.0,0.0,0.0,0.0,0.0,0.0,0.0,0.0,0.0,0.0,0.0,0.0,0.0,0.0,0.0,0.0,0.0,0.0,0.0,0.0,0.0,0.0,0.0,0.0,0.0,0.0,0.0,0.0,0.0,0.0,0.0,0.0,0.0,0.0,0.0,0.0,0.0,0.0,0.0,0.0,0.0,0.0,0.0,0.0,0.0,0.0,0.0,0.0,0.0,0.0,0.0,0.0,0.0,-1.6649,-1.6284,-1.5715,0.0,0.0,0.0,0.0,0.0,0.0,0.0,0.0,0.0,0.0,0.0,0.0,0.0,0.0,0.0,0.0,0.0,0.0,0.0,0.0,0.0,0.0,0.0,0.0,0.0,0.0,0.0,0.0,0.0,0.0,0.0,0.0,0.0,0.0,0.0,0.0,0.0,0.0,0.0,0.0,0.0,0.0,0.0,0.0,0.0,0.0,0.0,0.0,0.0,0.0,0.0,0.0,0.0,0.0,0.0,0.0,0.0,0.0,0.0,0.0,0.0,0.0,0.0,0.0,0.0,0.0,0.0,0.0,0.0,0.0,0.0,0.0,0.0,0.0,0.0,0.0,0.0,0.0,0.0,0.0,0.0,0.0,0.0,0.0,0.0,0.0,0.0,0.0,0.0,0.0,0.0,0.0,0.0,0.0,0.0,0.0,0.0,0.0,0.0,0.0,0.0,0.0,0.0,0.0,0.0,0.0,0.0,0.0,0.0,0.0,-1.6555,-1.864,-1.7859,0.0,-1.764,0.0,0.0,0.0,0.0,0.0,0.0,0.0,0.0,0.0,0.0,0.0,0.0,0.0,0.0,0.0,0.0,0.0,0.0,0.0,0.0,0.0,0.0,0.0,0.0,0.0,0.0,0.0,0.0,0.0,0.0,0.0,0.0,0.0,0.0,0.0,0.0,0.0,0.0,0.0,0.0,0.0,0.0,0.0,0.0,0.0,0.0,0.0,0.0,0.0,0.0,0.0,0.0,0.0,0.0,0.0,0.0,0.0,0.0,0.0,0.0,0.0,0.0,0.0,0.0,0.0,0.0,0.0,0.0,0.0,0.0,0.0,0.0,0.0,0.0,0.0,0.0,0.0,0.0,0.0,0.0,0.0,0.0,0.0,0.0,0.0,0.0,0.0,0.0,0.0,0.0,0.0,0.0,0.0,0.0,0.0,0.0,0.0,0.0,0.0,0.0,0.0,0.0,0.0,0.0,0.0,0.0,0.0,0.0,0.0,0.0,-1.7291,-1.7736,-1.7358,-1.7403,0.0,0.0,0.0,0.0,0.0,0.0,0.0,0.0,0.0,0.0,0.0,0.0,0.0,0.0,0.0,0.0,0.0,0.0,0.0,0.0,0.0,0.0,0.0,0.0,0.0,0.0,0.0,0.0,0.0,0.0,0.0,0.0,0.0,0.0,0.0,0.0,0.0,0.0,0.0,0.0,0.0,0.0,0.0,0.0,0.0,0.0,0.0,0.0,0.0,0.0,0.0,0.0,0.0,0.0,0.0,0.0,0.0,0.0,0.0,0.0,0.0,0.0,0.0,0.0,0.0,0.0,0.0,0.0,0.0,0.0,0.0,0.0,0.0,0.0,0.0,0.0,0.0,0.0,0.0,0.0,0.0,0.0,0.0,0.0,0.0,0.0,0.0,0.0,0.0,0.0,0.0,0.0,0.0,0.0,0.0,0.0,0.0,0.0,0.0,0.0,0.0,0.0,0.0,0.0,0.0,0.0,0.0,0.0,0.0,0.0,-1.7399,0.0,-1.7656,-1.7629,-1.7682,-1.7797,0.0,0.0,0.0,0.0,0.0,0.0,0.0,0.0,0.0,0.0,0.0,0.0,0.0,0.0,0.0,0.0,0.0,0.0,0.0,0.0,0.0,0.0,0.0,0.0,0.0,0.0,0.0,0.0,0.0,0.0,0.0,0.0,0.0,0.0,0.0,0.0,0.0,0.0,0.0,0.0,0.0,0.0,0.0,0.0,0.0,0.0,0.0,0.0,0.0,0.0,0.0,0.0,0.0,0.0,0.0,0.0,0.0,0.0,0.0,0.0,0.0,0.0,0.0,0.0,0.0,0.0,0.0,0.0,0.0,0.0,0.0,0.0,0.0,0.0,0.0,0.0,0.0,0.0,0.0,0.0,0.0,0.0,0.0,0.0,0.0,0.0,0.0,0.0,0.0,0.0,0.0,0.0,0.0,0.0,0.0,0.0,0.0,0.0,0.0,0.0,0.0,0.0,0.0,0.0,0.0,0.0,0.0,0.0,0.0,-1.8202,-1.8088,-1.9416,-1.943,-1.8681,0.0,0.0,0.0,0.0,0.0,0.0,0.0,0.0,0.0,0.0,0.0,0.0,0.0,0.0,0.0,0.0,0.0,0.0,0.0,0.0,0.0,0.0,0.0,0.0,0.0,0.0,0.0,0.0,0.0,0.0,0.0,0.0,0.0,0.0,0.0,0.0,0.0,0.0,0.0,0.0,0.0,0.0,0.0,0.0,0.0,0.0,0.0,0.0,0.0,0.0,0.0,0.0,0.0,0.0,0.0,0.0,0.0,0.0,0.0,0.0,0.0,0.0,0.0,0.0,0.0,0.0,0.0,0.0,0.0,0.0,0.0,0.0,0.0,0.0,0.0,0.0,0.0,0.0,0.0,0.0,0.0,0.0,0.0,0.0,0.0,0.0,0.0,0.0,0.0,0.0,0.0,0.0,0.0,0.0,0.0,0.0,0.0,0.0,0.0,0.0,0.0,0.0,0.0,0.0,0.0,0.0,0.0,0.0,0.0,-1.6746,-1.7139,-1.8607,-2.1056,-1.9212,-1.832,0.0,0.0,0.0,0.0,0.0,0.0,0.0,0.0,0.0,0.0,0.0,0.0,0.0,0.0,0.0,0.0,0.0,0.0,0.0,0.0,0.0,0.0,0.0,0.0,0.0,0.0,0.0,0.0,0.0,0.0,0.0,0.0,0.0,0.0,0.0,0.0,0.0,0.0,0.0,0.0,0.0,0.0,0.0,0.0,0.0,0.0,0.0,0.0,0.0,0.0,0.0,0.0,0.0,0.0,0.0,0.0,0.0,0.0,0.0,0.0,0.0,0.0,0.0,0.0,0.0,0.0,0.0,0.0,0.0,0.0,0.0,0.0,0.0,0.0,0.0,0.0,0.0,0.0,0.0,0.0,0.0,0.0,0.0,0.0,0.0,0.0,0.0,0.0,0.0,0.0,0.0,0.0,0.0,0.0,0.0,0.0,0.0,0.0,0.0,0.0,0.0,0.0,0.0,0.0,0.0,0.0,0.0,0.0,0.0,-1.6713,0.0,-1.9862,0.0,-1.9344,-1.8199,0.0,0.0,0.0,0.0,0.0,0.0,0.0,0.0,0.0,0.0,0.0,0.0,0.0,0.0,0.0,0.0,0.0,0.0,0.0,0.0,0.0,0.0,0.0,0.0,0.0,0.0,0.0,0.0,0.0,0.0,0.0,0.0,0.0,0.0,0.0,0.0,0.0,0.0,0.0,0.0,0.0,0.0,0.0,0.0,0.0,0.0,0.0,0.0,0.0,0.0,0.0,0.0,0.0,0.0,0.0,0.0,0.0,0.0,0.0,0.0,0.0,0.0,0.0,0.0,0.0,0.0,0.0,0.0,0.0,0.0,0.0,0.0,0.0,0.0,0.0,0.0,0.0,0.0,0.0,0.0,0.0,0.0,0.0,0.0,0.0,0.0,0.0,0.0,0.0,0.0,0.0,0.0,0.0,0.0,0.0,0.0,0.0,0.0,0.0,0.0,0.0,0.0,0.0,0.0,0.0,0.0,0.0,0.0,-1.6893,-2.0088,-2.1739,-2.1765,-2.0224,-1.9997,-1.8427,0.0,0.0,0.0,0.0,0.0,0.0,0.0,0.0,0.0,0.0,0.0,0.0,0.0,0.0,0.0,0.0,0.0,0.0,0.0,0.0,0.0,0.0,0.0,0.0,0.0,0.0,0.0,0.0,0.0,0.0,0.0,0.0,0.0,0.0,0.0,0.0,0.0,0.0,0.0,0.0,0.0,0.0,0.0,0.0,0.0,0.0,0.0,0.0,0.0,0.0,0.0,0.0,0.0,0.0,0.0,0.0,0.0,0.0,0.0,0.0,0.0,0.0,0.0,0.0,0.0,0.0,0.0,0.0,0.0,0.0,0.0,0.0,0.0,0.0,0.0,0.0,0.0,0.0,0.0,0.0,0.0,0.0,0.0,0.0,0.0,0.0,0.0,0.0,0.0,0.0,0.0,0.0,0.0,0.0,0.0,0.0,0.0,0.0,0.0,0.0,0.0,0.0,0.0,0.0,0.0,0.0,0.0,0.0,0.0,-1.854,-2.0188,-2.1355,-2.188,-2.0231,-1.911,0.0,0.0,0.0,0.0,0.0,0.0,0.0,0.0,0.0,0.0,0.0,0.0,0.0,0.0,0.0,0.0,0.0,0.0,0.0,0.0,0.0,0.0,0.0,0.0,0.0,0.0,0.0,0.0,0.0,0.0,0.0,0.0,0.0,0.0,0.0,0.0,0.0,0.0,0.0,0.0,0.0,0.0,0.0,0.0,0.0,0.0,0.0,0.0,0.0,0.0,0.0,0.0,0.0,0.0,0.0,0.0,0.0,0.0,0.0,0.0,0.0,0.0,0.0,0.0,0.0,0.0,0.0,0.0,0.0,0.0,0.0,0.0,0.0,0.0,0.0,0.0,0.0,0.0,0.0,0.0,0.0,0.0,0.0,0.0,0.0,0.0,0.0,0.0,0.0,0.0,0.0,0.0,0.0,0.0,0.0,0.0,0.0,0.0,0.0,0.0,0.0,0.0,0.0,0.0,0.0,0.0,0.0,0.0,0.0,-2.0165,-2.1445,-2.2364,-2.2786,-2.0932,-1.989,-1.9786,0.0,0.0,0.0,0.0,0.0,0.0,0.0,0.0,0.0,0.0,0.0,0.0,0.0,0.0,0.0,0.0,0.0,0.0,0.0,0.0,0.0,0.0,0.0,0.0,0.0,0.0,0.0,0.0,0.0,0.0,0.0,0.0,0.0,0.0,0.0,0.0,0.0,0.0,0.0,0.0,0.0,0.0,0.0,0.0,0.0,0.0,0.0,0.0,0.0,0.0,0.0,0.0,0.0,0.0,0.0,0.0,0.0,0.0,0.0,0.0,0.0,0.0,0.0,0.0,0.0,0.0,0.0,0.0,0.0,0.0,0.0,0.0,0.0,0.0,0.0,0.0,0.0,0.0,0.0,0.0,0.0,0.0,0.0,0.0,0.0,0.0,0.0,0.0,0.0,0.0,0.0,0.0,0.0,0.0,0.0,0.0,0.0,0.0,0.0,0.0,0.0,0.0,0.0,0.0,0.0,0.0,0.0,0.0,-2.4159,-2.5005,-2.4668,-2.3103,-2.2188,-2.0916,0.0,0.0,0.0,0.0,0.0,0.0,0.0,0.0,0.0,0.0,0.0,0.0,0.0,0.0,0.0,0.0,0.0,0.0,0.0,0.0,0.0,0.0,0.0,0.0,0.0,0.0,0.0,0.0,0.0,0.0,0.0,0.0,0.0,0.0,0.0,0.0,0.0,0.0,0.0,0.0,0.0,0.0,0.0,0.0,0.0,0.0,0.0,0.0,0.0,0.0,0.0,0.0,0.0,0.0,0.0,0.0,0.0,0.0,0.0,0.0,0.0,0.0,0.0,0.0,0.0,0.0,0.0,0.0,0.0,0.0,0.0,0.0,0.0,0.0,0.0,0.0,0.0,0.0,0.0,0.0,0.0,0.0,0.0,0.0,0.0,0.0,0.0,0.0,0.0,0.0,0.0,0.0,0.0,0.0,0.0,0.0,0.0,0.0,0.0,0.0,0.0,0.0,0.0,0.0,0.0,0.0,0.0,0.0,0.0,-2.4947,-2.6521,-2.6751,-2.564,-2.4755,-2.3244,0.0,0.0,0.0,0.0,0.0,0.0,0.0,0.0,0.0,0.0,0.0,0.0,0.0,0.0,0.0,0.0,0.0,0.0,0.0,0.0,0.0,0.0,0.0,0.0,0.0,0.0,0.0,0.0,0.0,0.0,0.0,0.0,0.0,0.0,0.0,0.0,0.0,0.0,0.0,0.0,0.0,0.0,0.0,0.0,0.0,0.0,0.0,0.0,0.0,0.0,0.0,0.0,0.0,0.0,0.0,0.0,0.0,0.0,0.0,0.0,0.0,0.0,0.0,0.0,0.0,0.0,0.0,0.0,0.0,0.0,0.0,0.0,0.0,0.0,0.0,0.0,0.0,0.0,0.0,0.0,0.0,0.0,0.0,0.0,0.0,0.0,0.0,0.0,0.0,0.0,0.0,0.0,0.0,0.0,0.0,0.0,0.0,0.0,0.0,0.0,0.0,0.0,0.0,0.0,0.0,0.0,0.0,0.0,-2.4369,-2.6387,-2.7854,-2.8326,-2.7794,-2.6592,-2.4937,0.0,0.0,0.0,0.0,0.0,0.0,0.0,0.0,0.0,0.0,0.0,0.0,0.0,0.0,0.0,0.0,0.0,0.0,0.0,0.0,0.0,0.0,0.0,0.0,0.0,0.0,0.0,0.0,0.0,0.0,0.0,0.0,0.0,0.0,0.0,0.0,0.0,0.0,0.0,0.0,0.0,0.0,0.0,0.0,0.0,0.0,0.0,0.0,0.0,0.0,0.0,0.0,0.0,0.0,0.0,0.0,0.0,0.0,0.0,0.0,0.0,0.0,0.0,0.0,0.0,0.0,0.0,0.0,0.0,0.0,0.0,0.0,0.0,0.0,0.0,0.0,0.0,0.0,0.0,0.0,0.0,0.0,0.0,0.0,0.0,0.0,0.0,0.0,0.0,0.0,0.0,0.0,0.0,0.0,0.0,0.0,0.0,0.0,0.0,0.0,0.0,0.0,0.0,0.0,0.0,0.0,0.0,0.0,-2.561,-2.795,-2.9002,-2.9525,-2.9484,-2.7856,-2.6157,0.0,0.0,0.0,0.0,0.0,0.0,0.0,0.0,0.0,0.0,0.0,0.0,0.0,0.0,0.0,0.0,0.0,0.0,0.0,0.0,0.0,0.0,0.0,0.0,0.0,0.0,0.0,0.0,0.0,0.0,0.0,0.0,0.0,0.0,0.0,0.0,0.0,0.0,0.0,0.0,0.0,0.0,0.0,0.0,0.0,0.0,0.0,0.0,0.0,0.0,0.0,0.0,0.0,0.0,0.0,0.0,0.0,0.0,0.0,0.0,0.0,0.0,0.0,0.0,0.0,0.0,0.0,0.0,0.0,0.0,0.0,0.0,0.0,0.0,0.0,0.0,0.0,0.0,0.0,0.0,0.0,0.0,0.0,0.0,0.0,0.0,0.0,0.0,0.0,0.0,0.0,0.0,0.0,0.0,0.0,0.0,0.0,0.0,0.0,0.0,0.0,0.0,0.0,0.0,0.0,0.0,0.0,0.0,-2.6796,-2.8076,-2.9627,-3.0412,-3.0426,-2.8732,-2.7034,0.0,0.0,0.0,0.0,0.0,0.0,0.0,0.0,0.0,0.0,0.0,0.0,0.0,0.0,0.0,0.0,0.0,0.0,0.0,0.0,0.0,0.0,0.0,0.0,0.0,0.0,0.0,0.0,0.0,0.0,0.0,0.0,0.0,0.0,0.0,0.0,0.0,0.0,0.0,0.0,0.0,0.0,0.0,0.0,0.0,0.0,0.0,0.0,-2.126,0.0,0.0,0.0,0.0,0.0,0.0,0.0,0.0,0.0,0.0,0.0,0.0,0.0,0.0,0.0,0.0,0.0,0.0,0.0,0.0,0.0,0.0,0.0,0.0,0.0,0.0,0.0,0.0,0.0,0.0,0.0,0.0,0.0,0.0,0.0,0.0,0.0,0.0,0.0,0.0,0.0,0.0,0.0,0.0,0.0,0.0,0.0,0.0,0.0,0.0,0.0,0.0,0.0,0.0,0.0,0.0,0.0,0.0,0.0,-2.7413,-2.873,-3.0096,-3.0778,-3.0742,-2.9492,-2.7988,0.0,0.0,0.0,0.0,0.0,0.0,0.0,0.0,0.0,0.0,0.0,0.0,0.0,0.0,0.0,0.0,0.0,0.0,0.0,0.0,0.0,0.0,0.0,0.0,0.0,0.0,0.0,0.0,0.0,0.0,0.0,0.0,0.0,0.0,0.0,0.0,0.0,0.0,0.0,0.0,0.0,0.0,0.0,0.0,0.0,0.0,0.0,0.0,0.0,0.0,0.0,0.0,0.0,0.0,0.0,0.0,0.0,0.0,0.0,0.0,0.0,0.0,0.0,0.0,0.0,0.0,0.0,0.0,0.0,0.0,0.0,0.0,0.0,0.0,0.0,0.0,0.0,0.0,0.0,0.0,0.0,0.0,0.0,0.0,0.0,0.0,0.0,0.0,0.0,0.0,0.0,0.0,0.0,0.0,0.0,0.0,0.0,0.0,0.0,0.0,0.0,0.0,0.0,0.0,0.0,0.0,0.0,-2.5658,-2.7676,-2.9453,-3.043,-3.0918,-3.0879,-3.0078,-2.8789,-2.7051,0.0,0.0,0.0,0.0,0.0,0.0,0.0,0.0,0.0,0.0,0.0,0.0,0.0,0.0,0.0,0.0,0.0,0.0,0.0,0.0,0.0,0.0,0.0,0.0,0.0,0.0,0.0,0.0,0.0,0.0,0.0,0.0,0.0,0.0,0.0,0.0,0.0,0.0,-1.9515,-2.1573,0.0,0.0,0.0,0.0,0.0,0.0,0.0,0.0,-2.282,0.0,0.0,0.0,0.0,0.0,0.0,0.0,0.0,0.0,0.0,0.0,0.0,0.0,0.0,0.0,0.0,0.0,0.0,0.0,0.0,0.0,0.0,0.0,0.0,0.0,0.0,0.0,0.0,0.0,0.0,0.0,0.0,0.0,0.0,0.0,0.0,0.0,0.0,0.0,0.0,0.0,0.0,0.0,0.0,0.0,0.0,0.0,0.0,0.0,0.0,0.0,0.0,0.0,0.0,0.0,0.0,-2.5139,-2.6321,-2.7773,-2.9531,-3.0449,-3.0918,-3.0879,-3.0059,-2.8789,-2.7031,0.0,0.0,0.0,0.0,0.0,0.0,0.0,0.0,0.0,0.0,0.0,0.0,0.0,0.0,0.0,0.0,0.0,0.0,0.0,0.0,0.0,0.0,0.0,0.0,0.0,0.0,0.0,0.0,0.0,0.0,0.0,0.0,0.0,0.0,0.0,0.0,0.0,0.0,0.0,-2.3178,-2.4225,0.0,0.0,0.0,0.0,0.0,0.0,0.0,0.0,-2.2897,0.0,0.0,0.0,0.0,0.0,0.0,0.0,0.0,0.0,0.0,0.0,0.0,0.0,0.0,0.0,0.0,0.0,0.0,0.0,0.0,0.0,0.0,0.0,0.0,0.0,0.0,0.0,0.0,0.0,0.0,0.0,0.0,0.0,0.0,0.0,0.0,0.0,0.0,0.0,0.0,0.0,0.0,0.0,0.0,0.0,0.0,0.0,0.0,0.0,0.0,0.0,0.0,0.0,0.0,0.0,-2.5488,-2.6924,-2.8457,-3.0215,-3.0684,-3.0918,-3.0879,-2.9609,-2.832,0.0,0.0,0.0,0.0,0.0,0.0,0.0,0.0,0.0,0.0,0.0,0.0,0.0,0.0,0.0,0.0,0.0,0.0,0.0,0.0,0.0,0.0,0.0,0.0,0.0,0.0,0.0,0.0,0.0,0.0,0.0,0.0,0.0,0.0,0.0,0.0,0.0,0.0,0.0,0.0,-2.3908,-2.487,-2.5245,0.0,0.0,0.0,0.0,0.0,0.0,-2.429,-2.3924,0.0,0.0,0.0,0.0,0.0,0.0,0.0,0.0,0.0,0.0,0.0,0.0,0.0,0.0,0.0,0.0,0.0,0.0,0.0,0.0,0.0,0.0,0.0,0.0,0.0,0.0,0.0,0.0,0.0,0.0,0.0,0.0,0.0,0.0,0.0,0.0,0.0,0.0,0.0,0.0,0.0,0.0,0.0,0.0,0.0,0.0,0.0,0.0,0.0,0.0,0.0,0.0,0.0,0.0,0.0,-2.5605,-2.7187,-2.8906,-3.0801,-3.0918,-3.0918,-3.0879,-2.9375,-2.7988,0.0,0.0,0.0,0.0,0.0,0.0,0.0,0.0,0.0,0.0,0.0,0.0,0.0,0.0,0.0,0.0,0.0,0.0,0.0,0.0,0.0,0.0,0.0,0.0,0.0,0.0,0.0,0.0,0.0,0.0,0.0,0.0,0.0,0.0,0.0,0.0,0.0,0.0,0.0,0.0,0.0,-2.5774,-2.5591,-2.6159,0.0,0.0,0.0,0.0,-2.614,-2.5974,0.0,0.0,0.0,0.0,0.0,0.0,0.0,0.0,0.0,0.0,0.0,0.0,0.0,0.0,0.0,0.0,0.0,0.0,0.0,0.0,0.0,0.0,0.0,0.0,0.0,0.0,0.0,0.0,0.0,0.0,0.0,0.0,0.0,0.0,0.0,0.0,0.0,0.0,0.0,0.0,0.0,0.0,0.0,0.0,0.0,0.0,0.0,0.0,0.0,0.0,0.0,0.0,0.0,0.0,0.0,0.0,-2.5547,-2.6641,-2.8379,-3.0762,-3.0918,-3.0918,-3.0898,-2.9961,-2.832,0.0,0.0,0.0,0.0,0.0,0.0,0.0,0.0,0.0,0.0,0.0,0.0,0.0,0.0,0.0,0.0,0.0,0.0,0.0,0.0,0.0,0.0,0.0,0.0,0.0,0.0,0.0,0.0,0.0,0.0,0.0,0.0,0.0,0.0,0.0,0.0,0.0,0.0,0.0,0.0,0.0,-2.7313,-2.6563,-2.6544,-2.6832,0.0,0.0,-2.7942,-2.8574,-2.9263,0.0,0.0,0.0,0.0,0.0,0.0,0.0,0.0,0.0,0.0,0.0,0.0,0.0,0.0,0.0,0.0,0.0,0.0,0.0,0.0,0.0,0.0,0.0,0.0,0.0,0.0,0.0,0.0,0.0,0.0,0.0,0.0,0.0,0.0,0.0,0.0,0.0,0.0,0.0,0.0,0.0,0.0,0.0,0.0,0.0,0.0,0.0,0.0,0.0,0.0,0.0,0.0,0.0,0.0,0.0,-2.1914,-2.5586,-2.7051,-2.8769,-3.082,-3.0918,-3.0918,-3.0918,-2.9101,-2.7363,0.0,0.0,0.0,0.0,0.0,0.0,0.0,0.0,0.0,0.0,0.0,0.0,0.0,0.0,0.0,0.0,0.0,0.0,0.0,0.0,0.0,0.0,0.0,0.0,0.0,0.0,0.0,0.0,0.0,0.0,0.0,0.0,0.0,0.0,0.0,0.0,0.0,0.0,0.0,0.0,0.0,0.0,-2.7448,-2.814,0.0,0.0,0.0,-2.9445,-2.9775,0.0,0.0,0.0,0.0,0.0,0.0,0.0,0.0,0.0,0.0,0.0,0.0,0.0,0.0,0.0,0.0,0.0,0.0,0.0,0.0,0.0,0.0,0.0,0.0,0.0,0.0,0.0,0.0,0.0,0.0,0.0,0.0,0.0,0.0,0.0,0.0,0.0,0.0,0.0,0.0,0.0,0.0,0.0,0.0,0.0,0.0,0.0,0.0,0.0,0.0,0.0,0.0,0.0,0.0,0.0,0.0,0.0,-2.5644,-2.7422,-2.9141,-3.082,-3.0918,-3.0918,-3.0859,-2.8574,0.0,0.0,0.0,0.0,0.0,0.0,0.0,0.0,0.0,0.0,0.0,0.0,0.0,0.0,0.0,0.0,0.0,0.0,0.0,0.0,0.0,0.0,0.0,0.0,0.0,0.0,0.0,-1.1521,0.0,0.0,0.0,0.0,0.0,0.0,0.0,0.0,0.0,0.0,0.0,0.0,0.0,0.0,-2.9198,-2.8602,-2.9794,-3.0564,0.0,0.0,-3.1025,-3.1025,-3.1391,-3.0898,0.0,0.0,0.0,0.0,0.0,0.0,0.0,0.0,0.0,0.0,0.0,0.0,0.0,0.0,0.0,0.0,0.0,0.0,0.0,0.0,0.0,0.0,0.0,0.0,0.0,0.0,0.0,0.0,0.0,0.0,0.0,0.0,0.0,0.0,0.0,0.0,0.0,0.0,0.0,0.0,0.0,0.0,0.0,0.0,0.0,0.0,0.0,0.0,0.0,0.0,0.0,0.0,0.0,0.0,0.0,-2.5625,-2.7422,-2.9141,-3.084,-3.0918,-3.0918,-3.0879,-2.916,-2.7402,0.0,0.0,0.0,0.0,0.0,0.0,0.0,0.0,0.0,0.0,0.0,0.0,0.0,0.0,0.0,0.0,0.0,0.0,0.0,0.0,0.0,0.0,0.0,0.0,0.0,0.0,0.0,0.0,0.0,0.0,0.0,0.0,0.0,0.0,0.0,0.0,0.0,0.0,0.0,0.0,0.0,-3.0283,-3.0225,-3.1025,-3.1852,0.0,0.0,-3.2748,-3.273,-3.4083,-3.3801,-2.9759,0.0,0.0,0.0,0.0,0.0,0.0,0.0,0.0,0.0,0.0,0.0,0.0,0.0,0.0,0.0,0.0,0.0,0.0,0.0,0.0,0.0,0.0,0.0,0.0,0.0,0.0,0.0,0.0,0.0,0.0,0.0,0.0,0.0,0.0,0.0,0.0,0.0,0.0,0.0,0.0,0.0,0.0,0.0,0.0,0.0,0.0,0.0,0.0,0.0,0.0,0.0,0.0,0.0,-2.2285,-2.5644,-2.7402,-2.9141,-3.082,-3.0918,-3.0918,-3.0898,-2.9199,-2.7734,0.0,0.0,0.0,0.0,0.0,0.0,0.0,0.0,0.0,0.0,0.0,0.0,0.0,0.0,0.0,0.0,0.0,0.0,0.0,0.0,0.0,0.0,0.0,0.0,0.0,0.0,0.0,0.0,-1.6061,-1.6946,-1.7491,0.0,0.0,0.0,0.0,0.0,0.0,0.0,0.0,0.0,0.0,-3.1391,-3.1872,-3.2718,0.0,0.0,-3.4263,-3.4692,-3.4635,-3.4762,-3.3986,-3.1283,-3.0277,0.0,0.0,0.0,0.0,0.0,0.0,0.0,0.0,0.0,0.0,0.0,0.0,0.0,0.0,0.0,0.0,0.0,0.0,0.0,0.0,0.0,0.0,0.0,0.0,0.0,0.0,0.0,0.0,0.0,0.0,0.0,0.0,0.0,0.0,0.0,0.0,0.0,0.0,0.0,0.0,0.0,0.0,0.0,0.0,0.0,0.0,0.0,0.0,0.0,0.0,0.0,0.0,-2.2676,-2.6055,-2.7812,-2.9394,-3.0879,-3.0918,-3.0918,-3.0879,-2.9453,-2.8164,0.0,0.0,0.0,0.0,0.0,0.0,0.0,0.0,0.0,0.0,0.0,0.0,0.0,0.0,0.0,0.0,0.0,0.0,0.0,0.0,0.0,0.0,0.0,0.0,0.0,0.0,0.0,0.0,-1.7369,-1.8138,-1.9261,0.0,0.0,0.0,0.0,0.0,0.0,0.0,0.0,0.0,0.0,-3.2391,-3.3218,-3.4103,-3.4815,-3.5079,-3.5481,-3.5835,-3.6064,-3.5609,-3.4582,-3.2634,0.0,0.0,0.0,0.0,0.0,0.0,0.0,0.0,0.0,0.0,0.0,0.0,0.0,0.0,0.0,0.0,0.0,0.0,0.0,0.0,0.0,0.0,0.0,0.0,0.0,0.0,0.0,-1.2949,0.0,0.0,-1.2969,0.0,0.0,0.0,0.0,0.0,0.0,0.0,0.0,0.0,0.0,0.0,0.0,0.0,0.0,0.0,0.0,0.0,0.0,0.0,0.0,0.0,0.0,-2.3555,-2.6914,-2.8672,-3.0,-3.0879,-3.0918,-3.0918,-3.0898,-3.0039,-2.875,-2.6992,0.0,0.0,0.0,0.0,0.0,0.0,0.0,0.0,0.0,0.0,0.0,0.0,0.0,0.0,0.0,0.0,0.0,0.0,0.0,0.0,0.0,0.0,0.0,0.0,0.0,0.0,-1.7619,-1.7715,-1.8427,0.0,0.0,0.0,0.0,0.0,0.0,0.0,0.0,0.0,0.0,-3.1941,-3.3378,-3.4173,-3.5084,-3.597,-3.6802,-3.6267,-3.6033,-3.6849,-3.6941,-3.6121,0.0,0.0,0.0,0.0,0.0,0.0,0.0,0.0,0.0,0.0,0.0,0.0,0.0,0.0,0.0,0.0,0.0,0.0,0.0,0.0,0.0,0.0,0.0,0.0,0.0,0.0,0.0,-1.8982,-1.7922,0.0,0.0,0.0,0.0,0.0,0.0,0.0,0.0,0.0,0.0,0.0,-2.6294,-2.6598,0.0,0.0,0.0,0.0,0.0,0.0,0.0,0.0,0.0,0.0,0.0,0.0,-2.4121,-2.6934,-2.8711,-3.0039,-3.0879,-3.0918,-3.0918,-3.0898,-3.0039,-2.8242,-2.5371,0.0,0.0,0.0,0.0,0.0,0.0,0.0,0.0,0.0,0.0,0.0,0.0,0.0,0.0,0.0,0.0,0.0,0.0,0.0,0.0,0.0,0.0,0.0,0.0,0.0,-1.7869,0.0,0.0,0.0,0.0,0.0,0.0,0.0,0.0,0.0,0.0,0.0,-2.9963,-3.1996,-3.3275,-3.4535,-3.5902,-3.6424,-3.6993,0.0,0.0,0.0,0.0,0.0,0.0,0.0,0.0,0.0,0.0,0.0,0.0,0.0,0.0,-3.6289,-3.1738,-2.9961,-2.9434,-3.0293,0.0,0.0,0.0,0.0,0.0,0.0,0.0,0.0,0.0,0.0,0.0,0.0,0.0,0.0,-2.2344,0.0,-2.0923,0.0,0.0,0.0,0.0,0.0,0.0,0.0,0.0,-2.6329,-2.7909,-2.9355,-2.9648,-2.9694,0.0,-2.8388,-2.5976,0.0,0.0,0.0,0.0,0.0,0.0,0.0,0.0,-2.5156,-2.7422,-2.916,-3.0332,-3.0879,-3.0918,-3.0918,-3.0898,-3.0059,-2.8398,-2.584,-2.4121,-2.2695,0.0,0.0,0.0,0.0,0.0,0.0,0.0,0.0,0.0,0.0,0.0,0.0,0.0,0.0,0.0,0.0,0.0,0.0,0.0,0.0,0.0,0.0,0.0,-1.9061,0.0,0.0,0.0,0.0,0.0,0.0,0.0,0.0,0.0,-2.8087,-3.0288,-3.2541,-3.4304,-3.528,-3.6253,-3.7337,0.0,0.0,0.0,0.0,0.0,0.0,0.0,-3.8984,-3.8711,-3.8691,-3.8672,-3.8652,-4.0547,-4.1777,-4.0898,0.0,0.0,-3.5351,-3.3496,-3.293,-3.3809,-3.3965,-3.4238,-3.5059,-3.5703,-3.6113,0.0,0.0,0.0,0.0,0.0,0.0,0.0,0.0,-2.4707,-2.4713,0.0,-2.3741,0.0,0.0,0.0,0.0,0.0,-2.4639,0.0,0.0,-2.9792,-3.1071,-3.1878,-3.125,-3.1289,-3.2067,-3.2106,-3.0801,-2.8223,-2.4258,0.0,0.0,0.0,0.0,0.0,0.0,-2.666,-2.8398,-3.0117,-3.0996,-3.1016,-3.0976,-3.0937,-3.0898,-3.0059,-2.9199,-2.832,-2.6621,-2.4922,-2.3242,-2.0781,0.0,0.0,0.0,0.0,0.0,0.0,0.0,0.0,0.0,0.0,0.0,0.0,0.0,0.0,0.0,0.0,0.0,0.0,0.0,0.0,-1.9331,0.0,0.0,0.0,0.0,0.0,0.0,0.0,0.0,0.0,0.0,-3.0992,-3.3002,-3.5193,-3.6824,0.0,0.0,0.0,0.0,-3.9297,-4.1035,-4.0566,-4.0625,-4.2168,-4.2383,-4.209,-4.1367,0.0,0.0,-4.1621,-4.2715,-4.3027,-4.0625,-4.1543,-4.2246,-4.1367,-3.8379,-3.6523,-3.7266,-3.7461,-3.7754,-3.8633,-3.9902,-4.0996,-3.0195,0.0,0.0,0.0,0.0,-2.8418,-2.918,-2.9961,-2.9863,-2.9506,-2.8863,-2.7361,0.0,0.0,0.0,0.0,0.0,0.0,-2.9165,-3.0816,-3.1921,-3.2927,-3.3821,-3.4233,-3.4235,-3.3939,-3.3961,-3.2973,-3.1094,-2.9863,-2.7246,-2.3398,0.0,0.0,0.0,0.0,-2.9023,-3.0176,-3.1816,-3.2676,-3.2676,-3.2109,-3.1543,-3.0918,-3.0059,-2.9492,-2.9219,-2.7559,-2.6113,-2.498,-2.3125,0.0,0.0,0.0,0.0,0.0,0.0,0.0,0.0,0.0,0.0,0.0,0.0,0.0,0.0,0.0,0.0,0.0,0.0,0.0,-1.9369,-2.0558,-2.171,0.0,0.0,0.0,0.0,0.0,0.0,0.0,0.0,0.0,-3.5262,-3.5979,-3.6841,0.0,0.0,-3.8982,-4.0231,-4.0422,-4.1055,-4.2734,-4.2773,0.0,-4.3262,-4.2793,-4.2539,-4.291,-4.3906,-4.4668,-4.4824,-4.5234,-4.5312,-4.4531,-4.4336,-4.418,-4.3828,-4.166,-4.0117,-4.0723,-4.0937,-4.123,-4.207,-4.2695,-4.2988,-3.5039,-3.3047,-3.168,-3.1309,-3.166,-3.2187,-3.291,-3.3711,-3.3613,-3.332,-3.2773,-3.1339,-2.9962,-2.865,-2.7774,0.0,0.0,0.0,-3.2361,-3.401,-3.4556,-3.5293,-3.6191,-3.6719,-3.6543,-3.5762,-3.5713,-3.4858,-3.3203,-3.3203,-3.1269,-2.7617,0.0,0.0,-2.7812,-2.9668,-3.0879,-3.1445,-3.2734,-3.3379,-3.3379,-3.2617,-3.1934,-3.1406,-3.0566,-2.9961,-2.9609,-2.8594,-2.748,-2.625,-2.4922,-2.3164,0.0,0.0,0.0,0.0,0.0,0.0,0.0,0.0,0.0,0.0,0.0,-1.4244,0.0,0.0,0.0,0.0,-1.7284,-1.9503,-2.2053,-2.3097,0.0,0.0,0.0,0.0,0.0,0.0,0.0,-3.3388,-3.5755,-3.7631,-3.8711,-3.9377,-3.9867,-4.0098,-4.0391,-4.0996,-4.2051,0.0,-4.2676,-4.4023,-4.4219,-4.4336,-4.4648,-4.4297,-4.4141,-4.4629,-4.5137,-4.5644,-4.6172,-4.6289,-4.6289,-4.623,-4.5859,-4.5527,-4.5527,-4.4219,-4.3066,-4.2969,-4.3183,-4.3613,-4.4121,-4.4492,-4.4724,-3.9004,-3.873,-3.5488,-3.4473,-3.5,-3.5,-3.5469,-3.6191,-3.6211,-3.6211,-3.6152,-3.5293,-3.4434,-3.3555,-3.2832,0.0,-3.3555,-3.4434,-3.5703,-3.7305,-3.7324,-3.7754,-3.8574,-3.8594,-3.8184,-3.7402,-3.7402,-3.6562,-3.5078,-3.4941,-3.4141,-3.2617,-3.1738,-3.1211,-3.1055,-3.1934,-3.2402,-3.2422,-3.3203,-3.3574,-3.3496,-3.2715,-3.2266,-3.2187,-3.1367,-3.0488,-2.9648,-2.9512,-2.873,-2.709,-2.6172,-2.4961,-2.332,0.0,0.0,0.0,0.0,0.0,0.0,0.0,0.0,0.0,0.0,0.0,0.0,0.0,0.0,0.0,-2.0219,0.0,-2.5274,-2.6304,0.0,0.0,0.0,-3.0115,-3.1122,-3.3333,-3.5198,-3.6207,0.0,0.0,-4.1403,-4.2788,-4.3492,-4.2674,-4.3222,-4.373,-4.3808,-4.3769,-4.4121,-4.498,-4.5098,-4.5391,-4.5976,-4.6094,-4.6074,-4.6113,-4.6289,-4.6269,-4.6289,-4.6289,-4.6289,-4.6289,-4.6289,-4.6269,-4.6289,-4.6133,-4.5781,-4.4199,-4.4531,-4.5078,-4.5137,-4.5644,-4.6069,-4.248,-4.2363,-4.0879,-3.9277,-3.7695,-3.7676,-3.7793,-3.7969,-3.7988,-3.7969,-3.791,-3.707,-3.6191,-3.541,-3.5859,-3.6152,-3.6367,-3.7226,-3.7871,-3.8262,-3.8262,-3.8379,-3.8594,-3.8613,-3.8496,-3.8301,-3.8301,-3.8086,-3.7637,-3.7012,-3.6484,-3.6074,-3.5215,-3.3828,-3.2031,-3.3359,-3.4101,-3.4101,-3.4941,-3.5059,-3.4394,-3.3555,-3.2832,-3.2207,-3.1367,-3.0508,-2.9629,-2.8965,-2.8125,-2.7051,-2.6172,-2.5215,-2.416,-2.2109,0.0,0.0,0.0,0.0,0.0,0.0,0.0,0.0,0.0,-1.877,-1.5178,0.0,-2.1284,0.0,-2.1989,-2.4552,-2.7084,-2.7624,0.0,0.0,-3.1748,-3.2668,-3.5407,-3.5703,-3.6776,-3.9617,-4.0681,-4.1651,-4.2884,-4.3918,-4.4424,-4.4194,-4.3886,-4.3945,-4.457,-4.4687,-4.5019,-4.5781,-4.5957,-4.6055,-4.625,-4.6289,-4.6289,-4.6289,-4.6289,-4.6289,-4.6289,-4.6289,-4.6289,-4.6289,-4.6289,-4.6289,-4.6289,-4.6289,-4.6191,-4.5781,-4.5859,-4.5996,-4.5996,-4.6086,-4.6129,-4.3711,-4.3652,-4.3164,-4.2168,-4.082,-4.0078,-3.9766,-3.9766,-3.9746,-3.9531,-3.9121,-3.8262,-3.7617,-3.7246,-3.8066,-3.8457,-3.8516,-3.9375,-3.9766,-3.9766,-3.9766,-3.9766,-3.9746,-3.9766,-3.9551,-3.918,-3.918,-3.8984,-3.8594,-3.8105,-3.7891,-3.7851,-3.7012,-3.5879,-3.457,-3.5,-3.5273,-3.5293,-3.5742,-3.5762,-3.5273,-3.4043,-3.3008,-3.2207,-3.1348,-3.0293,-2.9062,-2.8945,-2.8301,-2.707,-2.6543,-2.5898,-2.5,-2.3398,-2.1875,0.0,0.0,0.0,0.0,0.0,0.0,0.0,0.0,0.0,0.0,0.0,-2.3304,-2.3141,-2.5446,-2.8025,-3.0601,-3.1287,-3.2659,-3.5292,-3.5247,-3.6113,-3.8769,-3.8613,-3.9316,-4.1953,-4.2583,-4.3121,-4.3968,-4.478,-4.5285,-4.5235,-4.491,-4.4863,-4.5371,-4.5488,-4.5683,-4.6211,-4.6289,-4.6278,-4.6229,-4.6212,-4.6203,-4.6147,-4.6117,-4.6131,-4.619,-4.6161,-4.615,-4.6268,-4.62,-4.6153,-4.6211,-4.6211,-4.6211,-4.6211,-4.625,-4.6289,-4.6289,-4.6192,-4.6084,-4.4043,-4.4023,-4.3926,-4.3848,-4.375,-4.2187,-4.1523,-4.1523,-4.1523,-4.1035,-4.0176,-3.9297,-3.8945,-3.8984,-3.9726,-4.0059,-4.0117,-4.0859,-4.1191,-4.1191,-4.1191,-4.1191,-4.1191,-4.1191,-4.0801,-4.0098,-4.0059,-3.9668,-3.8945,-3.8828,-3.8769,-3.873,-3.791,-3.7402,-3.7266,-3.6543,-3.6113,-3.6016,-3.6016,-3.6016,-3.5976,-3.4297,-3.3066,-3.2344,-3.1309,-2.9961,-2.8418,-2.9023,-2.8672,-2.7109,-2.709,-2.6758,-2.5898,-2.4375,-2.3086,0.0,-2.0625,0.0,0.0,0.0,0.0,0.0,0.0,0.0,0.0,-2.437,-2.5729,-2.7281,-2.9605,-3.2027,-3.4545,-3.5558,-3.6752,-3.8373,-3.8669,-3.9422,-4.1074,-4.1322,-4.1932,-4.3555,-4.4365,-4.478,-4.4857,-4.547,-4.5892,-4.5794,-4.575,-4.5757,-4.6002,-4.6016,-4.6055,-4.6247,-4.6247,-4.6182,-4.6127,-4.6117,-4.6094,-4.5986,-4.5988,-4.6002,-4.6101,-4.6034,-4.6013,-4.6191,-4.6072,-4.5962,-4.6056,-4.6074,-4.6055,-4.6074,-4.6172,-4.6269,-4.6269,-4.6196,-4.6074,-4.582,-4.5723,-4.5058,-4.4746,-4.4668,-4.3652,-4.3223,-4.3223,-4.3223,-4.2734,-4.1875,-4.1055,-4.0703,-4.0723,-4.0879,-4.0957,-4.0957,-4.1133,-4.1191,-4.1191,-4.1191,-4.1191,-4.1191,-4.1191,-4.1113,-4.0976,-4.0937,-4.0879,-4.0703,-4.0,-3.9648,-3.9629,-3.8789,-3.8008,-3.7344,0.0,0.0,0.0,-3.6016,-3.6016,-3.5937,-3.4316,-3.332,-3.3125,-3.1016,0.0,-2.8379,-2.8398,-2.8008,-2.709,-2.7617,0.0,0.0,0.0,0.0,0.0,0.0,0.0,0.0,0.0,0.0,0.0,-2.6647,-2.6313,-2.6005,-2.8552,-3.072,-3.1782,-3.2968,-3.448,-3.647,-3.6829,-3.7666,-3.938,-3.9535,-4.0172,-4.1845,-4.1995,-4.2607,-4.4256,-4.4617,-4.4934,-4.549,-4.5738,-4.5776,-4.5699,-4.5661,-4.5693,-4.5844,-4.5911,-4.5955,-4.5981,-4.6001,-4.6014,-4.6101,-4.6108,-4.6143,-4.6201,-4.6236,-4.6225,-4.622,-4.6148,-4.6044,-4.6137,-4.6022,-4.589,-4.5945,-4.5935,-4.5947,-4.5929,-4.6055,-4.6172,-4.6269,-4.6191,-4.6092,-4.6289,-4.6269,-4.582,-4.5644,0.0,-4.5176,-4.498,-4.4922,-4.4082,-4.3457,-4.3027,-4.2598,-4.2441,-4.2422,-4.1992,-4.1777,-4.1777,-4.1387,-4.1191,-4.1191,-4.1191,-4.1191,-4.1191,-4.1191,-4.1191,-4.1191,-4.1191,-4.1191,-4.1172,-4.0762,-4.0527,-4.0527,-3.9668,-3.9023,-3.8574,-3.7734,-3.6875,-3.6016,-3.6016,-3.6016,-3.5957,-3.4707,-3.3652,-3.2793,-3.1562,0.0,0.0,0.0,0.0,0.0,0.0,0.0,0.0,0.0,0.0,-2.5742,-2.5644,-2.5767,-2.6087,-2.6468,-2.7577,-2.962,-3.0578,-3.0518,-2.9259,-3.1965,-3.3917,-3.4408,-3.5611,-3.6929,-3.8273,-3.8479,-3.9072,-4.0369,-4.0811,-4.1519,-4.2708,-4.3192,-4.3858,-4.4958,-4.5239,-4.5374,-4.568,-4.5699,-4.568,-4.5605,-4.5586,-4.5605,-4.568,-4.5781,-4.5854,-4.5906,-4.5964,-4.6014,-4.5998,-4.6052,-4.6085,-4.6111,-4.6087,-4.6134,-4.6177,-4.6047,-4.5978,-4.6056,-4.5916,-4.5766,-4.5883,-4.5873,-4.587,-4.591,-4.6024,-4.6125,-4.6191,-4.6133,-4.6113,-4.6289,-4.6289,-4.6289,-4.6289,-4.6289,-4.6289,-4.6289,-4.6191,0.0,0.0,0.0,-4.3769,-4.3711,-4.3652,-4.293,-4.2637,-4.2558,-4.1777,-4.1406,-4.1406,-4.1269,-4.1191,-4.1191,-4.1191,-4.1191,-4.1191,-4.1191,-4.1191,-4.1191,-4.1191,-4.1191,-4.1133,-4.0488,-4.0039,-3.9805,-3.8184,-3.6953,-3.6269,-3.6094,-3.6016,-3.5996,-3.5156,-3.4043,-3.2676,-3.2344,-3.1113,-2.8867,-2.9355,-2.9308,-2.8494,-2.8557,-2.8645,-2.8672,-2.873,-2.8748,-2.873,-2.881,-2.9124,-2.9709,-2.9819,-3.0516,-3.2045,-3.3641,-3.3949,-3.2546,-3.4654,-3.6153,-3.6447,-3.7784,-3.8981,-3.9871,-4.0043,-4.0447,-4.1286,-4.1914,-4.264,-4.3609,-4.4243,-4.4833,-4.5586,-4.5717,-4.5738,-4.5605,-4.5586,-4.5586,-4.5586,-4.5586,-4.5586,-4.5605,-4.5678,-4.5772,-4.583,-4.5902,-4.5962,-4.5931,-4.5959,-4.5997,-4.5918,-4.5944,-4.5968,-4.6041,-4.5949,-4.5929,-4.6059,-4.5853,-4.5757,-4.5834,-4.5853,-4.5834,-4.5873,-4.5988,-4.6123,-4.6113,-4.6113,-4.6133,-4.6289,-4.6289,-4.6289,-4.6289,-4.6289,-4.6289,-4.6289,-4.6211,-4.5254,-4.4824,-4.4766,-4.4023,-4.3711,-4.3691,-4.3574,-4.3516,-4.3457,-4.2637,-4.2226,-4.2187,-4.1523,-4.1191,-4.1191,-4.1191,-4.1191,-4.1191,-4.1191,-4.1191,-4.1191,-4.1191,-4.1191,-4.1191,-4.1074,-4.0625,-3.9824,-3.8164,-3.7226,-3.7109,-3.6367,-3.6016,-3.5996,-3.5156,-3.459,-3.4316,-3.2949,-3.168,-3.0508,-3.0449,-3.0092,-2.9371,-2.9908,-3.0353,-3.0508,-3.0527,-3.0485,-3.0409,-3.1058,-3.1474,-3.1472,-3.209,-3.2845,-3.3782,-3.4872,-3.5357,-3.5138,-3.6137,-3.7455,-3.8944,-3.9296,-3.9846,-4.0812,-4.0876,-4.1156,-4.1957,-4.2141,-4.2722,-4.416,-4.4376,-4.4739,-4.5528,-4.5605,-4.5624,-4.5605,-4.5586,-4.5586,-4.5586,-4.5586,-4.5586,-4.5605,-4.5624,-4.5642,-4.5642,-4.5661,-4.5712,-4.5815,-4.5827,-4.5873,-4.59,-4.5991,-4.6049,-4.6105,-4.6054,-4.6047,-4.6113,-4.596,-4.5851,-4.5834,-4.5853,-4.5849,-4.5847,-4.5989,-4.6087,-4.6113,-4.6172,-4.6269,-4.6289,-4.6289,-4.6289,-4.6289,-4.6289,-4.6289,-4.6289,-4.6269,-4.5898,-4.5703,-4.5664,-4.5293,-4.5117,-4.5058,-4.4609,-4.4394,-4.4375,-4.3496,-4.3105,-4.3047,-4.2226,-4.1836,-4.1797,-4.1406,-4.1191,-4.1191,-4.1191,-4.1191,-4.1191,-4.1191,-4.1191,-4.1191,-4.1191,-4.0781,-3.9902,-3.9101,-3.8242,-3.7305,-3.6445,-3.6016,-3.5996,-3.5605,-3.5195,-3.4726,-3.3897,-3.3103,-3.2265,-3.2073,-3.1875,-3.1561,-3.1899,-3.2102,-3.2195,-3.219,-3.219,-3.2109,-3.2378,-3.2744,-3.3128,-3.3942,-3.4576,-3.4968,-3.5925,-3.6698,-3.7084,-3.7584,-3.838,-3.9579,-4.0089,-4.0494,-4.0943,-4.1007,-4.1355,-4.2225,-4.2585,-4.3299,-4.4372,-4.4893,-4.5163,-4.5509,-4.5586,-4.5586,-4.5586,-4.5586,-4.5586,-4.5586,-4.5586,-4.5586,-4.5586,-4.5586,-4.5642,-4.5699,-4.5738,-4.5786,-4.5838,-4.5866,-4.5877,-4.5905,-4.5944,-4.6008,-4.6078,-4.6054,-4.6033,-4.6091,-4.5944,-4.5858,-4.5847,-4.5776,-4.5765,-4.5879,-4.5913,-4.5997,-4.6094,-4.6191,-4.6289,-4.6289,-4.6289,-4.6289,-4.6289,-4.6289,-4.6289,-4.6289,-4.6289,-4.6289,-4.6289,-4.6289,-4.6289,-4.6289,-4.623,-4.5586,-4.5293,-4.5176,-4.4394,-4.3984,-4.3887,-4.2891,-4.2383,-4.2305,-4.1582,-4.1191,-4.1191,-4.1191,-4.1191,-4.1191,-4.1191,-4.1191,-4.1191,-4.1191,-4.0859,-4.0195,-4.0,-3.9199,-3.7871,-3.6973,-3.6387,-3.6016,-3.6016,-3.5664,-3.5059,-3.4957,-3.452,-3.3746,-3.3575,-3.3451,-3.3304,-3.3285,-3.3392,-3.3591,-3.3579,-3.3667,-3.3769,-3.367,-3.3857,-3.4524,-3.5185,-3.5688,-3.5912,-3.6691,-3.7641,-3.8556,-3.8809,-3.9208,-3.9926,-4.0543,-4.0904,-4.0863,-4.1099,-4.1566,-4.2412,-4.3199,-4.3989,-4.4799,-4.5316,-4.5586,-4.5586,-4.5586,-4.5586,-4.5586,-4.5586,-4.5586,-4.5586,-4.5586,-4.5586,-4.5586,-4.5624,-4.5719,-4.5774,-4.5806,-4.58,-4.583,-4.5834,-4.5815,-4.5834,-4.5851,-4.5925,-4.6018,-4.5977,-4.6008,-4.6108,-4.6036,-4.5936,-4.5893,-4.5834,-4.5786,-4.5874,-4.5937,-4.5996,-4.6133,-4.623,-4.6289,-4.6289,-4.6289,-4.6289,-4.6289,-4.6289,-4.6289,-4.6289,-4.6289,-4.6289,-4.6289,-4.6289,-4.6289,-4.6289,-4.6289,-4.6191,-4.6133,-4.6074,-4.5273,-4.4883,-4.4687,-4.3164,-4.2402,-4.2363,-4.1582,-4.1191,-4.1191,-4.1191,-4.1191,-4.1191,-4.1191,-4.1191,-4.1191,-4.1191,-4.1152,-4.0976,-4.0312,-3.9766,-3.9473,-3.8633,-3.748,-3.6094,-3.6016,-3.5976,-3.5879,-3.5879,-3.5437,-3.4552,-3.4491,-3.4117,-3.3394,-3.3359,-3.3691,-3.4383,-3.4481,-3.4738,-3.5315,-3.532,-3.5378,-3.5378,-3.5526,-3.5925,-3.6701,-3.703,-3.7893,-3.9367,-3.9691,-4.0086,-4.0674,-4.0823,-4.0831,-4.085,-4.1441,-4.2168,-4.2955,-4.3824,-4.4703,-4.5336,-4.5547,-4.5586,-4.5586,-4.5605,-4.5586,-4.5605,-4.5624,-4.5605,-4.5605,-4.5605,-4.5605,-4.5605,-4.5738,-4.5796,-4.5786,-4.5725,-4.5648,-4.5665,-4.5624,-4.5661,-4.5661,-4.5738,-4.5819,-4.5924,-4.6006,-4.6111,-4.6163,-4.625,-4.6133,-4.6007,-4.5969,-4.5984,-4.5905,-4.5986,-4.6113,-4.625,-4.6269,-4.6289,-4.6289,-4.6289,-4.6289,-4.6289,-4.6289,-4.6289,-4.6289,-4.6289,-4.6289,-4.6289,-4.6289,-4.6289,-4.6289,-4.6289,-4.6289,-4.6289,-4.6269,-4.5937,-4.5781,-4.5605,-4.3984,-4.3183,-4.3047,-4.1797,-4.1191,-4.1191,-4.1191,-4.1191,-4.1191,-4.1191,-4.1191,-4.1191,-4.1191,-4.1172,-4.1066,-4.0717,-4.0254,-3.9648,-3.9298,-3.8325,-3.6867,-3.6651,-3.6426,-3.5996,-3.5937,-3.5813,-3.548,-3.5385,-3.5215,-3.4922,-3.4902,-3.504,-3.5341,-3.5299,-3.5339,-3.5584,-3.5565,-3.5545,-3.5507,-3.5603,-3.6026,-3.691,-3.7637,-3.8544,-3.9705,-4.034,-4.0769,-4.0922,-4.0955,-4.087,-4.0831,-4.1546,-4.2357,-4.3145,-4.3972,-4.4818,-4.5624,-4.5738,-4.5699,-4.5624,-4.5719,-4.5757,-4.5738,-4.5757,-4.5757,-4.5738,-4.5719,-4.5699,-4.5642,-4.5699,-4.5719,-4.5678,-4.5615,-4.5645,-4.5678,-4.5642,-4.5605,-4.5605,-4.5661,-4.5719,-4.5841,-4.5925,-4.603,-4.615,-4.6191,-4.6172,-4.6055,-4.5948,-4.5911,-4.5928,-4.6005,-4.6124,-4.6162,-4.6177,-4.6172,-4.6289,-4.6289,-4.6289,-4.6289,-4.6289,-4.6289,-4.6289,-4.6289,-4.6289,-4.6289,-4.6289,-4.6289,-4.6289,-4.6289,-4.6289,-4.6289,-4.6289,-4.6289,-4.6289,-4.6133,-4.4726,-4.3926,-4.3574,-4.2246,-4.1406,-4.123,-4.1191,-4.1191,-4.1191,-4.1191,-4.1191,-4.1191,-4.1172,-4.1097,-4.0995,-4.0972,-4.0598,-3.998,-3.9894,-3.9092,-3.7637,-3.7424,-3.6972,-3.6035,-3.5937,-3.5957,-3.6016,-3.595,-3.593,-3.5976,-3.5982,-3.5944,-3.583,-3.5738,-3.5641,-3.5584,-3.5545,-3.5526,-3.5526,-3.5853,-3.6446,-3.7344,-3.8346,-3.9336,-4.0156,-4.084,-4.1133,-4.1094,-4.1247,-4.1319,-4.1202,-4.1913,-4.2739,-4.3528,-4.4374,-4.5163,-4.5738,-4.5834,-4.5796,-4.5719,-4.5815,-4.5885,-4.5847,-4.5873,-4.5873,-4.5834,-4.5803,-4.5776,-4.5699,-4.568,-4.5661,-4.5605,-4.5622,-4.568,-4.5738,-4.568,-4.5605,-4.5586,-4.5605,-4.5661,-4.5776,-4.5854,-4.5947,-4.6094,-4.6094,-4.6094,-4.6074,-4.5963,-4.5911,-4.6048,-4.6113,-4.6133,-4.619,-4.6173,-4.6167,-4.6289,-4.6289,-4.6289,-4.6289,-4.6289,-4.6289,-4.6289,-4.6289,-4.6289,-4.6289,-4.6289,-4.6289,-4.6289,-4.6289,-4.6289,-4.6289,-4.6289,-4.6289,-4.6289,-4.6211,-4.5332,-4.4473,-4.3672,-4.2773,-4.1933,-4.125,-4.1191,-4.1191,-4.1191,-4.1191,-4.1191,-4.1191,-4.1074,-4.0996,-4.0968,-4.0877,-4.0752,-4.0588,-4.0646,-3.9858,-3.8343,-3.8246,-3.7561,-3.623,-3.5996,-3.5996,-3.6016,-3.5995,-3.5975,-3.5918,-3.5912,-3.5811,-3.5641,-3.5603,-3.5565,-3.5526,-3.5507,-3.5565,-3.5738,-3.6421,-3.7315,-3.8272,-3.9199,-4.0176,-4.0898,-4.1113,-4.1191,-4.1191,-4.1816,-4.2148,-4.2152,-4.2842,-4.3646,-4.4434,-4.5291,-4.5753,-4.5871,-4.589,-4.5892,-4.5853,-4.5899,-4.593,-4.592,-4.59,-4.592,-4.5901,-4.5847,-4.5811,-4.5796,-4.5776,-4.5738,-4.5661,-4.568,-4.5738,-4.5661,-4.5605,-4.5605,-4.5605,-4.5661,-4.5642,-4.5738,-4.5835,-4.594,-4.603,-4.6074,-4.6094,-4.6094,-4.6089,-4.608,-4.6113,-4.6113,-4.6133,-4.6191,-4.6259,-4.6255,-4.6289,-4.6289,-4.6289,-4.6289,-4.6289,-4.6289,-4.6289,-4.6289,-4.6289,-4.6289,-4.6289,-4.6289,-4.6289,-4.6289,-4.6289,-4.6289,-4.6289,-4.6289,-4.6289,-4.6191,-4.5391,-4.4531,-4.3672,-4.2812,-4.1973,-4.1308,-4.1191,-4.1191,-4.1172,-4.1124,-4.1065,-4.1055,-4.0937,-4.0854,-4.081,-4.0803,-4.0773,-4.0716,-4.0773,-4.0239,-3.9167,-3.8644,-3.7881,-3.6894,-3.6289,-3.6016,-3.6016,-3.5947,-3.5924,-3.5898,-3.5832,-3.5718,-3.5603,-3.5565,-3.5545,-3.5507,-3.5507,-3.5757,-3.6363,-3.6778,-3.7646,-3.9083,-3.9633,-4.0293,-4.0996,-4.1191,-4.1191,-4.1348,-4.1933,-4.2519,-4.3183,-4.3836,-4.4396,-4.4734,-4.5417,-4.591,-4.5899,-4.5974,-4.6007,-4.5938,-4.596,-4.605,-4.6113,-4.6172,-4.6131,-4.603,-4.5996,-4.593,-4.5831,-4.5815,-4.5757,-4.5661,-4.5642,-4.5661,-4.5605,-4.5586,-4.5605,-4.5699,-4.5738,-4.5738,-4.5813,-4.5853,-4.5951,-4.6005,-4.6034,-4.6127,-4.6152,-4.6191,-4.6191,-4.6133,-4.6133,-4.6152,-4.6172,-4.623,-4.6216,-4.6289,-4.6289,-4.6289,-4.6289,-4.6289,-4.6289,-4.6289,-4.6289,-4.6289,-4.6289,-4.6289,-4.6289,-4.6289,-4.6289,-4.6289,-4.6289,-4.6289,-4.6289,-4.6289,-4.625,-4.5703,-4.4824,-4.375,-4.3105,-4.2246,-4.1348,-4.1191,-4.1191,-4.1191,-4.1123,-4.1049,-4.1016,-4.0891,-4.0816,-4.0752,-4.0773,-4.0766,-4.0754,-4.0828,-4.0479,-3.9723,-3.9162,-3.8496,-3.7754,-3.7109,-3.6484,-3.6016,-3.592,-3.5847,-3.582,-3.5716,-3.5641,-3.5584,-3.5526,-3.5507,-3.5507,-3.5507,-3.5925,-3.6807,-3.723,-3.8104,-3.9602,-4.0137,-4.0605,-4.1133,-4.1191,-4.1191,-4.1387,-4.2226,-4.3125,-4.373,-4.4629,-4.5254,-4.528,-4.5727,-4.6014,-4.6027,-4.6114,-4.61,-4.6065,-4.6108,-4.6191,-4.6269,-4.6289,-4.625,-4.6152,-4.6133,-4.6016,-4.593,-4.5866,-4.5815,-4.5719,-4.5699,-4.5699,-4.5661,-4.5661,-4.568,-4.5738,-4.5776,-4.5813,-4.5844,-4.5885,-4.5926,-4.597,-4.6057,-4.6162,-4.623,-4.6289,-4.625,-4.6172,-4.6191,-4.623,-4.6211,-4.6172,-4.6191,-4.6289,-4.6289,-4.6289,-4.6289,-4.6289,-4.6289,-4.6289,-4.6289,-4.6289,-4.6289,-4.6289,-4.6289,-4.6289,-4.6289,-4.6289,-4.6289,-4.6289,-4.6289,-4.6289,-4.6269,-4.6152,-4.5234,-4.375,-4.3496,-4.2637,-4.125,-4.1191,-4.1191,-4.1191,-4.1172,-4.11,-4.101,-4.0977,-4.0893,-4.08,-4.0822,-4.0811,-4.082,-4.0918,-4.0586,-3.9844,-3.9746,-3.9355,-3.8652,-3.834,-3.75,-3.6052,-3.595,-3.588,-3.5637,-3.5611,-3.5565,-3.5526,-3.5507,-3.5526,-3.5603,-3.5565,-3.6059,-3.7058,-3.7891,-3.8789,-3.9883,-4.0684,-4.1094,-4.1172,-4.1191,-4.1191,-4.1406,-4.2598,-4.3672,-4.3906,-4.5156,-4.6133,-4.6269,-4.623,-4.625,-4.6269,-4.6289,-4.6289,-4.6269,-4.6269,-4.6289,-4.6289,-4.6269,-4.625,-4.623,-4.6172,-4.6094,-4.6055,-4.5979,-4.5908,-4.5868,-4.5813,-4.5776,-4.5738,-4.5719,-4.5757,-4.5776,-4.5796,-4.5849,-4.5885,-4.592,-4.5984,-4.6031,-4.6104,-4.6211,-4.625,-4.6289,-4.6289,-4.625,-4.6269,-4.6269,-4.625,-4.623,-4.625,-4.6289,-4.6289,-4.6289,-4.6289,-4.6289,-4.6289,-4.6289,-4.6289,-4.6289,-4.6289,-4.6289,-4.6289,-4.6289,-4.6289,-4.6289,-4.6289,-4.6289,-4.6289,-4.6289,-4.6211,-4.5703,-4.4863,-4.3789,-4.3066,-4.2246,-4.1367,-4.1191,-4.1191,-4.1191,-4.1113,-4.1023,-4.0978,-4.0892,-4.0843,-4.082,-4.0881,-4.0938,-4.0937,-4.0976,-4.084,-4.0547,-3.998,-3.9551,-3.9277,-3.8672,-3.7767,-3.6677,-3.6595,-3.6265,-3.5661,-3.5565,-3.5526,-3.5526,-3.5507,-3.5757,-3.6252,-3.6439,-3.7184,-3.8575,-3.9062,-3.9668,-4.0566,-4.1055,-4.1172,-4.1191,-4.1191,-4.1191,-4.1348,-4.2695,-4.3711,-4.3984,-4.5273,-4.623,-4.6289,-4.6289,-4.6289,-4.6289,-4.6289,-4.6289,-4.6289,-4.6289,-4.625,-4.6183,-4.6147,-4.6158,-4.6152,-4.6113,-4.6094,-4.6094,-4.6074,-4.5994,-4.591,-4.5874,-4.5873,-4.5858,-4.5831,-4.5815,-4.5834,-4.5853,-4.5926,-4.5951,-4.6002,-4.6061,-4.6109,-4.6183,-4.623,-4.6269,-4.6289,-4.6289,-4.6289,-4.6289,-4.6289,-4.6289,-4.6289,-4.6289,-4.6289,-4.6289,-4.6289,-4.6289,-4.6289,-4.6289,-4.6289,-4.6289,-4.6289,-4.6289,-4.6289,-4.6289,-4.6289,-4.6289,-4.6289,-4.6289,-4.6289,-4.6289,-4.6289,-4.625,-4.5781,-4.4863,-4.3672,-4.248,-4.1738,-4.1289,-4.1191,-4.1191,-4.1191,-4.1113,-4.1035,-4.0996,-4.0961,-4.0935,-4.0898,-4.0957,-4.0991,-4.0994,-4.0957,-4.0918,-4.0801,-4.0343,-4.0051,-3.9961,-3.9473,-3.8762,-3.792,-3.781,-3.7242,-3.6257,-3.5968,-3.6078,-3.6329,-3.618,-3.6334,-3.7055,-3.7409,-3.8061,-3.9421,-3.9609,-4.0137,-4.0976,-4.1191,-4.1191,-4.1191,-4.1191,-4.1191,-4.1406,-4.2695,-4.3711,-4.3945,-4.5273,-4.6211,-4.6289,-4.6289,-4.6289,-4.6289,-4.6289,-4.6269,-4.625,-4.6211,-4.6163,-4.6067,-4.6034,-4.6042,-4.6037,-4.6026,-4.6067,-4.6074,-4.6113,-4.6055,-4.6016,-4.6008,-4.6007,-4.5997,-4.5938,-4.5907,-4.5911,-4.5911,-4.6016,-4.6095,-4.6135,-4.6169,-4.6181,-4.6245,-4.625,-4.6289,-4.6289,-4.6289,-4.6289,-4.6289,-4.6289,-4.6289,-4.6289,-4.6289,-4.6289,-4.6289,-4.6289,-4.6289,-4.6289,-4.6289,-4.6289,-4.6289,-4.6289,-4.6289,-4.6289,-4.6289,-4.6289,-4.6289,-4.6289,-4.6289,-4.6269,-4.6113,-4.6094,-4.6074,-4.582,-4.4922,-4.3242,-4.1933,-4.1328,-4.1211,-4.1191,-4.1191,-4.1191,-4.1172,-4.1133,-4.1035,-4.1113,-4.1133,-4.1016,-4.0996,-4.0979,-4.0971,-4.0868,-4.081,-4.0771,-4.0757,-4.0718,-4.0694,-4.054,-4.001,-3.9084,-3.8825,-3.8262,-3.7012,-3.6776,-3.7074,-3.7607,-3.7199,-3.7224,-3.8141,-3.8262,-3.8829,-3.9551,-3.9941,-4.0273,-4.1074,-4.1191,-4.1191,-4.1191,-4.1191,-4.1191,-4.1289,-4.2598,-4.3594,-4.3945,-4.5137,-4.6055,-4.6289,-4.6289,-4.6289,-4.6289,-4.6289,-4.625,-4.6164,-4.6097,-4.6044,-4.5922,-4.5916,-4.5918,-4.5928,-4.5929,-4.5979,-4.6094,-4.6152,-4.6191,-4.6172,-4.6133,-4.6133,-4.6113,-4.6018,-4.5987,-4.6046,-4.6025,-4.606,-4.6166,-4.6215,-4.625,-4.6269,-4.6269,-4.6289,-4.6289,-4.6289,-4.6289,-4.6289,-4.6289,-4.6289,-4.6289,-4.6289,-4.6289,-4.6289,-4.6289,-4.6289,-4.6289,-4.6289,-4.6289,-4.6289,-4.6289,-4.6289,-4.6289,-4.6289,-4.6289,-4.6289,-4.6289,-4.6289,-4.6289,-4.6113,-4.5605,-4.5351,-4.5234,-4.4648,-4.3457,-4.2129,-4.1465,-4.1191,-4.1191,-4.1191,-4.1191,-4.1191,-4.1191,-4.1172,-4.1152,-4.1152,-4.1172,-4.1133,-4.1035,-4.0996,-4.0968,-4.0812,-4.0716,-4.0696,-4.0639,-4.06,-4.0566,-4.0566,-3.9838,-3.8562,-3.8362,-3.8204,-3.7762,-3.7661,-3.7728,-3.8045,-3.782,-3.8093,-3.8902,-3.9215,-3.9611,-4.041,-4.0703,-4.0937,-4.1133,-4.1191,-4.1191,-4.1191,-4.1191,-4.1191,-4.1367,-4.2187,-4.3027,-4.3691,-4.4746,-4.5566,-4.6191,-4.6289,-4.6289,-4.6289,-4.6289,-4.6245,-4.6143,-4.61,-4.5995,-4.5873,-4.5819,-4.5853,-4.5871,-4.5893,-4.5955,-4.6114,-4.6191,-4.623,-4.625,-4.625,-4.625,-4.623,-4.6133,-4.6098,-4.6175,-4.6157,-4.607,-4.6171,-4.6216,-4.6269,-4.6289,-4.6289,-4.6289,-4.6289,-4.6289,-4.6289,-4.6289,-4.6289,-4.6289,-4.6289,-4.6289,-4.6289,-4.6289,-4.6289,-4.6289,-4.6289,-4.6289,-4.6289,-4.6289,-4.6289,-4.623,-4.625,-4.6289,-4.625,-4.625,-4.6269,-4.5918,-4.5762,-4.5644,-4.4844,-4.4473,-4.4316,-4.3594,-4.2676,-4.1816,-4.1445,-4.1191,-4.1191,-4.1191,-4.1191,-4.1191,-4.1191,-4.1191,-4.1172,-4.1133,-4.1094,-4.1094,-4.0957,-4.0872,-4.0861,-4.0716,-4.062,-4.06,-4.0546,-4.0508,-4.0489,-4.0489,-3.9931,-3.9157,-3.905,-3.8919,-3.8631,-3.8569,-3.8681,-3.8979,-3.8704,-3.9,-3.9888,-4.0072,-4.0418,-4.0918,-4.1152,-4.1191,-4.1191,-4.1191,-4.1191,-4.1191,-4.1191,-4.1191,-4.1289,-4.1953,-4.2754,-4.3672,-4.4785,-4.5683,-4.6191,-4.6289,-4.6289,-4.6289,-4.625,-4.6152,-4.6061,-4.5989,-4.5911,-4.5738,-4.5738,-4.5776,-4.5815,-4.5853,-4.5982,-4.6121,-4.6183,-4.625,-4.6269,-4.6289,-4.6289,-4.6269,-4.6211,-4.6172,-4.6248,-4.624,-4.6169,-4.6191,-4.625,-4.6269,-4.6289,-4.6289,-4.6289,-4.6289,-4.6289,-4.6289,-4.6289,-4.6289,-4.6289,-4.6289,-4.6289,-4.6289,-4.6289,-4.6289,-4.6289,-4.6289,-4.6289,-4.6289,-4.6289,-4.6269,-4.6035,-4.5996,-4.6016,-4.5898,-4.5683,-4.5976,-4.5117,-4.4863,-4.4824,-4.3965,-4.3535,-4.3183,-4.2637,-4.2109,-4.1992,-4.1445,-4.1211,-4.1191,-4.1191,-4.1191,-4.1191,-4.1191,-4.1191,-4.1133,-4.1035,-4.0996,-4.0957,-4.0801,-4.0723,-4.0693,-4.062,-4.0527,-4.0527,-4.0508,-4.0489,-4.0469,-4.0258,-4.0346,-4.0241,-4.0226,-3.9935,-3.9438,-3.9419,-3.9723,-4.0219,-3.9723,-3.9877,-4.0487,-4.0682,-4.0842,-4.1133,-4.1191,-4.1191,-4.1191,-4.1191,-4.1191,-4.1191,-4.1191,-4.1191,-4.1191,-4.1933,-4.2832,-4.3945,-4.5332,-4.6055,-4.6269,-4.6269,-4.6269,-4.625,-4.6172,-4.6061,-4.5938,-4.5873,-4.5772,-4.568,-4.5661,-4.5699,-4.5853,-4.5905,-4.6017,-4.6151,-4.6208,-4.6253,-4.6289,-4.6289,-4.6289,-4.6289,-4.6289,-4.6269,-4.6289,-4.6293,-4.625,-4.625,-4.6289,-4.6289,-4.6289,-4.6289,-4.6289,-4.6289,-4.6289,-4.6289,-4.6289,-4.6289,-4.6289,-4.6289,-4.6289,-4.6289,-4.6289,-4.6289,-4.6289,-4.6289,-4.6289,-4.6289,-4.6269,-4.6191,-4.5508,-4.5245,-4.5114,-4.4551,-4.4316,-4.4297,-4.4121,-4.3965,-4.3867,-4.3086,-4.2383,-4.1719,-4.1601,-4.1465,-4.1465,-4.125,-4.1211,-4.1191,-4.1191,-4.1191,-4.1191,-4.1191,-4.1133,-4.1055,-4.1018,-4.0963,-4.0831,-4.0749,-4.072,-4.0693,-4.0566,-4.0508,-4.0489,-4.0489,-4.0489,-4.045,-3.9954,-3.9969,-4.0235,-3.9873,-3.9781,-4.0123,-4.0219,-4.0277,-4.0412,-4.0315,-4.0392,-4.0675,-4.0826,-4.0928,-4.1133,-4.1191,-4.1191,-4.1191,-4.1191,-4.1191,-4.1191,-4.1191,-4.1191,-4.1328,-4.1953,-4.3008,-4.4473,-4.5644,-4.6152,-4.6208,-4.6174,-4.6163,-4.6152,-4.6211,-4.6152,-4.6077,-4.602,-4.5967,-4.5794,-4.5796,-4.5834,-4.5892,-4.5986,-4.608,-4.6172,-4.623,-4.6269,-4.6289,-4.6289,-4.6289,-4.6289,-4.6289,-4.6289,-4.6289,-4.6289,-4.6289,-4.6289,-4.6289,-4.6289,-4.6289,-4.6289,-4.6289,-4.6289,-4.6289,-4.6289,-4.6289,-4.6289,-4.6289,-4.6289,-4.6289,-4.6289,-4.5469,-4.5098,-4.5078,-4.5078,-4.5078,-4.5078,-4.5078,-4.5,-4.459,-4.4367,-4.4299,-4.3818,-4.3672,-4.3652,-4.3281,-4.3086,-4.2891,-4.2246,-4.1641,-4.1289,-4.1211,-4.1211,-4.1191,-4.1191,-4.1191,-4.1191,-4.1191,-4.1191,-4.1191,-4.1191,-4.1133,-4.1016,-4.0955,-4.0863,-4.0754,-4.0677,-4.0596,-4.06,-4.0546,-4.0489,-4.0489,-4.0489,-4.0489,-4.0469,-4.0104,-4.0123,-4.0392,-4.0142,-4.0142,-4.0412,-4.0546,-4.0585,-4.06,-4.06,-4.0677,-4.0838,-4.0893,-4.0991,-4.1152,-4.1191,-4.1191,-4.1191,-4.1191,-4.1191,-4.1191,-4.1191,-4.1191,-4.1367,-4.2012,-4.3086,-4.4785,-4.5781,-4.6172,-4.6216,-4.6192,-4.6187,-4.6191,-4.616,-4.6126,-4.6068,-4.6013,-4.5958,-4.5898,-4.5935,-4.5967,-4.5986,-4.6015,-4.6113,-4.6211,-4.6269,-4.6269,-4.6289,-4.6289,-4.6289,-4.6289,-4.6289,-4.6289,-4.6289,-4.6289,-4.6289,-4.6289,-4.6289,-4.6289,-4.6289,-4.6289,-4.6289,-4.6289,-4.6289,-4.6289,-4.6289,-4.6289,-4.6289,-4.6289,-4.6289,-4.6289,-4.4375,-4.3711,-4.3711,-4.3711,-4.3711,-4.375,-4.3808,-4.375,-4.3496,-4.3476,-4.3418,-4.334,-4.3027,-4.3086,-4.2519,-4.2226,-4.2031,-4.166,-4.123,-4.1211,-4.1191,-4.1191,-4.1191,-4.1191,-4.1191,-4.1191,-4.1191,-4.1191,-4.1191,-4.1191,-4.1094,-4.0976,-4.0839,-4.0746,-4.0658,-4.0566,-4.0508,-4.0508,-4.0508,-4.0489,-4.0489,-4.0489,-4.0489,-4.0469,-4.045,-4.0392,-4.0489,-4.0412,-4.0469,-4.0527,-4.0658,-4.0716,-4.0746,-4.0745,-4.081,-4.0978,-4.0971,-4.1063,-4.1172,-4.1191,-4.1191,-4.1191,-4.1191,-4.1191,-4.1191,-4.1191,-4.1191,-4.1543,-4.2148,-4.3418,-4.498,-4.5859,-4.623,-4.625,-4.6251,-4.6274,-4.6233,-4.6052,-4.6036,-4.6113,-4.6113,-4.6055,-4.6006,-4.5998,-4.604,-4.6095,-4.6117,-4.6152,-4.625,-4.6289,-4.6289,-4.6289,-4.6289,-4.6289,-4.6289,-4.6289,-4.6289,-4.6289,-4.6289,-4.6289,-4.6289,-4.6289,-4.6289,-4.6289,-4.6289,-4.6289,-4.6289,-4.6289,-4.6289,-4.6289,-4.6289,-4.6289,-4.6289,-4.6289,-4.6289,-4.3828,-4.3711,-4.3711,-4.3691,-4.3691,-4.3672,-4.3594,-4.3574,-4.2871,-4.2617,-4.2519,-4.1933,-4.1719,-4.1641,-4.1543,-4.1406,-4.1426,-4.1269,-4.1191,-4.1191,-4.1191,-4.1191,-4.1172,-4.1152,-4.1172,-4.1191,-4.1191,-4.1191,-4.1172,-4.1094,-4.0996,-4.0859,-4.078,-4.0673,-4.0566,-4.0489,-4.0489,-4.0489,-4.0489,-4.0489,-4.0489,-4.0508,-4.0508,-4.0508,-4.0527,-4.0527,-4.0508,-4.0508,-4.0546,-4.0658,-4.0677,-4.0773,-4.0866,-4.0852,-4.0879,-4.0964,-4.1013,-4.1072,-4.1172,-4.1191,-4.1191,-4.1191,-4.1191,-4.1191,-4.1191,-4.123,-4.1308,-4.1758,-4.2715,-4.4141,-4.5859,-4.6211,-4.6211,-4.6191,-4.6172,-4.6152,-4.6153,-4.6134,-4.6102,-4.6211,-4.6211,-4.6191,-4.6133,-4.6113,-4.6149,-4.6183,-4.6182,-4.6211,-4.6269,-4.6289,-4.6289,-4.6289,-4.6289,-4.6289,-4.6289,-4.6289,-4.6289,-4.6289,-4.6289,-4.6289,-4.6289,-4.6289,-4.6289,-4.6289,-4.6289,-4.6289,-4.6289,-4.6289,-4.6289,-4.6289,-4.6289,-4.6289,-4.6289,-4.6289,-4.6289,-4.2773,-4.2422,-4.2422,-4.2402,-4.2402,-4.2402,-4.2402,-4.2363,-4.1973,-4.1732,-4.1584,-4.1249,-4.1096,-4.1094,-4.1094,-4.1133,-4.1191,-4.1191,-4.1191,-4.1191,-4.1133,-4.1101,-4.1071,-4.1035,-4.1055,-4.1074,-4.1094,-4.1152,-4.1191,-4.1055,-4.0928,-4.08,-4.0731,-4.0639,-4.0508,-4.0489,-4.0489,-4.0489,-4.0489,-4.0489,-4.0508,-4.0566,-4.06,-4.06,-4.0635,-4.0658,-4.0658,-4.0658,-4.0696,-4.0754,-4.0831,-4.0908,-4.0965,-4.1016,-4.1035,-4.1074,-4.1094,-4.1133,-4.1172,-4.1191,-4.1191,-4.1191,-4.1191,-4.1191,-4.1191,-4.125,-4.1543,-4.2441,-4.2969,-4.4414,-4.6074,-4.6269,-4.6269,-4.6211,-4.6191,-4.6211,-4.6209,-4.6208,-4.624,-4.6289,-4.6269,-4.625,-4.625,-4.623,-4.625,-4.6264,-4.6269,-4.6269,-4.6289,-4.6289,-4.6289,-4.6289,-4.6289,-4.6289,-4.6289,-4.6289,-4.6289,-4.6289,-4.6289,-4.6289,-4.6289,-4.6289,-4.6289,-4.6289,-4.6289,-4.6289,-4.6289,-4.6289,-4.6289,-4.6289,-4.6289,-4.6289,-4.6289,-4.6289,-4.6289,-4.1777,-4.1191,-4.1191,-4.1191,-4.1191,-4.1211,-4.125,-4.1191,-4.1211,-4.1148,-4.0988,-4.0973,-4.0983,-4.0996,-4.1055,-4.1094,-4.1191,-4.1191,-4.1191,-4.1172,-4.1055,-4.1003,-4.0958,-4.0911,-4.0931,-4.1016,-4.1055,-4.1074,-4.1094,-4.1005,-4.0887,-4.0771,-4.0708,-4.0639,-4.0508,-4.0489,-4.0489,-4.0489,-4.0489,-4.0489,-4.0527,-4.0639,-4.0703,-4.0713,-4.0784,-4.0769,-4.0776,-4.0768,-4.0796,-4.0854,-4.0936,-4.1016,-4.1067,-4.1148,-4.1191,-4.1191,-4.1191,-4.1191,-4.1191,-4.1191,-4.1191,-4.1191,-4.1191,-4.1191,-4.1191,-4.1348,-4.1836,-4.3281,-4.375,-4.4433,-4.5937,-4.6289,-4.6289,-4.6289,-4.6289,-4.629,-4.6279,-4.6274,-4.6266,-4.6289,-4.6289,-4.6289,-4.6269,-4.6269,-4.6289,-4.6289,-4.6289,-4.6289,-4.6289,-4.6289,-4.6289,-4.6289,-4.6289,-4.6289,-4.6289,-4.6289,-4.6289,-4.6289,-4.6289,-4.6289,-4.6289,-4.6289,-4.6289,-4.6289,-4.6289,-4.6289,-4.6289,-4.6289,-4.6289,-4.6289,-4.6289,-4.6289,-4.6289,-4.6289,-4.6289,-4.1289,-4.1191,-4.1191,-4.1191,-4.1191,-4.1191,-4.1191,-4.1172,-4.1074,-4.1035,-4.0947,-4.087,-4.0887,-4.0973,-4.113,-4.1191,-4.1191,-4.1172,-4.1172,-4.1152,-4.1035,-4.0959,-4.0974,-4.0981,-4.0949,-4.1003,-4.1085,-4.1094,-4.1035,-4.0916,-4.0808,-4.0716,-4.062,-4.0527,-4.0508,-4.0489,-4.0489,-4.0489,-4.0489,-4.0489,-4.0508,-4.062,-4.069,-4.0735,-4.0781,-4.082,-4.084,-4.0859,-4.0879,-4.0957,-4.0996,-4.1074,-4.1149,-4.1187,-4.1191,-4.1191,-4.1191,-4.1191,-4.1191,-4.1191,-4.1191,-4.1191,-4.1191,-4.1191,-4.1191,-4.1289,-4.1894,-4.3496,-4.3711,-4.4492,-4.5859,-4.6269,-4.6289,-4.6289,-4.6289,-4.6289,-4.6289,-4.6289,-4.6289,-4.6289,-4.6289,-4.6289,-4.6289,-4.6289,-4.6289,-4.6289,-4.6289,-4.6289,-4.6289,-4.6289,-4.6289,-4.6289,-4.6289,-4.6289,-4.6289,-4.6289,-4.6289,-4.6289,-4.6289,-4.6289,-4.6289,-4.6289,-4.6289,-4.6289,-4.6289,-4.6289,-4.6289,-4.6289,-4.6289,-4.6289,-4.6289,-4.6289,-4.6289,-4.6289,-4.6289,-4.1191,-4.1191,-4.1191,-4.1191,-4.1191,-4.1191,-4.1152,-4.1094,-4.1033,-4.0931,-4.0819,-4.0773,-4.08,-4.0916,-4.1091,-4.1191,-4.1172,-4.1113,-4.1074,-4.1055,-4.0918,-4.085,-4.0855,-4.085,-4.087,-4.0977,-4.0973,-4.0937,-4.0889,-4.084,-4.0754,-4.0677,-4.0566,-4.0508,-4.0489,-4.0489,-4.0489,-4.0489,-4.0489,-4.0489,-4.0527,-4.0626,-4.0721,-4.0762,-4.0859,-4.0937,-4.0996,-4.1035,-4.1055,-4.1113,-4.1113,-4.1133,-4.1189,-4.1191,-4.1191,-4.1191,-4.1191,-4.1191,-4.1191,-4.1191,-4.1191,-4.1191,-4.1191,-4.1191,-4.1191,-4.1269,-4.1894,-4.3555,-4.3691,-4.4531,-4.582,-4.625,-4.6289,-4.6289,-4.6289,-4.6289,-4.6289,-4.6289,-4.6289,-4.6289,-4.6289,-4.6289,-4.6289,-4.6289,-4.6289,-4.6289,-4.6289,-4.6289,-4.6289,-4.6289,-4.6289,-4.6289,-4.6289,-4.6289,-4.6289,-4.6289,-4.6289,-4.6289,-4.6289,-4.6289,-4.6289,-4.6289,-4.6289,-4.6289,-4.6289,-4.6289,-4.6289,-4.6289,-4.6289,-4.6289,-4.6289,-4.6289,-4.6289,-4.6289,-4.6289,-4.1191,-4.1191,-4.1191,-4.1172,-4.1152,-4.1152,-4.1074,-4.0957,-4.0915,-4.0847,-4.0754,-4.0716,-4.0777,-4.0876,-4.1074,-4.1172,-4.1133,-4.1035,-4.0976,-4.0896,-4.0803,-4.076,-4.077,-4.0754,-4.0795,-4.0943,-4.087,-4.081,-4.0799,-4.0757,-4.0716,-4.0658,-4.0546,-4.0508,-4.0489,-4.0489,-4.0489,-4.0489,-4.0489,-4.0508,-4.0566,-4.0677,-4.0765,-4.0875,-4.0976,-4.1094,-4.1172,-4.1191,-4.1191,-4.1191,-4.1191,-4.1191,-4.1191,-4.1191,-4.1191,-4.1191,-4.1191,-4.1191,-4.1191,-4.1191,-4.1191,-4.1191,-4.1191,-4.1172,-4.1133,-4.1188,-4.166,-4.3125,-4.3594,-4.4453,-4.5547,-4.6094,-4.6289,-4.6289,-4.6289,-4.6289,-4.6289,-4.6289,-4.6289,-4.6289,-4.6289,-4.6289,-4.6289,-4.6289,-4.6289,-4.6289,-4.6289,-4.6289,-4.6289,-4.6289,-4.6289,-4.6289,-4.6289,-4.6289,-4.6289,-4.6289,-4.6289,-4.6289,-4.6289,-4.6289,-4.6289,-4.6289,-4.6289,-4.6289,-4.6289,-4.6289,-4.6289,-4.6289,-4.6289,-4.6289,-4.6289,-4.6289,-4.6289,-4.6289,-4.6289,-4.1191,-4.1191,-4.1191,-4.1113,-4.1016,-4.0996,-4.0937,-4.082,-4.0765,-4.0735,-4.0716,-4.0754,-4.0862,-4.0989,-4.1074,-4.1113,-4.1016,-4.1016,-4.0918,-4.0815,-4.0733,-4.0703,-4.0716,-4.0714,-4.0715,-4.0758,-4.0768,-4.0776,-4.0733,-4.07,-4.0639,-4.0527,-4.0508,-4.0508,-4.0489,-4.0489,-4.0508,-4.0508,-4.0527,-4.0566,-4.0669,-4.0757,-4.0829,-4.0981,-4.1094,-4.1191,-4.1191,-4.1191,-4.1191,-4.1191,-4.1191,-4.1191,-4.1191,-4.1191,-4.1191,-4.1191,-4.1191,-4.1191,-4.1191,-4.1191,-4.1191,-4.1191,-4.1191,-4.1172,-4.1094,-4.1055,-4.1548,-4.2466,-4.3223,-4.4082,-4.5039,-4.5723,-4.623,-4.6289,-4.6289,-4.6289,-4.6289,-4.6289,-4.6289,-4.6289,-4.6289,-4.6289,-4.6289,-4.6289,-4.6289,-4.6289,-4.6289,-4.6289,-4.6289,-4.6289,-4.6289,-4.6289,-4.6289,-4.6289,-4.6289,-4.6289,-4.6289,-4.6289,-4.6289,-4.6289,-4.6289,-4.6289,-4.6289,-4.6289,-4.6289,-4.6289,-4.6289,-4.6289,-4.6289,-4.6289,-4.6289,-4.6289,-4.6289,-4.6289,-4.6289,-4.1025,-4.0964,-4.0952,-4.0976,-4.0995,-4.0993,-4.0878,-4.0762,-4.0731,-4.0716,-4.0716,-4.0773,-4.087,-4.0984,-4.1035,-4.1055,-4.0996,-4.0859,-4.0792,-4.0717,-4.0639,-4.0639,-4.0677,-4.0727,-4.0758,-4.0752,-4.0773,-4.0771,-4.0723,-4.0639,-4.0546,-4.0489,-4.0489,-4.0489,-4.0489,-4.0508,-4.0527,-4.06,-4.062,-4.0673,-4.0742,-4.0788,-4.0863,-4.0989,-4.1019,-4.1113,-4.1172,-4.1191,-4.1191,-4.1191,-4.1191,-4.1191,-4.1191,-4.1191,-4.1191,-4.1191,-4.1191,-4.1191,-4.1191,-4.1191,-4.1191,-4.1191,-4.1191,-4.1172,-4.1113,-4.1113,-4.1538,-4.2334,-4.3154,-4.4004,-4.4883,-4.5742,-4.6289,-4.6289,-4.6289,-4.6289,-4.6289,-4.6289,-4.6289,-4.6289,-4.6289,-4.6289,-4.6289,-4.6289,-4.6289,-4.6289,-4.6289,-4.6289,-4.6289,-4.6289,-4.6289,-4.6289,-4.6289,-4.6289,-4.6289,-4.6289,-4.6289,-4.6289,-4.6289,-4.6289,-4.6289,-4.6289,-4.6289,-4.6289,-4.6289,-4.6289,-4.6289,-4.6289,-4.6289,-4.6289,-4.6289,-4.6289,-4.6289,-4.6289,-4.6289,-4.0137,-4.0073,-4.0039,-4.0411,-4.0873,-4.0912,-4.0812,-4.0677,-4.0677,-4.0754,-4.0773,-4.0812,-4.0874,-4.0966,-4.0937,-4.0918,-4.0859,-4.0773,-4.0689,-4.062,-4.0546,-4.0546,-4.0639,-4.068,-4.0681,-4.0707,-4.0703,-4.0677,-4.0639,-4.0546,-4.0508,-4.0489,-4.0489,-4.0489,-4.0489,-4.0508,-4.0546,-4.0673,-4.0718,-4.0757,-4.0839,-4.0866,-4.0918,-4.1035,-4.1074,-4.1113,-4.1172,-4.1191,-4.1191,-4.1191,-4.1191,-4.1191,-4.1191,-4.1191,-4.1191,-4.1191,-4.1191,-4.1191,-4.1191,-4.1191,-4.1191,-4.1191,-4.1191,-4.1191,-4.1172,-4.1152,-4.1424,-4.1859,-4.29,-4.3965,-4.4726,-4.5488,-4.6191,-4.6289,-4.6289,-4.6289,-4.6289,-4.6289,-4.6289,-4.6289,-4.6289,-4.6289,-4.6289,-4.6289,-4.6289,-4.6289,-4.6289,-4.6289,-4.6289,-4.6289,-4.6289,-4.6289,-4.6289,-4.6289,-4.6289,-4.6289,-4.6289,-4.6289,-4.6289,-4.6289,-4.6289,-4.6289,-4.6289,-4.6289,-4.6289,-4.6289,-4.6289,-4.6289,-4.6289,-4.6289,-4.6289,-4.6289,-4.6289,-4.6289,-4.6289,-3.843,-3.8347,-3.8411,-3.9295,-4.0472,-4.0679,-4.0527,-4.0292,-4.0521,-4.0703,-4.0795,-4.0752,-4.0682,-4.071,-4.0444,-4.0364,-4.0343,-4.041,-4.0354,-4.0181,-4.0031,-4.0277,-4.0373,-4.0337,-4.0198,-4.0427,-4.0286,-4.0142,-4.0412,-4.0296,-4.0335,-4.0508,-4.0508,-4.0527,-4.0508,-4.0489,-4.0566,-4.0703,-4.074,-4.084,-4.0957,-4.0996,-4.1074,-4.1133,-4.1152,-4.1172,-4.1191,-4.1191,-4.1191,-4.1191,-4.1191,-4.1191,-4.1191,-4.1191,-4.1191,-4.1191,-4.1191,-4.1191,-4.1191,-4.1191,-4.1191,-4.1191,-4.1191,-4.1172,-4.1074,-4.1055,-4.1094,-4.1523,-4.2689,-4.352,-4.4316,-4.5195,-4.5937,-4.6289,-4.6289,-4.6289,-4.6289,-4.6289,-4.6289,-4.6289,-4.6289,-4.6289,-4.6289,-4.6289,-4.6289,-4.6289,-4.6289,-4.6289,-4.6289,-4.6289,-4.6289,-4.6289,-4.6289,-4.6289,-4.6289,-4.6289,-4.6289,-4.6289,-4.6289,-4.6289,-4.6289,-4.6289,-4.6289,-4.6289,-4.6289,-4.6289,-4.6289,-4.6289,-4.6289,-4.6289,-4.6289,-4.6289,-4.6289,-4.6289,-4.6289,-3.8161,-3.8093,-3.8099,-3.8415,-3.8905,-3.8998,-3.8981,-3.9047,-3.9624,-4.0042,-4.0098,-4.0029,-3.9662,-3.9392,-3.9238,-3.9158,-3.9109,-3.8923,-3.8885,-3.8977,-3.9042,-3.94,-3.955,-3.9471,-3.9374,-3.9491,-3.9389,-3.9373,-3.9685,-3.9704,-4.0085,-4.0335,-4.0527,-4.0639,-4.0639,-4.0658,-4.0716,-4.0866,-4.0918,-4.0976,-4.1113,-4.1133,-4.1152,-4.1191,-4.1191,-4.1191,-4.1191,-4.1191,-4.1191,-4.1191,-4.1191,-4.1191,-4.1191,-4.1191,-4.1191,-4.1191,-4.1191,-4.1191,-4.1191,-4.1191,-4.1191,-4.1191,-4.1191,-4.1191,-4.1133,-4.1152,-4.1133,-4.1465,-4.2695,-4.3457,-4.3984,-4.5351,-4.6152,-4.6269,-4.6289,-4.6289,-4.6289,-4.6289,-4.6289,-4.6289,-4.6289,-4.6289,-4.6289,-4.6289,-4.6289,-4.6289,-4.6289,-4.6289,-4.6289,-4.6289,-4.6289,-4.6289,-4.6289,-4.6289,-4.6289,-4.6289,-4.6289,-4.6289,-4.6289,-4.6289,-4.6289,-4.6289,-4.6289,-4.6289,-4.6289,-4.6289,-4.6289,-4.6289,-4.6289,-4.6289,-4.6289,-4.6289,-4.6289,-4.6289,-4.6289,-3.7209,-3.7127,-3.7151,-3.7137,-3.7271,-3.7882,-3.8182,-3.8326,-3.8899,-3.9213,-3.9232,-3.917,-3.8897,-3.843,-3.8208,-3.8131,-3.8127,-3.8108,-3.807,-3.8094,-3.8186,-3.8598,-3.8714,-3.8568,-3.8637,-3.8686,-3.8537,-3.845,-3.8849,-3.8843,-3.9285,-3.9935,-4.0489,-4.0716,-4.0757,-4.0797,-4.081,-4.094,-4.0976,-4.1055,-4.1152,-4.1191,-4.1191,-4.1191,-4.1191,-4.1191,-4.1191,-4.1191,-4.1191,-4.1191,-4.1191,-4.1191,-4.1191,-4.1191,-4.1191,-4.1191,-4.1191,-4.1191,-4.1191,-4.1191,-4.1191,-4.1191,-4.1191,-4.1191,-4.1191,-4.1191,-4.1191,-4.166,-4.2812,-4.3359,-4.3906,-4.5332,-4.6035,-4.6152,-4.623,-4.6211,-4.6289,-4.6289,-4.6289,-4.6289,-4.6289,-4.6289,-4.6289,-4.6289,-4.6289,-4.6289,-4.6289,-4.6289,-4.6289,-4.6289,-4.6289,-4.6289,-4.6289,-4.6289,-4.6289,-4.6289,-4.6289,-4.6289,-4.6289,-4.6289,-4.6289,-4.6289,-4.6289,-4.6289,-4.6289,-4.6289,-4.6289,-4.6289,-4.6289,-4.6289,-4.6289,-4.6289,-4.6289,-4.6289,-4.6289,-3.5526,-3.5507,-3.5507,-3.5622,-3.5892,-3.727,-3.8047,-3.8301,-3.834,-3.8359,-3.8344,-3.8296,-3.8033,-3.7995,-3.7887,-3.7733,-3.7685,-3.7742,-3.7758,-3.782,-3.7687,-3.7969,-3.8008,-3.7899,-3.7829,-3.7877,-3.7767,-3.7541,-3.7935,-3.8219,-3.8689,-3.9304,-3.9915,-4.0207,-4.0369,-4.039,-4.0586,-4.0859,-4.1055,-4.1113,-4.1172,-4.1191,-4.1191,-4.1191,-4.1191,-4.1191,-4.1191,-4.1191,-4.1191,-4.1191,-4.1191,-4.1191,-4.1191,-4.1191,-4.1191,-4.1191,-4.1191,-4.1191,-4.1191,-4.1191,-4.1191,-4.1191,-4.1191,-4.1191,-4.1191,-4.1191,-4.1191,-4.1601,-4.25,-4.3086,-4.3769,-4.4844,-4.5879,-4.5976,-4.6074,-4.6152,-4.6269,-4.6289,-4.6289,-4.6289,-4.6289,-4.6289,-4.6289,-4.6289,-4.6289,-4.6289,-4.6289,-4.6289,-4.6289,-4.6289,-4.6289,-4.6289,-4.6289,-4.6289,-4.6289,-4.6289,-4.6289,-4.6289,-4.6289,-4.6289,-4.6289,-4.6289,-4.6289,-4.6289,-4.6289,-4.6289,-4.6289,-4.6289,-4.6289,-4.6289,-4.6289,-4.6289,-4.6289,-4.6289,-4.6289,-3.5526,-3.5584,-3.5565,-3.5603,-3.574,-3.6197,-3.6821,-3.748,-3.7539,-3.7542,-3.7544,-3.7365,-3.7037,-3.6348,-3.6238,-3.6309,-3.6309,-3.6312,-3.6403,-3.6543,-3.6777,-3.6992,-3.7012,-3.6871,-3.6826,-3.6824,-3.6747,-3.6675,-3.7184,-3.7579,-3.8031,-3.8539,-3.905,-3.9236,-3.9306,-3.9238,-4.0039,-4.0644,-4.0859,-4.0898,-4.1016,-4.1055,-4.1074,-4.1074,-4.1172,-4.1172,-4.1191,-4.1191,-4.1191,-4.1191,-4.1191,-4.1191,-4.1191,-4.1191,-4.1191,-4.1191,-4.1191,-4.1191,-4.1191,-4.1191,-4.1191,-4.1191,-4.1191,-4.1191,-4.1191,-4.1191,-4.1191,-4.1641,-4.2187,-4.2793,-4.3203,-4.4062,-4.4961,-4.5293,-4.543,-4.5605,-4.5762,-4.6055,-4.6055,-4.6094,-4.6094,-4.6172,-4.6191,-4.6289,-4.6289,-4.6289,-4.6289,-4.6289,-4.6289,-4.6289,-4.6289,-4.6289,-4.6289,-4.6289,-4.6289,-4.6289,-4.6289,-4.6289,-4.6289,-4.6289,-4.6289,-4.6289,-4.6289,-4.6289,-4.6289,-4.6289,-4.6289,-4.6289,-4.6289,-4.6289,-4.6289,-4.6289,-4.6289,-4.6289,-4.6289,-3.5603,-3.5643,-3.5641,-3.5655,-3.5702,-3.5764,-3.6144,-3.6551,-3.6612,-3.6601,-3.6537,-3.6439,-3.6098,-3.5718,-3.5641,-3.5661,-3.5707,-3.5872,-3.5931,-3.5924,-3.579,-3.6113,-3.6152,-3.6017,-3.6016,-3.5982,-3.5944,-3.5911,-3.6419,-3.7109,-3.7616,-3.7801,-3.8105,-3.8372,-3.8574,-3.8789,-3.916,-3.9726,-4.0078,-4.0156,-4.0312,-4.0527,-4.0664,-4.0781,-4.0937,-4.1152,-4.1191,-4.1191,-4.1191,-4.1191,-4.1191,-4.1191,-4.1191,-4.1191,-4.1191,-4.1191,-4.1191,-4.1191,-4.1191,-4.1191,-4.1191,-4.1191,-4.1191,-4.1191,-4.1191,-4.1191,-4.1191,-4.1387,-4.1973,-4.248,-4.2793,-4.3164,-4.3808,-4.4433,-4.4648,-4.4883,-4.5254,-4.5664,-4.5762,-4.5801,-4.5859,-4.5957,-4.6055,-4.6191,-4.6289,-4.6289,-4.6289,-4.6289,-4.6289,-4.6289,-4.6289,-4.6289,-4.6289,-4.6289,-4.6289,-4.6289,-4.6289,-4.6289,-4.6289,-4.6289,-4.6289,-4.6289,-4.6289,-4.6289,-4.6289,-4.6289,-4.6289,-4.6289,-4.6289,-4.6289,-4.6289,-4.6289,-4.6289,-4.6289,-4.6289,-3.5526,-3.5599,-3.5703,-3.5742,-3.5722,-3.5816,-3.5833,-3.5707,-3.5763,-3.5657,-3.5689,-3.5622,-3.5641,-3.5545,-3.5565,-3.5591,-3.5667,-3.5749,-3.5774,-3.5714,-3.5775,-3.5885,-3.5775,-3.5603,-3.5661,-3.5565,-3.5545,-3.5641,-3.5797,-3.6369,-3.6936,-3.7148,-3.7661,-3.7907,-3.793,-3.7969,-3.8125,-3.8242,-3.8457,-3.8535,-3.8984,-3.9375,-3.9863,-4.0098,-4.0566,-4.1074,-4.1172,-4.1191,-4.1152,-4.1113,-4.1191,-4.1172,-4.0996,-4.0976,-4.0996,-4.1113,-4.1094,-4.1191,-4.1191,-4.1191,-4.1191,-4.1191,-4.1191,-4.1191,-4.1191,-4.1191,-4.1191,-4.125,-4.1758,-4.1933,-4.2187,-4.2461,-4.2969,-4.3418,-4.3691,-4.4101,-4.4609,-4.4922,-4.5078,-4.5215,-4.5547,-4.5683,-4.5976,-4.6113,-4.6289,-4.6289,-4.6289,-4.6289,-4.6289,-4.6289,-4.6289,-4.6289,-4.6289,-4.6289,-4.6289,-4.6289,-4.6289,-4.6289,-4.6289,-4.6289,-4.6289,-4.6289,-4.6289,-4.6289,-4.6289,-4.6289,-4.6289,-4.6289,-4.6289,-4.6289,-4.6289,-4.6289,-4.6289,-4.6289,-4.6289,-3.4236,-3.4944,-3.5623,-3.5898,-3.584,-3.5772,-3.567,-3.5617,-3.5562,-3.5516,-3.5578,-3.5526,-3.5526,-3.5526,-3.5565,-3.5612,-3.5688,-3.5723,-3.5781,-3.5763,-3.5762,-3.5689,-3.5605,-3.5565,-3.5526,-3.5526,-3.5545,-3.5624,-3.5739,-3.602,-3.6191,-3.6269,-3.6699,-3.6875,-3.6894,-3.6875,-3.6894,-3.6973,-3.6992,-3.7519,-3.832,-3.873,-3.9141,-3.9609,-4.0195,-4.0527,-4.0742,-4.1074,-4.0723,-4.043,-4.0957,-4.0801,-4.0273,-4.0234,-4.0215,-4.0312,-4.0762,-4.0996,-4.1113,-4.1133,-4.1191,-4.1191,-4.1191,-4.1191,-4.1191,-4.1191,-4.123,-4.1289,-4.1367,-4.1465,-4.1601,-4.1875,-4.2109,-4.2441,-4.2754,-4.332,-4.3906,-4.416,-4.4355,-4.4648,-4.5078,-4.5449,-4.5762,-4.6055,-4.623,-4.6289,-4.6289,-4.6289,-4.6289,-4.6289,-4.6289,-4.6289,-4.6289,-4.6289,-4.6289,-4.6289,-4.6289,-4.6289,-4.6289,-4.6289,-4.6289,-4.6289,-4.6289,-4.6289,-4.6289,-4.6289,-4.6289,-4.6289,-4.6289,-4.6289,-4.6289,-4.6289,-4.6289,-4.6289,-4.6289,-3.3584,-3.4107,-3.4609,-3.4785,-3.4707,-3.4633,-3.4505,-3.4408,-3.4351,-3.4595,-3.5032,-3.5301,-3.5488,-3.5507,-3.5565,-3.5635,-3.5651,-3.5684,-3.5698,-3.5704,-3.5669,-3.5591,-3.5565,-3.5545,-3.5565,-3.5565,-3.5611,-3.57,-3.5781,-3.5859,-3.5957,-3.5957,-3.5996,-3.6016,-3.6016,-3.6016,-3.6016,-3.6055,-3.6016,-3.6601,-3.7637,-3.7871,-3.8164,-3.8711,-3.918,-3.959,-3.9766,-4.0039,-3.9785,-3.9473,-3.9766,-3.9766,-3.9394,-3.9336,-3.9316,-3.957,-4.0019,-4.0625,-4.0703,-4.0918,-4.1094,-4.1133,-4.1191,-4.1191,-4.1191,-4.1191,-4.1191,-4.125,-4.125,-4.1348,-4.1348,-4.1523,-4.1582,-4.1797,-4.1953,-4.2305,-4.3027,-4.3613,-4.3535,-4.3418,-4.4043,-4.4863,-4.5273,-4.5879,-4.6074,-4.6289,-4.6289,-4.623,-4.623,-4.6289,-4.6289,-4.6289,-4.6289,-4.6289,-4.6289,-4.6289,-4.6289,-4.6289,-4.6289,-4.6289,-4.6289,-4.6289,-4.6289,-4.6289,-4.6289,-4.6289,-4.6289,-4.6289,-4.6289,-4.6289,-4.6289,-4.6289,-4.6289,-4.6289,-4.6289,-3.3086,-3.3242,-3.3379,-3.334,-3.3203,-3.3219,-3.3146,-3.2979,-3.2941,-3.3377,-3.4038,-3.4762,-3.5218,-3.5507,-3.5565,-3.5603,-3.563,-3.5646,-3.5639,-3.5469,-3.5541,-3.5359,-3.5378,-3.5507,-3.5611,-3.5684,-3.5737,-3.5801,-3.5898,-3.5937,-3.5957,-3.5996,-3.6016,-3.6016,-3.6016,-3.6016,-3.6016,-3.6016,-3.6016,-3.6016,-3.6387,-3.6719,-3.7187,-3.7598,-3.7969,-3.8437,-3.8555,-3.8633,-3.8633,-3.834,-3.8359,-3.8359,-3.8457,-3.8437,-3.8437,-3.8652,-3.9258,-3.9629,-3.9863,-4.0449,-4.0742,-4.0976,-4.1094,-4.1191,-4.1172,-4.1191,-4.1191,-4.1191,-4.1191,-4.1191,-4.1191,-4.1211,-4.123,-4.1269,-4.1387,-4.1465,-4.2246,-4.293,-4.2676,-4.2422,-4.3203,-4.4121,-4.4746,-4.5391,-4.5664,-4.5918,-4.6133,-4.6133,-4.6152,-4.625,-4.6289,-4.6289,-4.6289,-4.6289,-4.6289,-4.6289,-4.6289,-4.6289,-4.6289,-4.6289,-4.6289,-4.6289,-4.6289,-4.6289,-4.6289,-4.6289,-4.6289,-4.6289,-4.6289,-4.6289,-4.6289,-4.6289,-4.6289,-4.6289,-4.6289,-3.168,-3.248,-3.3066,-3.3262,-3.3144,-3.3119,-3.3037,-3.2909,-3.2851,-3.3024,-3.3166,-3.3365,-3.4045,-3.5468,-3.5565,-3.5468,-3.5181,-3.5311,-3.5082,-3.4814,-3.5051,-3.4989,-3.4982,-3.5182,-3.5655,-3.5801,-3.5859,-3.5918,-3.5937,-3.5957,-3.5996,-3.6016,-3.6016,-3.6016,-3.6016,-3.6016,-3.6016,-3.6016,-3.6016,-3.6016,-3.6016,-3.6348,-3.668,-3.707,-3.7441,-3.7988,-3.8379,-3.8594,-3.8184,-3.7598,-3.7051,-3.7129,-3.7324,-3.7539,-3.7539,-3.7754,-3.8359,-3.873,-3.9121,-3.9707,-4.0059,-4.0391,-4.0605,-4.1094,-4.1133,-4.1191,-4.1191,-4.1191,-4.1191,-4.1191,-4.1191,-4.1191,-4.1211,-4.1211,-4.1289,-4.1289,-4.166,-4.1894,-4.1855,-4.207,-4.2617,-4.3301,-4.3848,-4.4258,-4.4394,-4.4726,-4.5254,-4.5312,-4.5566,-4.5879,-4.6269,-4.6289,-4.6289,-4.6289,-4.6289,-4.6289,-4.6289,-4.6289,-4.6289,-4.6289,-4.6289,-4.6289,-4.6289,-4.6289,-4.6289,-4.6289,-4.6289,-4.6289,-4.6289,-4.6289,-4.6289,-4.6289,-4.6289,-4.6289,-4.6289]}]]